<?xml version="1.0" encoding="UTF-8" standalone="no" ?>
<gpx xmlns="http://www.topografix.com/GPX/1/1" xmlns:xsi="http://www.w3.org/2001/XMLSchema-instance" xsi:schemaLocation="http://www.topografix.com/GPX/1/1 http://www.topografix.com/GPX/1/1/gpx.xsd" version="1.1" creator="VisuGPX - https://www.visugpx.com">
  <metadata>
    <name>paladru</name>
    <desc><![CDATA[juin paladru]]></desc>
  </metadata>
  <trk>
    <name><![CDATA[Balade à pied]]></name>
    <trkseg>
      <trkpt lat="45.47593" lon="5.55407">
        <ele>511</ele>
        <time>2012-06-14T12:52:59Z</time>
      </trkpt>
      <trkpt lat="45.47592" lon="5.55407">
        <ele>510</ele>
        <time>2012-06-14T12:53:04Z</time>
      </trkpt>
      <trkpt lat="45.47592" lon="5.55406">
        <ele>508</ele>
        <time>2012-06-14T12:53:09Z</time>
      </trkpt>
      <trkpt lat="45.47592" lon="5.55406">
        <ele>507</ele>
        <time>2012-06-14T12:53:14Z</time>
      </trkpt>
      <trkpt lat="45.47594" lon="5.554">
        <ele>507</ele>
        <time>2012-06-14T12:53:19Z</time>
      </trkpt>
      <trkpt lat="45.47597" lon="5.55394">
        <ele>508</ele>
        <time>2012-06-14T12:53:24Z</time>
      </trkpt>
      <trkpt lat="45.47598" lon="5.55385">
        <ele>509</ele>
        <time>2012-06-14T12:53:29Z</time>
      </trkpt>
      <trkpt lat="45.47601" lon="5.55379">
        <ele>509</ele>
        <time>2012-06-14T12:53:34Z</time>
      </trkpt>
      <trkpt lat="45.47605" lon="5.55372">
        <ele>509</ele>
        <time>2012-06-14T12:53:39Z</time>
      </trkpt>
      <trkpt lat="45.47608" lon="5.55365">
        <ele>509</ele>
        <time>2012-06-14T12:53:44Z</time>
      </trkpt>
      <trkpt lat="45.47611" lon="5.55358">
        <ele>509</ele>
        <time>2012-06-14T12:53:49Z</time>
      </trkpt>
      <trkpt lat="45.47614" lon="5.55351">
        <ele>509</ele>
        <time>2012-06-14T12:53:54Z</time>
      </trkpt>
      <trkpt lat="45.47615" lon="5.55343">
        <ele>509</ele>
        <time>2012-06-14T12:53:59Z</time>
      </trkpt>
      <trkpt lat="45.47617" lon="5.55336">
        <ele>509</ele>
        <time>2012-06-14T12:54:04Z</time>
      </trkpt>
      <trkpt lat="45.47618" lon="5.55328">
        <ele>510</ele>
        <time>2012-06-14T12:54:09Z</time>
      </trkpt>
      <trkpt lat="45.47619" lon="5.55319">
        <ele>509</ele>
        <time>2012-06-14T12:54:15Z</time>
      </trkpt>
      <trkpt lat="45.4762" lon="5.5531">
        <ele>510</ele>
        <time>2012-06-14T12:54:20Z</time>
      </trkpt>
      <trkpt lat="45.47621" lon="5.55301">
        <ele>511</ele>
        <time>2012-06-14T12:54:25Z</time>
      </trkpt>
      <trkpt lat="45.47626" lon="5.55294">
        <ele>511</ele>
        <time>2012-06-14T12:54:30Z</time>
      </trkpt>
      <trkpt lat="45.4763" lon="5.55289">
        <ele>511</ele>
        <time>2012-06-14T12:54:35Z</time>
      </trkpt>
      <trkpt lat="45.47634" lon="5.55282">
        <ele>512</ele>
        <time>2012-06-14T12:54:40Z</time>
      </trkpt>
      <trkpt lat="45.47638" lon="5.55276">
        <ele>512</ele>
        <time>2012-06-14T12:54:45Z</time>
      </trkpt>
      <trkpt lat="45.47642" lon="5.5527">
        <ele>513</ele>
        <time>2012-06-14T12:54:50Z</time>
      </trkpt>
      <trkpt lat="45.47646" lon="5.55263">
        <ele>513</ele>
        <time>2012-06-14T12:54:55Z</time>
      </trkpt>
      <trkpt lat="45.47649" lon="5.55256">
        <ele>513</ele>
        <time>2012-06-14T12:55:00Z</time>
      </trkpt>
      <trkpt lat="45.47654" lon="5.55248">
        <ele>514</ele>
        <time>2012-06-14T12:55:05Z</time>
      </trkpt>
      <trkpt lat="45.47657" lon="5.5524">
        <ele>515</ele>
        <time>2012-06-14T12:55:10Z</time>
      </trkpt>
      <trkpt lat="45.47661" lon="5.55236">
        <ele>515</ele>
        <time>2012-06-14T12:55:15Z</time>
      </trkpt>
      <trkpt lat="45.47665" lon="5.55232">
        <ele>515</ele>
        <time>2012-06-14T12:55:20Z</time>
      </trkpt>
      <trkpt lat="45.4767" lon="5.55227">
        <ele>516</ele>
        <time>2012-06-14T12:55:25Z</time>
      </trkpt>
      <trkpt lat="45.47675" lon="5.55224">
        <ele>516</ele>
        <time>2012-06-14T12:55:30Z</time>
      </trkpt>
      <trkpt lat="45.47678" lon="5.55219">
        <ele>517</ele>
        <time>2012-06-14T12:55:35Z</time>
      </trkpt>
      <trkpt lat="45.47682" lon="5.55213">
        <ele>518</ele>
        <time>2012-06-14T12:55:40Z</time>
      </trkpt>
      <trkpt lat="45.47685" lon="5.55208">
        <ele>518</ele>
        <time>2012-06-14T12:55:45Z</time>
      </trkpt>
      <trkpt lat="45.47689" lon="5.55204">
        <ele>518</ele>
        <time>2012-06-14T12:55:51Z</time>
      </trkpt>
      <trkpt lat="45.47693" lon="5.55198">
        <ele>518</ele>
        <time>2012-06-14T12:55:56Z</time>
      </trkpt>
      <trkpt lat="45.47697" lon="5.55196">
        <ele>519</ele>
        <time>2012-06-14T12:56:01Z</time>
      </trkpt>
      <trkpt lat="45.47701" lon="5.55193">
        <ele>520</ele>
        <time>2012-06-14T12:56:06Z</time>
      </trkpt>
      <trkpt lat="45.47709" lon="5.55191">
        <ele>520</ele>
        <time>2012-06-14T12:56:11Z</time>
      </trkpt>
      <trkpt lat="45.47715" lon="5.55192">
        <ele>521</ele>
        <time>2012-06-14T12:56:16Z</time>
      </trkpt>
      <trkpt lat="45.47722" lon="5.55192">
        <ele>521</ele>
        <time>2012-06-14T12:56:21Z</time>
      </trkpt>
      <trkpt lat="45.47729" lon="5.55192">
        <ele>522</ele>
        <time>2012-06-14T12:56:26Z</time>
      </trkpt>
      <trkpt lat="45.47735" lon="5.55193">
        <ele>522</ele>
        <time>2012-06-14T12:56:31Z</time>
      </trkpt>
      <trkpt lat="45.47741" lon="5.55193">
        <ele>523</ele>
        <time>2012-06-14T12:56:36Z</time>
      </trkpt>
      <trkpt lat="45.47747" lon="5.5519">
        <ele>523</ele>
        <time>2012-06-14T12:56:41Z</time>
      </trkpt>
      <trkpt lat="45.4775" lon="5.55186">
        <ele>524</ele>
        <time>2012-06-14T12:56:46Z</time>
      </trkpt>
      <trkpt lat="45.47755" lon="5.55181">
        <ele>524</ele>
        <time>2012-06-14T12:56:51Z</time>
      </trkpt>
      <trkpt lat="45.47758" lon="5.55175">
        <ele>524</ele>
        <time>2012-06-14T12:56:56Z</time>
      </trkpt>
      <trkpt lat="45.47762" lon="5.55169">
        <ele>525</ele>
        <time>2012-06-14T12:57:01Z</time>
      </trkpt>
      <trkpt lat="45.47767" lon="5.55164">
        <ele>525</ele>
        <time>2012-06-14T12:57:07Z</time>
      </trkpt>
      <trkpt lat="45.47772" lon="5.5516">
        <ele>525</ele>
        <time>2012-06-14T12:57:12Z</time>
      </trkpt>
      <trkpt lat="45.47777" lon="5.55157">
        <ele>525</ele>
        <time>2012-06-14T12:57:17Z</time>
      </trkpt>
      <trkpt lat="45.47784" lon="5.55154">
        <ele>526</ele>
        <time>2012-06-14T12:57:22Z</time>
      </trkpt>
      <trkpt lat="45.4779" lon="5.5515">
        <ele>526</ele>
        <time>2012-06-14T12:57:27Z</time>
      </trkpt>
      <trkpt lat="45.47796" lon="5.55147">
        <ele>526</ele>
        <time>2012-06-14T12:57:32Z</time>
      </trkpt>
      <trkpt lat="45.47802" lon="5.55145">
        <ele>526</ele>
        <time>2012-06-14T12:57:37Z</time>
      </trkpt>
      <trkpt lat="45.47808" lon="5.55142">
        <ele>527</ele>
        <time>2012-06-14T12:57:42Z</time>
      </trkpt>
      <trkpt lat="45.47815" lon="5.55139">
        <ele>527</ele>
        <time>2012-06-14T12:57:47Z</time>
      </trkpt>
      <trkpt lat="45.47821" lon="5.55137">
        <ele>527</ele>
        <time>2012-06-14T12:57:52Z</time>
      </trkpt>
      <trkpt lat="45.47828" lon="5.55136">
        <ele>527</ele>
        <time>2012-06-14T12:57:57Z</time>
      </trkpt>
      <trkpt lat="45.47834" lon="5.55133">
        <ele>527</ele>
        <time>2012-06-14T12:58:02Z</time>
      </trkpt>
      <trkpt lat="45.4784" lon="5.55132">
        <ele>527</ele>
        <time>2012-06-14T12:58:08Z</time>
      </trkpt>
      <trkpt lat="45.47846" lon="5.55131">
        <ele>527</ele>
        <time>2012-06-14T12:58:13Z</time>
      </trkpt>
      <trkpt lat="45.47852" lon="5.5513">
        <ele>528</ele>
        <time>2012-06-14T12:58:18Z</time>
      </trkpt>
      <trkpt lat="45.47858" lon="5.55129">
        <ele>529</ele>
        <time>2012-06-14T12:58:23Z</time>
      </trkpt>
      <trkpt lat="45.47864" lon="5.55128">
        <ele>529</ele>
        <time>2012-06-14T12:58:28Z</time>
      </trkpt>
      <trkpt lat="45.4787" lon="5.55127">
        <ele>529</ele>
        <time>2012-06-14T12:58:33Z</time>
      </trkpt>
      <trkpt lat="45.47876" lon="5.55127">
        <ele>529</ele>
        <time>2012-06-14T12:58:38Z</time>
      </trkpt>
      <trkpt lat="45.47881" lon="5.55126">
        <ele>530</ele>
        <time>2012-06-14T12:58:43Z</time>
      </trkpt>
      <trkpt lat="45.47887" lon="5.55124">
        <ele>530</ele>
        <time>2012-06-14T12:58:48Z</time>
      </trkpt>
      <trkpt lat="45.47892" lon="5.55123">
        <ele>531</ele>
        <time>2012-06-14T12:58:53Z</time>
      </trkpt>
      <trkpt lat="45.47896" lon="5.55122">
        <ele>531</ele>
        <time>2012-06-14T12:58:58Z</time>
      </trkpt>
      <trkpt lat="45.47899" lon="5.5512">
        <ele>532</ele>
        <time>2012-06-14T12:59:03Z</time>
      </trkpt>
      <trkpt lat="45.47903" lon="5.55118">
        <ele>532</ele>
        <time>2012-06-14T12:59:08Z</time>
      </trkpt>
      <trkpt lat="45.47907" lon="5.55117">
        <ele>532</ele>
        <time>2012-06-14T12:59:13Z</time>
      </trkpt>
      <trkpt lat="45.47911" lon="5.55115">
        <ele>532</ele>
        <time>2012-06-14T12:59:18Z</time>
      </trkpt>
      <trkpt lat="45.47915" lon="5.55114">
        <ele>532</ele>
        <time>2012-06-14T12:59:24Z</time>
      </trkpt>
      <trkpt lat="45.47921" lon="5.55114">
        <ele>533</ele>
        <time>2012-06-14T12:59:29Z</time>
      </trkpt>
      <trkpt lat="45.47929" lon="5.55112">
        <ele>533</ele>
        <time>2012-06-14T12:59:34Z</time>
      </trkpt>
      <trkpt lat="45.47935" lon="5.55111">
        <ele>534</ele>
        <time>2012-06-14T12:59:39Z</time>
      </trkpt>
      <trkpt lat="45.4794" lon="5.55111">
        <ele>534</ele>
        <time>2012-06-14T12:59:44Z</time>
      </trkpt>
      <trkpt lat="45.47945" lon="5.5511">
        <ele>535</ele>
        <time>2012-06-14T12:59:49Z</time>
      </trkpt>
      <trkpt lat="45.47951" lon="5.55108">
        <ele>535</ele>
        <time>2012-06-14T12:59:54Z</time>
      </trkpt>
      <trkpt lat="45.47956" lon="5.55107">
        <ele>536</ele>
        <time>2012-06-14T12:59:59Z</time>
      </trkpt>
      <trkpt lat="45.47961" lon="5.55107">
        <ele>537</ele>
        <time>2012-06-14T13:00:04Z</time>
      </trkpt>
      <trkpt lat="45.47965" lon="5.55107">
        <ele>537</ele>
        <time>2012-06-14T13:00:09Z</time>
      </trkpt>
      <trkpt lat="45.47971" lon="5.55104">
        <ele>537</ele>
        <time>2012-06-14T13:00:14Z</time>
      </trkpt>
      <trkpt lat="45.47976" lon="5.55102">
        <ele>538</ele>
        <time>2012-06-14T13:00:19Z</time>
      </trkpt>
      <trkpt lat="45.4798" lon="5.55101">
        <ele>538</ele>
        <time>2012-06-14T13:00:24Z</time>
      </trkpt>
      <trkpt lat="45.47986" lon="5.551">
        <ele>539</ele>
        <time>2012-06-14T13:00:30Z</time>
      </trkpt>
      <trkpt lat="45.47991" lon="5.55098">
        <ele>539</ele>
        <time>2012-06-14T13:00:35Z</time>
      </trkpt>
      <trkpt lat="45.47996" lon="5.55097">
        <ele>539</ele>
        <time>2012-06-14T13:00:40Z</time>
      </trkpt>
      <trkpt lat="45.48001" lon="5.55095">
        <ele>539</ele>
        <time>2012-06-14T13:00:45Z</time>
      </trkpt>
      <trkpt lat="45.48008" lon="5.55094">
        <ele>540</ele>
        <time>2012-06-14T13:00:50Z</time>
      </trkpt>
      <trkpt lat="45.48015" lon="5.5509">
        <ele>541</ele>
        <time>2012-06-14T13:00:55Z</time>
      </trkpt>
      <trkpt lat="45.4802" lon="5.55089">
        <ele>541</ele>
        <time>2012-06-14T13:01:00Z</time>
      </trkpt>
      <trkpt lat="45.48026" lon="5.55089">
        <ele>541</ele>
        <time>2012-06-14T13:01:05Z</time>
      </trkpt>
      <trkpt lat="45.48033" lon="5.55089">
        <ele>542</ele>
        <time>2012-06-14T13:01:10Z</time>
      </trkpt>
      <trkpt lat="45.48039" lon="5.55088">
        <ele>542</ele>
        <time>2012-06-14T13:01:15Z</time>
      </trkpt>
      <trkpt lat="45.48046" lon="5.55088">
        <ele>543</ele>
        <time>2012-06-14T13:01:20Z</time>
      </trkpt>
      <trkpt lat="45.48052" lon="5.55087">
        <ele>543</ele>
        <time>2012-06-14T13:01:25Z</time>
      </trkpt>
      <trkpt lat="45.48058" lon="5.55087">
        <ele>543</ele>
        <time>2012-06-14T13:01:30Z</time>
      </trkpt>
      <trkpt lat="45.48065" lon="5.55085">
        <ele>543</ele>
        <time>2012-06-14T13:01:35Z</time>
      </trkpt>
      <trkpt lat="45.48071" lon="5.55084">
        <ele>544</ele>
        <time>2012-06-14T13:01:40Z</time>
      </trkpt>
      <trkpt lat="45.48077" lon="5.55081">
        <ele>544</ele>
        <time>2012-06-14T13:01:45Z</time>
      </trkpt>
      <trkpt lat="45.48082" lon="5.55077">
        <ele>544</ele>
        <time>2012-06-14T13:01:50Z</time>
      </trkpt>
      <trkpt lat="45.48087" lon="5.55072">
        <ele>545</ele>
        <time>2012-06-14T13:01:55Z</time>
      </trkpt>
      <trkpt lat="45.48092" lon="5.55067">
        <ele>545</ele>
        <time>2012-06-14T13:02:00Z</time>
      </trkpt>
      <trkpt lat="45.48096" lon="5.55061">
        <ele>546</ele>
        <time>2012-06-14T13:02:05Z</time>
      </trkpt>
      <trkpt lat="45.48099" lon="5.55056">
        <ele>546</ele>
        <time>2012-06-14T13:02:11Z</time>
      </trkpt>
      <trkpt lat="45.48101" lon="5.5505">
        <ele>546</ele>
        <time>2012-06-14T13:02:16Z</time>
      </trkpt>
      <trkpt lat="45.48104" lon="5.55048">
        <ele>547</ele>
        <time>2012-06-14T13:02:21Z</time>
      </trkpt>
      <trkpt lat="45.48106" lon="5.55047">
        <ele>548</ele>
        <time>2012-06-14T13:02:26Z</time>
      </trkpt>
      <trkpt lat="45.48107" lon="5.55048">
        <ele>549</ele>
        <time>2012-06-14T13:02:31Z</time>
      </trkpt>
      <trkpt lat="45.48109" lon="5.55048">
        <ele>549</ele>
        <time>2012-06-14T13:02:36Z</time>
      </trkpt>
      <trkpt lat="45.4811" lon="5.55049">
        <ele>549</ele>
        <time>2012-06-14T13:02:41Z</time>
      </trkpt>
      <trkpt lat="45.48112" lon="5.55053">
        <ele>548</ele>
        <time>2012-06-14T13:02:46Z</time>
      </trkpt>
      <trkpt lat="45.48115" lon="5.55058">
        <ele>547</ele>
        <time>2012-06-14T13:02:51Z</time>
      </trkpt>
      <trkpt lat="45.48119" lon="5.55063">
        <ele>547</ele>
        <time>2012-06-14T13:02:56Z</time>
      </trkpt>
      <trkpt lat="45.48121" lon="5.55069">
        <ele>547</ele>
        <time>2012-06-14T13:03:01Z</time>
      </trkpt>
      <trkpt lat="45.48123" lon="5.55075">
        <ele>547</ele>
        <time>2012-06-14T13:03:06Z</time>
      </trkpt>
      <trkpt lat="45.48122" lon="5.55082">
        <ele>548</ele>
        <time>2012-06-14T13:03:11Z</time>
      </trkpt>
      <trkpt lat="45.48119" lon="5.5509">
        <ele>548</ele>
        <time>2012-06-14T13:03:16Z</time>
      </trkpt>
      <trkpt lat="45.48117" lon="5.55098">
        <ele>549</ele>
        <time>2012-06-14T13:03:21Z</time>
      </trkpt>
      <trkpt lat="45.48115" lon="5.55104">
        <ele>550</ele>
        <time>2012-06-14T13:03:26Z</time>
      </trkpt>
      <trkpt lat="45.48112" lon="5.55109">
        <ele>550</ele>
        <time>2012-06-14T13:03:31Z</time>
      </trkpt>
      <trkpt lat="45.48108" lon="5.55114">
        <ele>550</ele>
        <time>2012-06-14T13:03:36Z</time>
      </trkpt>
      <trkpt lat="45.48103" lon="5.55117">
        <ele>551</ele>
        <time>2012-06-14T13:03:42Z</time>
      </trkpt>
      <trkpt lat="45.48096" lon="5.5512">
        <ele>551</ele>
        <time>2012-06-14T13:03:47Z</time>
      </trkpt>
      <trkpt lat="45.48089" lon="5.55123">
        <ele>552</ele>
        <time>2012-06-14T13:03:52Z</time>
      </trkpt>
      <trkpt lat="45.48083" lon="5.55125">
        <ele>551</ele>
        <time>2012-06-14T13:03:57Z</time>
      </trkpt>
      <trkpt lat="45.48077" lon="5.55128">
        <ele>552</ele>
        <time>2012-06-14T13:04:02Z</time>
      </trkpt>
      <trkpt lat="45.48072" lon="5.55129">
        <ele>552</ele>
        <time>2012-06-14T13:04:07Z</time>
      </trkpt>
      <trkpt lat="45.48066" lon="5.5513">
        <ele>552</ele>
        <time>2012-06-14T13:04:12Z</time>
      </trkpt>
      <trkpt lat="45.48061" lon="5.55133">
        <ele>552</ele>
        <time>2012-06-14T13:04:17Z</time>
      </trkpt>
      <trkpt lat="45.48054" lon="5.55133">
        <ele>552</ele>
        <time>2012-06-14T13:04:22Z</time>
      </trkpt>
      <trkpt lat="45.48048" lon="5.55133">
        <ele>552</ele>
        <time>2012-06-14T13:04:27Z</time>
      </trkpt>
      <trkpt lat="45.48042" lon="5.55134">
        <ele>552</ele>
        <time>2012-06-14T13:04:33Z</time>
      </trkpt>
      <trkpt lat="45.48036" lon="5.55134">
        <ele>552</ele>
        <time>2012-06-14T13:04:38Z</time>
      </trkpt>
      <trkpt lat="45.48031" lon="5.55135">
        <ele>552</ele>
        <time>2012-06-14T13:04:43Z</time>
      </trkpt>
      <trkpt lat="45.48025" lon="5.55137">
        <ele>552</ele>
        <time>2012-06-14T13:04:48Z</time>
      </trkpt>
      <trkpt lat="45.4802" lon="5.55139">
        <ele>552</ele>
        <time>2012-06-14T13:04:53Z</time>
      </trkpt>
      <trkpt lat="45.48015" lon="5.5514">
        <ele>552</ele>
        <time>2012-06-14T13:04:58Z</time>
      </trkpt>
      <trkpt lat="45.4801" lon="5.55142">
        <ele>552</ele>
        <time>2012-06-14T13:05:03Z</time>
      </trkpt>
      <trkpt lat="45.48005" lon="5.55145">
        <ele>552</ele>
        <time>2012-06-14T13:05:08Z</time>
      </trkpt>
      <trkpt lat="45.48" lon="5.55149">
        <ele>552</ele>
        <time>2012-06-14T13:05:13Z</time>
      </trkpt>
      <trkpt lat="45.47995" lon="5.55151">
        <ele>552</ele>
        <time>2012-06-14T13:05:18Z</time>
      </trkpt>
      <trkpt lat="45.47991" lon="5.55155">
        <ele>553</ele>
        <time>2012-06-14T13:05:23Z</time>
      </trkpt>
      <trkpt lat="45.47986" lon="5.55156">
        <ele>554</ele>
        <time>2012-06-14T13:05:28Z</time>
      </trkpt>
      <trkpt lat="45.4798" lon="5.55158">
        <ele>553</ele>
        <time>2012-06-14T13:05:33Z</time>
      </trkpt>
      <trkpt lat="45.47975" lon="5.55159">
        <ele>553</ele>
        <time>2012-06-14T13:05:38Z</time>
      </trkpt>
      <trkpt lat="45.47969" lon="5.55161">
        <ele>553</ele>
        <time>2012-06-14T13:05:43Z</time>
      </trkpt>
      <trkpt lat="45.47963" lon="5.55163">
        <ele>554</ele>
        <time>2012-06-14T13:05:48Z</time>
      </trkpt>
      <trkpt lat="45.47957" lon="5.55167">
        <ele>554</ele>
        <time>2012-06-14T13:05:54Z</time>
      </trkpt>
      <trkpt lat="45.47951" lon="5.5517">
        <ele>554</ele>
        <time>2012-06-14T13:05:59Z</time>
      </trkpt>
      <trkpt lat="45.47943" lon="5.55173">
        <ele>555</ele>
        <time>2012-06-14T13:06:04Z</time>
      </trkpt>
      <trkpt lat="45.47937" lon="5.55176">
        <ele>555</ele>
        <time>2012-06-14T13:06:09Z</time>
      </trkpt>
      <trkpt lat="45.47932" lon="5.55179">
        <ele>555</ele>
        <time>2012-06-14T13:06:14Z</time>
      </trkpt>
      <trkpt lat="45.47926" lon="5.55182">
        <ele>555</ele>
        <time>2012-06-14T13:06:19Z</time>
      </trkpt>
      <trkpt lat="45.47921" lon="5.55184">
        <ele>555</ele>
        <time>2012-06-14T13:06:24Z</time>
      </trkpt>
      <trkpt lat="45.47915" lon="5.55188">
        <ele>556</ele>
        <time>2012-06-14T13:06:29Z</time>
      </trkpt>
      <trkpt lat="45.47912" lon="5.55192">
        <ele>556</ele>
        <time>2012-06-14T13:06:34Z</time>
      </trkpt>
      <trkpt lat="45.47908" lon="5.55197">
        <ele>556</ele>
        <time>2012-06-14T13:06:39Z</time>
      </trkpt>
      <trkpt lat="45.47903" lon="5.55202">
        <ele>556</ele>
        <time>2012-06-14T13:06:44Z</time>
      </trkpt>
      <trkpt lat="45.47899" lon="5.55207">
        <ele>557</ele>
        <time>2012-06-14T13:06:49Z</time>
      </trkpt>
      <trkpt lat="45.47896" lon="5.55213">
        <ele>556</ele>
        <time>2012-06-14T13:06:55Z</time>
      </trkpt>
      <trkpt lat="45.47892" lon="5.55222">
        <ele>556</ele>
        <time>2012-06-14T13:07:00Z</time>
      </trkpt>
      <trkpt lat="45.4789" lon="5.55229">
        <ele>556</ele>
        <time>2012-06-14T13:07:05Z</time>
      </trkpt>
      <trkpt lat="45.47888" lon="5.55238">
        <ele>555</ele>
        <time>2012-06-14T13:07:10Z</time>
      </trkpt>
      <trkpt lat="45.47886" lon="5.55247">
        <ele>555</ele>
        <time>2012-06-14T13:07:15Z</time>
      </trkpt>
      <trkpt lat="45.47885" lon="5.55257">
        <ele>554</ele>
        <time>2012-06-14T13:07:20Z</time>
      </trkpt>
      <trkpt lat="45.47884" lon="5.55266">
        <ele>554</ele>
        <time>2012-06-14T13:07:25Z</time>
      </trkpt>
      <trkpt lat="45.47884" lon="5.55274">
        <ele>554</ele>
        <time>2012-06-14T13:07:30Z</time>
      </trkpt>
      <trkpt lat="45.47884" lon="5.55282">
        <ele>554</ele>
        <time>2012-06-14T13:07:35Z</time>
      </trkpt>
      <trkpt lat="45.47885" lon="5.5529">
        <ele>554</ele>
        <time>2012-06-14T13:07:40Z</time>
      </trkpt>
      <trkpt lat="45.47886" lon="5.55299">
        <ele>554</ele>
        <time>2012-06-14T13:07:45Z</time>
      </trkpt>
      <trkpt lat="45.47886" lon="5.55309">
        <ele>554</ele>
        <time>2012-06-14T13:07:50Z</time>
      </trkpt>
      <trkpt lat="45.47887" lon="5.55317">
        <ele>554</ele>
        <time>2012-06-14T13:07:55Z</time>
      </trkpt>
      <trkpt lat="45.47887" lon="5.55327">
        <ele>554</ele>
        <time>2012-06-14T13:08:01Z</time>
      </trkpt>
      <trkpt lat="45.47889" lon="5.55338">
        <ele>555</ele>
        <time>2012-06-14T13:08:06Z</time>
      </trkpt>
      <trkpt lat="45.4789" lon="5.55346">
        <ele>555</ele>
        <time>2012-06-14T13:08:11Z</time>
      </trkpt>
      <trkpt lat="45.47892" lon="5.55354">
        <ele>554</ele>
        <time>2012-06-14T13:08:16Z</time>
      </trkpt>
      <trkpt lat="45.47892" lon="5.55364">
        <ele>555</ele>
        <time>2012-06-14T13:08:21Z</time>
      </trkpt>
      <trkpt lat="45.47893" lon="5.55373">
        <ele>555</ele>
        <time>2012-06-14T13:08:26Z</time>
      </trkpt>
      <trkpt lat="45.47894" lon="5.55381">
        <ele>556</ele>
        <time>2012-06-14T13:08:31Z</time>
      </trkpt>
      <trkpt lat="45.47895" lon="5.55389">
        <ele>556</ele>
        <time>2012-06-14T13:08:36Z</time>
      </trkpt>
      <trkpt lat="45.47896" lon="5.55398">
        <ele>556</ele>
        <time>2012-06-14T13:08:41Z</time>
      </trkpt>
      <trkpt lat="45.47897" lon="5.55407">
        <ele>556</ele>
        <time>2012-06-14T13:08:46Z</time>
      </trkpt>
      <trkpt lat="45.47898" lon="5.55414">
        <ele>556</ele>
        <time>2012-06-14T13:08:51Z</time>
      </trkpt>
      <trkpt lat="45.47899" lon="5.55422">
        <ele>556</ele>
        <time>2012-06-14T13:08:56Z</time>
      </trkpt>
      <trkpt lat="45.47901" lon="5.5543">
        <ele>556</ele>
        <time>2012-06-14T13:09:01Z</time>
      </trkpt>
      <trkpt lat="45.47903" lon="5.55438">
        <ele>557</ele>
        <time>2012-06-14T13:09:06Z</time>
      </trkpt>
      <trkpt lat="45.47906" lon="5.55445">
        <ele>557</ele>
        <time>2012-06-14T13:09:11Z</time>
      </trkpt>
      <trkpt lat="45.47907" lon="5.55453">
        <ele>557</ele>
        <time>2012-06-14T13:09:16Z</time>
      </trkpt>
      <trkpt lat="45.47908" lon="5.55461">
        <ele>557</ele>
        <time>2012-06-14T13:09:22Z</time>
      </trkpt>
      <trkpt lat="45.4791" lon="5.55472">
        <ele>556</ele>
        <time>2012-06-14T13:09:27Z</time>
      </trkpt>
      <trkpt lat="45.47911" lon="5.55479">
        <ele>557</ele>
        <time>2012-06-14T13:09:32Z</time>
      </trkpt>
      <trkpt lat="45.47912" lon="5.55488">
        <ele>557</ele>
        <time>2012-06-14T13:09:37Z</time>
      </trkpt>
      <trkpt lat="45.47913" lon="5.55496">
        <ele>557</ele>
        <time>2012-06-14T13:09:42Z</time>
      </trkpt>
      <trkpt lat="45.47915" lon="5.55504">
        <ele>557</ele>
        <time>2012-06-14T13:09:47Z</time>
      </trkpt>
      <trkpt lat="45.47917" lon="5.55512">
        <ele>557</ele>
        <time>2012-06-14T13:09:52Z</time>
      </trkpt>
      <trkpt lat="45.4792" lon="5.55519">
        <ele>558</ele>
        <time>2012-06-14T13:09:57Z</time>
      </trkpt>
      <trkpt lat="45.47923" lon="5.55526">
        <ele>558</ele>
        <time>2012-06-14T13:10:02Z</time>
      </trkpt>
      <trkpt lat="45.47928" lon="5.55529">
        <ele>558</ele>
        <time>2012-06-14T13:10:07Z</time>
      </trkpt>
      <trkpt lat="45.4793" lon="5.5553">
        <ele>559</ele>
        <time>2012-06-14T13:10:12Z</time>
      </trkpt>
      <trkpt lat="45.47933" lon="5.55532">
        <ele>560</ele>
        <time>2012-06-14T13:10:17Z</time>
      </trkpt>
      <trkpt lat="45.47938" lon="5.55532">
        <ele>560</ele>
        <time>2012-06-14T13:10:22Z</time>
      </trkpt>
      <trkpt lat="45.47944" lon="5.55532">
        <ele>561</ele>
        <time>2012-06-14T13:10:27Z</time>
      </trkpt>
      <trkpt lat="45.47948" lon="5.55532">
        <ele>562</ele>
        <time>2012-06-14T13:10:32Z</time>
      </trkpt>
      <trkpt lat="45.47952" lon="5.5553">
        <ele>563</ele>
        <time>2012-06-14T13:10:37Z</time>
      </trkpt>
      <trkpt lat="45.47955" lon="5.5553">
        <ele>564</ele>
        <time>2012-06-14T13:10:43Z</time>
      </trkpt>
      <trkpt lat="45.47959" lon="5.5553">
        <ele>565</ele>
        <time>2012-06-14T13:10:48Z</time>
      </trkpt>
      <trkpt lat="45.47965" lon="5.5553">
        <ele>565</ele>
        <time>2012-06-14T13:10:53Z</time>
      </trkpt>
      <trkpt lat="45.47969" lon="5.5553">
        <ele>566</ele>
        <time>2012-06-14T13:10:58Z</time>
      </trkpt>
      <trkpt lat="45.47974" lon="5.55529">
        <ele>567</ele>
        <time>2012-06-14T13:11:03Z</time>
      </trkpt>
      <trkpt lat="45.47979" lon="5.55528">
        <ele>568</ele>
        <time>2012-06-14T13:11:08Z</time>
      </trkpt>
      <trkpt lat="45.47984" lon="5.55529">
        <ele>569</ele>
        <time>2012-06-14T13:11:13Z</time>
      </trkpt>
      <trkpt lat="45.47988" lon="5.55527">
        <ele>570</ele>
        <time>2012-06-14T13:11:18Z</time>
      </trkpt>
      <trkpt lat="45.47993" lon="5.55527">
        <ele>571</ele>
        <time>2012-06-14T13:11:23Z</time>
      </trkpt>
      <trkpt lat="45.47998" lon="5.55526">
        <ele>571</ele>
        <time>2012-06-14T13:11:28Z</time>
      </trkpt>
      <trkpt lat="45.48003" lon="5.55525">
        <ele>572</ele>
        <time>2012-06-14T13:11:33Z</time>
      </trkpt>
      <trkpt lat="45.48008" lon="5.55527">
        <ele>572</ele>
        <time>2012-06-14T13:11:38Z</time>
      </trkpt>
      <trkpt lat="45.48012" lon="5.55531">
        <ele>573</ele>
        <time>2012-06-14T13:11:43Z</time>
      </trkpt>
      <trkpt lat="45.48016" lon="5.55536">
        <ele>573</ele>
        <time>2012-06-14T13:11:48Z</time>
      </trkpt>
      <trkpt lat="45.48018" lon="5.55542">
        <ele>574</ele>
        <time>2012-06-14T13:11:53Z</time>
      </trkpt>
      <trkpt lat="45.4802" lon="5.55549">
        <ele>575</ele>
        <time>2012-06-14T13:11:58Z</time>
      </trkpt>
      <trkpt lat="45.4802" lon="5.55557">
        <ele>575</ele>
        <time>2012-06-14T13:12:03Z</time>
      </trkpt>
      <trkpt lat="45.48019" lon="5.55564">
        <ele>575</ele>
        <time>2012-06-14T13:12:08Z</time>
      </trkpt>
      <trkpt lat="45.48018" lon="5.55572">
        <ele>576</ele>
        <time>2012-06-14T13:12:14Z</time>
      </trkpt>
      <trkpt lat="45.48015" lon="5.55578">
        <ele>576</ele>
        <time>2012-06-14T13:12:19Z</time>
      </trkpt>
      <trkpt lat="45.48013" lon="5.55583">
        <ele>577</ele>
        <time>2012-06-14T13:12:24Z</time>
      </trkpt>
      <trkpt lat="45.48011" lon="5.55587">
        <ele>577</ele>
        <time>2012-06-14T13:12:29Z</time>
      </trkpt>
      <trkpt lat="45.48009" lon="5.55592">
        <ele>578</ele>
        <time>2012-06-14T13:12:34Z</time>
      </trkpt>
      <trkpt lat="45.48009" lon="5.55596">
        <ele>579</ele>
        <time>2012-06-14T13:12:39Z</time>
      </trkpt>
      <trkpt lat="45.48009" lon="5.55602">
        <ele>580</ele>
        <time>2012-06-14T13:12:44Z</time>
      </trkpt>
      <trkpt lat="45.48009" lon="5.55607">
        <ele>581</ele>
        <time>2012-06-14T13:12:49Z</time>
      </trkpt>
      <trkpt lat="45.48011" lon="5.55612">
        <ele>582</ele>
        <time>2012-06-14T13:12:54Z</time>
      </trkpt>
      <trkpt lat="45.48012" lon="5.55617">
        <ele>583</ele>
        <time>2012-06-14T13:12:59Z</time>
      </trkpt>
      <trkpt lat="45.48013" lon="5.55622">
        <ele>584</ele>
        <time>2012-06-14T13:13:04Z</time>
      </trkpt>
      <trkpt lat="45.48013" lon="5.55628">
        <ele>585</ele>
        <time>2012-06-14T13:13:09Z</time>
      </trkpt>
      <trkpt lat="45.48015" lon="5.55634">
        <ele>586</ele>
        <time>2012-06-14T13:13:14Z</time>
      </trkpt>
      <trkpt lat="45.48016" lon="5.55641">
        <ele>587</ele>
        <time>2012-06-14T13:13:19Z</time>
      </trkpt>
      <trkpt lat="45.48019" lon="5.55647">
        <ele>588</ele>
        <time>2012-06-14T13:13:25Z</time>
      </trkpt>
      <trkpt lat="45.48018" lon="5.55656">
        <ele>588</ele>
        <time>2012-06-14T13:13:30Z</time>
      </trkpt>
      <trkpt lat="45.48018" lon="5.55664">
        <ele>589</ele>
        <time>2012-06-14T13:13:35Z</time>
      </trkpt>
      <trkpt lat="45.48019" lon="5.55672">
        <ele>590</ele>
        <time>2012-06-14T13:13:40Z</time>
      </trkpt>
      <trkpt lat="45.48019" lon="5.55678">
        <ele>590</ele>
        <time>2012-06-14T13:13:45Z</time>
      </trkpt>
      <trkpt lat="45.48021" lon="5.55684">
        <ele>591</ele>
        <time>2012-06-14T13:13:50Z</time>
      </trkpt>
      <trkpt lat="45.48023" lon="5.55691">
        <ele>592</ele>
        <time>2012-06-14T13:13:55Z</time>
      </trkpt>
      <trkpt lat="45.48027" lon="5.55699">
        <ele>592</ele>
        <time>2012-06-14T13:14:00Z</time>
      </trkpt>
      <trkpt lat="45.48027" lon="5.55707">
        <ele>592</ele>
        <time>2012-06-14T13:14:05Z</time>
      </trkpt>
      <trkpt lat="45.48026" lon="5.55715">
        <ele>593</ele>
        <time>2012-06-14T13:14:10Z</time>
      </trkpt>
      <trkpt lat="45.48027" lon="5.55722">
        <ele>593</ele>
        <time>2012-06-14T13:14:15Z</time>
      </trkpt>
      <trkpt lat="45.48028" lon="5.5573">
        <ele>594</ele>
        <time>2012-06-14T13:14:20Z</time>
      </trkpt>
      <trkpt lat="45.48031" lon="5.55736">
        <ele>594</ele>
        <time>2012-06-14T13:14:25Z</time>
      </trkpt>
      <trkpt lat="45.48033" lon="5.55744">
        <ele>595</ele>
        <time>2012-06-14T13:14:30Z</time>
      </trkpt>
      <trkpt lat="45.48033" lon="5.55751">
        <ele>596</ele>
        <time>2012-06-14T13:14:35Z</time>
      </trkpt>
      <trkpt lat="45.48035" lon="5.55756">
        <ele>596</ele>
        <time>2012-06-14T13:14:41Z</time>
      </trkpt>
      <trkpt lat="45.48038" lon="5.55761">
        <ele>597</ele>
        <time>2012-06-14T13:14:46Z</time>
      </trkpt>
      <trkpt lat="45.4804" lon="5.55767">
        <ele>598</ele>
        <time>2012-06-14T13:14:51Z</time>
      </trkpt>
      <trkpt lat="45.48043" lon="5.55772">
        <ele>598</ele>
        <time>2012-06-14T13:14:56Z</time>
      </trkpt>
      <trkpt lat="45.48045" lon="5.55777">
        <ele>599</ele>
        <time>2012-06-14T13:15:01Z</time>
      </trkpt>
      <trkpt lat="45.48047" lon="5.55783">
        <ele>600</ele>
        <time>2012-06-14T13:15:06Z</time>
      </trkpt>
      <trkpt lat="45.48049" lon="5.5579">
        <ele>601</ele>
        <time>2012-06-14T13:15:11Z</time>
      </trkpt>
      <trkpt lat="45.48052" lon="5.55795">
        <ele>602</ele>
        <time>2012-06-14T13:15:16Z</time>
      </trkpt>
      <trkpt lat="45.48055" lon="5.558">
        <ele>603</ele>
        <time>2012-06-14T13:15:21Z</time>
      </trkpt>
      <trkpt lat="45.48057" lon="5.55805">
        <ele>603</ele>
        <time>2012-06-14T13:15:26Z</time>
      </trkpt>
      <trkpt lat="45.48061" lon="5.55811">
        <ele>603</ele>
        <time>2012-06-14T13:15:31Z</time>
      </trkpt>
      <trkpt lat="45.48066" lon="5.55816">
        <ele>604</ele>
        <time>2012-06-14T13:15:36Z</time>
      </trkpt>
      <trkpt lat="45.4807" lon="5.55821">
        <ele>604</ele>
        <time>2012-06-14T13:15:41Z</time>
      </trkpt>
      <trkpt lat="45.48074" lon="5.55826">
        <ele>604</ele>
        <time>2012-06-14T13:15:46Z</time>
      </trkpt>
      <trkpt lat="45.48079" lon="5.5583">
        <ele>604</ele>
        <time>2012-06-14T13:15:52Z</time>
      </trkpt>
      <trkpt lat="45.48085" lon="5.55834">
        <ele>605</ele>
        <time>2012-06-14T13:15:57Z</time>
      </trkpt>
      <trkpt lat="45.48089" lon="5.55838">
        <ele>606</ele>
        <time>2012-06-14T13:16:02Z</time>
      </trkpt>
      <trkpt lat="45.48094" lon="5.55843">
        <ele>606</ele>
        <time>2012-06-14T13:16:07Z</time>
      </trkpt>
      <trkpt lat="45.48098" lon="5.55846">
        <ele>606</ele>
        <time>2012-06-14T13:16:12Z</time>
      </trkpt>
      <trkpt lat="45.48103" lon="5.55849">
        <ele>606</ele>
        <time>2012-06-14T13:16:17Z</time>
      </trkpt>
      <trkpt lat="45.48108" lon="5.55853">
        <ele>606</ele>
        <time>2012-06-14T13:16:22Z</time>
      </trkpt>
      <trkpt lat="45.48113" lon="5.55857">
        <ele>607</ele>
        <time>2012-06-14T13:16:27Z</time>
      </trkpt>
      <trkpt lat="45.48117" lon="5.55861">
        <ele>607</ele>
        <time>2012-06-14T13:16:32Z</time>
      </trkpt>
      <trkpt lat="45.48122" lon="5.55865">
        <ele>607</ele>
        <time>2012-06-14T13:16:37Z</time>
      </trkpt>
      <trkpt lat="45.48125" lon="5.55869">
        <ele>607</ele>
        <time>2012-06-14T13:16:42Z</time>
      </trkpt>
      <trkpt lat="45.48127" lon="5.55871">
        <ele>608</ele>
        <time>2012-06-14T13:16:47Z</time>
      </trkpt>
      <trkpt lat="45.48127" lon="5.55872">
        <ele>608</ele>
        <time>2012-06-14T13:16:52Z</time>
      </trkpt>
      <trkpt lat="45.48127" lon="5.55872">
        <ele>607</ele>
        <time>2012-06-14T13:16:57Z</time>
      </trkpt>
      <trkpt lat="45.48126" lon="5.55879">
        <ele>607</ele>
        <time>2012-06-14T13:17:02Z</time>
      </trkpt>
      <trkpt lat="45.48123" lon="5.55885">
        <ele>607</ele>
        <time>2012-06-14T13:17:08Z</time>
      </trkpt>
      <trkpt lat="45.48122" lon="5.55893">
        <ele>608</ele>
        <time>2012-06-14T13:17:13Z</time>
      </trkpt>
      <trkpt lat="45.48121" lon="5.559">
        <ele>608</ele>
        <time>2012-06-14T13:17:18Z</time>
      </trkpt>
      <trkpt lat="45.48121" lon="5.55906">
        <ele>608</ele>
        <time>2012-06-14T13:17:23Z</time>
      </trkpt>
      <trkpt lat="45.48122" lon="5.55913">
        <ele>608</ele>
        <time>2012-06-14T13:17:28Z</time>
      </trkpt>
      <trkpt lat="45.48123" lon="5.5592">
        <ele>609</ele>
        <time>2012-06-14T13:17:33Z</time>
      </trkpt>
      <trkpt lat="45.48123" lon="5.55927">
        <ele>609</ele>
        <time>2012-06-14T13:17:38Z</time>
      </trkpt>
      <trkpt lat="45.48121" lon="5.55934">
        <ele>609</ele>
        <time>2012-06-14T13:17:43Z</time>
      </trkpt>
      <trkpt lat="45.48117" lon="5.55937">
        <ele>609</ele>
        <time>2012-06-14T13:17:48Z</time>
      </trkpt>
      <trkpt lat="45.48113" lon="5.55934">
        <ele>609</ele>
        <time>2012-06-14T13:17:53Z</time>
      </trkpt>
      <trkpt lat="45.4811" lon="5.55932">
        <ele>610</ele>
        <time>2012-06-14T13:17:58Z</time>
      </trkpt>
      <trkpt lat="45.48107" lon="5.55933">
        <ele>610</ele>
        <time>2012-06-14T13:18:03Z</time>
      </trkpt>
      <trkpt lat="45.48103" lon="5.55933">
        <ele>611</ele>
        <time>2012-06-14T13:18:08Z</time>
      </trkpt>
      <trkpt lat="45.48099" lon="5.55932">
        <ele>612</ele>
        <time>2012-06-14T13:18:13Z</time>
      </trkpt>
      <trkpt lat="45.48095" lon="5.55929">
        <ele>613</ele>
        <time>2012-06-14T13:18:18Z</time>
      </trkpt>
      <trkpt lat="45.48093" lon="5.55927">
        <ele>613</ele>
        <time>2012-06-14T13:18:24Z</time>
      </trkpt>
      <trkpt lat="45.48092" lon="5.55927">
        <ele>613</ele>
        <time>2012-06-14T13:18:29Z</time>
      </trkpt>
      <trkpt lat="45.48091" lon="5.55926">
        <ele>613</ele>
        <time>2012-06-14T13:18:34Z</time>
      </trkpt>
      <trkpt lat="45.4809" lon="5.55925">
        <ele>613</ele>
        <time>2012-06-14T13:18:39Z</time>
      </trkpt>
      <trkpt lat="45.48089" lon="5.55922">
        <ele>614</ele>
        <time>2012-06-14T13:18:44Z</time>
      </trkpt>
      <trkpt lat="45.48088" lon="5.55921">
        <ele>614</ele>
        <time>2012-06-14T13:18:49Z</time>
      </trkpt>
      <trkpt lat="45.48088" lon="5.5592">
        <ele>614</ele>
        <time>2012-06-14T13:18:54Z</time>
      </trkpt>
      <trkpt lat="45.48087" lon="5.5592">
        <ele>614</ele>
        <time>2012-06-14T13:18:59Z</time>
      </trkpt>
      <trkpt lat="45.48087" lon="5.5592">
        <ele>614</ele>
        <time>2012-06-14T13:19:04Z</time>
      </trkpt>
      <trkpt lat="45.48087" lon="5.5592">
        <ele>614</ele>
        <time>2012-06-14T13:19:09Z</time>
      </trkpt>
      <trkpt lat="45.48087" lon="5.55919">
        <ele>614</ele>
        <time>2012-06-14T13:19:14Z</time>
      </trkpt>
      <trkpt lat="45.48087" lon="5.55919">
        <ele>614</ele>
        <time>2012-06-14T13:19:19Z</time>
      </trkpt>
      <trkpt lat="45.48087" lon="5.55919">
        <ele>614</ele>
        <time>2012-06-14T13:19:24Z</time>
      </trkpt>
      <trkpt lat="45.48088" lon="5.55919">
        <ele>614</ele>
        <time>2012-06-14T13:19:29Z</time>
      </trkpt>
      <trkpt lat="45.48088" lon="5.55919">
        <ele>614</ele>
        <time>2012-06-14T13:19:34Z</time>
      </trkpt>
      <trkpt lat="45.48088" lon="5.55919">
        <ele>614</ele>
        <time>2012-06-14T13:19:40Z</time>
      </trkpt>
      <trkpt lat="45.48088" lon="5.55918">
        <ele>614</ele>
        <time>2012-06-14T13:19:45Z</time>
      </trkpt>
      <trkpt lat="45.48088" lon="5.55918">
        <ele>614</ele>
        <time>2012-06-14T13:19:50Z</time>
      </trkpt>
      <trkpt lat="45.48088" lon="5.55918">
        <ele>614</ele>
        <time>2012-06-14T13:19:55Z</time>
      </trkpt>
      <trkpt lat="45.48088" lon="5.55918">
        <ele>614</ele>
        <time>2012-06-14T13:20:00Z</time>
      </trkpt>
      <trkpt lat="45.4809" lon="5.55917">
        <ele>614</ele>
        <time>2012-06-14T13:20:05Z</time>
      </trkpt>
      <trkpt lat="45.4809" lon="5.55917">
        <ele>614</ele>
        <time>2012-06-14T13:20:10Z</time>
      </trkpt>
      <trkpt lat="45.4809" lon="5.55917">
        <ele>614</ele>
        <time>2012-06-14T13:20:15Z</time>
      </trkpt>
      <trkpt lat="45.48091" lon="5.55919">
        <ele>614</ele>
        <time>2012-06-14T13:20:20Z</time>
      </trkpt>
      <trkpt lat="45.48093" lon="5.55924">
        <ele>613</ele>
        <time>2012-06-14T13:20:25Z</time>
      </trkpt>
      <trkpt lat="45.48095" lon="5.55928">
        <ele>613</ele>
        <time>2012-06-14T13:20:30Z</time>
      </trkpt>
      <trkpt lat="45.481" lon="5.55928">
        <ele>612</ele>
        <time>2012-06-14T13:20:35Z</time>
      </trkpt>
      <trkpt lat="45.48104" lon="5.55928">
        <ele>611</ele>
        <time>2012-06-14T13:20:40Z</time>
      </trkpt>
      <trkpt lat="45.48108" lon="5.5593">
        <ele>610</ele>
        <time>2012-06-14T13:20:45Z</time>
      </trkpt>
      <trkpt lat="45.48113" lon="5.55933">
        <ele>610</ele>
        <time>2012-06-14T13:20:50Z</time>
      </trkpt>
      <trkpt lat="45.48118" lon="5.5593">
        <ele>610</ele>
        <time>2012-06-14T13:20:55Z</time>
      </trkpt>
      <trkpt lat="45.48121" lon="5.55925">
        <ele>609</ele>
        <time>2012-06-14T13:21:01Z</time>
      </trkpt>
      <trkpt lat="45.48122" lon="5.55917">
        <ele>609</ele>
        <time>2012-06-14T13:21:06Z</time>
      </trkpt>
      <trkpt lat="45.48122" lon="5.55909">
        <ele>609</ele>
        <time>2012-06-14T13:21:11Z</time>
      </trkpt>
      <trkpt lat="45.48122" lon="5.55903">
        <ele>609</ele>
        <time>2012-06-14T13:21:16Z</time>
      </trkpt>
      <trkpt lat="45.48122" lon="5.55896">
        <ele>609</ele>
        <time>2012-06-14T13:21:21Z</time>
      </trkpt>
      <trkpt lat="45.48122" lon="5.5589">
        <ele>609</ele>
        <time>2012-06-14T13:21:26Z</time>
      </trkpt>
      <trkpt lat="45.48122" lon="5.55886">
        <ele>608</ele>
        <time>2012-06-14T13:21:31Z</time>
      </trkpt>
      <trkpt lat="45.48122" lon="5.55885">
        <ele>609</ele>
        <time>2012-06-14T13:21:36Z</time>
      </trkpt>
      <trkpt lat="45.48122" lon="5.55885">
        <ele>609</ele>
        <time>2012-06-14T13:21:41Z</time>
      </trkpt>
      <trkpt lat="45.48122" lon="5.55885">
        <ele>609</ele>
        <time>2012-06-14T13:21:46Z</time>
      </trkpt>
      <trkpt lat="45.48123" lon="5.55885">
        <ele>608</ele>
        <time>2012-06-14T13:21:51Z</time>
      </trkpt>
      <trkpt lat="45.48124" lon="5.55884">
        <ele>608</ele>
        <time>2012-06-14T13:21:56Z</time>
      </trkpt>
      <trkpt lat="45.48124" lon="5.55884">
        <ele>608</ele>
        <time>2012-06-14T13:22:01Z</time>
      </trkpt>
      <trkpt lat="45.48124" lon="5.55884">
        <ele>608</ele>
        <time>2012-06-14T13:22:07Z</time>
      </trkpt>
      <trkpt lat="45.48124" lon="5.55884">
        <ele>608</ele>
        <time>2012-06-14T13:22:12Z</time>
      </trkpt>
      <trkpt lat="45.48124" lon="5.55884">
        <ele>608</ele>
        <time>2012-06-14T13:22:17Z</time>
      </trkpt>
      <trkpt lat="45.48126" lon="5.55883">
        <ele>608</ele>
        <time>2012-06-14T13:22:22Z</time>
      </trkpt>
      <trkpt lat="45.4813" lon="5.55878">
        <ele>608</ele>
        <time>2012-06-14T13:22:27Z</time>
      </trkpt>
      <trkpt lat="45.48135" lon="5.55878">
        <ele>608</ele>
        <time>2012-06-14T13:22:32Z</time>
      </trkpt>
      <trkpt lat="45.48138" lon="5.55879">
        <ele>608</ele>
        <time>2012-06-14T13:22:37Z</time>
      </trkpt>
      <trkpt lat="45.48139" lon="5.5588">
        <ele>608</ele>
        <time>2012-06-14T13:22:42Z</time>
      </trkpt>
      <trkpt lat="45.48139" lon="5.5588">
        <ele>608</ele>
        <time>2012-06-14T13:22:47Z</time>
      </trkpt>
      <trkpt lat="45.48136" lon="5.5588">
        <ele>608</ele>
        <time>2012-06-14T13:22:52Z</time>
      </trkpt>
      <trkpt lat="45.48134" lon="5.5588">
        <ele>608</ele>
        <time>2012-06-14T13:22:57Z</time>
      </trkpt>
      <trkpt lat="45.48134" lon="5.5588">
        <ele>608</ele>
        <time>2012-06-14T13:23:02Z</time>
      </trkpt>
      <trkpt lat="45.48134" lon="5.55881">
        <ele>608</ele>
        <time>2012-06-14T13:23:08Z</time>
      </trkpt>
      <trkpt lat="45.48134" lon="5.55881">
        <ele>608</ele>
        <time>2012-06-14T13:23:13Z</time>
      </trkpt>
      <trkpt lat="45.48134" lon="5.55881">
        <ele>608</ele>
        <time>2012-06-14T13:23:18Z</time>
      </trkpt>
      <trkpt lat="45.48134" lon="5.55882">
        <ele>608</ele>
        <time>2012-06-14T13:23:23Z</time>
      </trkpt>
      <trkpt lat="45.48134" lon="5.55882">
        <ele>608</ele>
        <time>2012-06-14T13:23:28Z</time>
      </trkpt>
      <trkpt lat="45.48134" lon="5.55882">
        <ele>608</ele>
        <time>2012-06-14T13:23:33Z</time>
      </trkpt>
      <trkpt lat="45.48134" lon="5.55882">
        <ele>609</ele>
        <time>2012-06-14T13:23:38Z</time>
      </trkpt>
      <trkpt lat="45.48134" lon="5.55882">
        <ele>609</ele>
        <time>2012-06-14T13:23:43Z</time>
      </trkpt>
      <trkpt lat="45.48135" lon="5.55881">
        <ele>609</ele>
        <time>2012-06-14T13:23:48Z</time>
      </trkpt>
      <trkpt lat="45.48134" lon="5.55882">
        <ele>609</ele>
        <time>2012-06-14T13:23:53Z</time>
      </trkpt>
      <trkpt lat="45.48134" lon="5.55881">
        <ele>608</ele>
        <time>2012-06-14T13:23:58Z</time>
      </trkpt>
      <trkpt lat="45.48135" lon="5.55881">
        <ele>608</ele>
        <time>2012-06-14T13:24:03Z</time>
      </trkpt>
      <trkpt lat="45.48135" lon="5.55881">
        <ele>608</ele>
        <time>2012-06-14T13:24:08Z</time>
      </trkpt>
      <trkpt lat="45.48135" lon="5.55881">
        <ele>608</ele>
        <time>2012-06-14T13:24:13Z</time>
      </trkpt>
      <trkpt lat="45.48135" lon="5.55881">
        <ele>608</ele>
        <time>2012-06-14T13:24:18Z</time>
      </trkpt>
      <trkpt lat="45.48135" lon="5.55881">
        <ele>608</ele>
        <time>2012-06-14T13:24:23Z</time>
      </trkpt>
      <trkpt lat="45.48139" lon="5.55885">
        <ele>608</ele>
        <time>2012-06-14T13:24:29Z</time>
      </trkpt>
      <trkpt lat="45.48143" lon="5.55891">
        <ele>608</ele>
        <time>2012-06-14T13:24:34Z</time>
      </trkpt>
      <trkpt lat="45.48147" lon="5.55896">
        <ele>608</ele>
        <time>2012-06-14T13:24:39Z</time>
      </trkpt>
      <trkpt lat="45.48151" lon="5.559">
        <ele>608</ele>
        <time>2012-06-14T13:24:44Z</time>
      </trkpt>
      <trkpt lat="45.48156" lon="5.55904">
        <ele>608</ele>
        <time>2012-06-14T13:24:49Z</time>
      </trkpt>
      <trkpt lat="45.4816" lon="5.55908">
        <ele>608</ele>
        <time>2012-06-14T13:24:54Z</time>
      </trkpt>
      <trkpt lat="45.48166" lon="5.55911">
        <ele>608</ele>
        <time>2012-06-14T13:24:59Z</time>
      </trkpt>
      <trkpt lat="45.48171" lon="5.55913">
        <ele>609</ele>
        <time>2012-06-14T13:25:04Z</time>
      </trkpt>
      <trkpt lat="45.48176" lon="5.55914">
        <ele>609</ele>
        <time>2012-06-14T13:25:09Z</time>
      </trkpt>
      <trkpt lat="45.48181" lon="5.55915">
        <ele>609</ele>
        <time>2012-06-14T13:25:14Z</time>
      </trkpt>
      <trkpt lat="45.48186" lon="5.55916">
        <ele>609</ele>
        <time>2012-06-14T13:25:19Z</time>
      </trkpt>
      <trkpt lat="45.48191" lon="5.55916">
        <ele>609</ele>
        <time>2012-06-14T13:25:24Z</time>
      </trkpt>
      <trkpt lat="45.48196" lon="5.55916">
        <ele>609</ele>
        <time>2012-06-14T13:25:29Z</time>
      </trkpt>
      <trkpt lat="45.48201" lon="5.55917">
        <ele>610</ele>
        <time>2012-06-14T13:25:35Z</time>
      </trkpt>
      <trkpt lat="45.48207" lon="5.55917">
        <ele>610</ele>
        <time>2012-06-14T13:25:40Z</time>
      </trkpt>
      <trkpt lat="45.48211" lon="5.55916">
        <ele>611</ele>
        <time>2012-06-14T13:25:45Z</time>
      </trkpt>
      <trkpt lat="45.48216" lon="5.55915">
        <ele>611</ele>
        <time>2012-06-14T13:25:50Z</time>
      </trkpt>
      <trkpt lat="45.48218" lon="5.55914">
        <ele>612</ele>
        <time>2012-06-14T13:25:55Z</time>
      </trkpt>
      <trkpt lat="45.48218" lon="5.55914">
        <ele>612</ele>
        <time>2012-06-14T13:26:00Z</time>
      </trkpt>
      <trkpt lat="45.48221" lon="5.55915">
        <ele>612</ele>
        <time>2012-06-14T13:26:05Z</time>
      </trkpt>
      <trkpt lat="45.48226" lon="5.55915">
        <ele>612</ele>
        <time>2012-06-14T13:26:10Z</time>
      </trkpt>
      <trkpt lat="45.48227" lon="5.55915">
        <ele>612</ele>
        <time>2012-06-14T13:26:15Z</time>
      </trkpt>
      <trkpt lat="45.48227" lon="5.55915">
        <ele>612</ele>
        <time>2012-06-14T13:26:20Z</time>
      </trkpt>
      <trkpt lat="45.48227" lon="5.55915">
        <ele>612</ele>
        <time>2012-06-14T13:26:25Z</time>
      </trkpt>
      <trkpt lat="45.48227" lon="5.55915">
        <ele>613</ele>
        <time>2012-06-14T13:26:30Z</time>
      </trkpt>
      <trkpt lat="45.48226" lon="5.55915">
        <ele>613</ele>
        <time>2012-06-14T13:26:35Z</time>
      </trkpt>
      <trkpt lat="45.48226" lon="5.55915">
        <ele>612</ele>
        <time>2012-06-14T13:26:40Z</time>
      </trkpt>
      <trkpt lat="45.48226" lon="5.55915">
        <ele>612</ele>
        <time>2012-06-14T13:26:45Z</time>
      </trkpt>
      <trkpt lat="45.48226" lon="5.55916">
        <ele>612</ele>
        <time>2012-06-14T13:26:50Z</time>
      </trkpt>
      <trkpt lat="45.48226" lon="5.55916">
        <ele>612</ele>
        <time>2012-06-14T13:26:55Z</time>
      </trkpt>
      <trkpt lat="45.48226" lon="5.55915">
        <ele>612</ele>
        <time>2012-06-14T13:27:01Z</time>
      </trkpt>
      <trkpt lat="45.48231" lon="5.55914">
        <ele>612</ele>
        <time>2012-06-14T13:27:06Z</time>
      </trkpt>
      <trkpt lat="45.4823" lon="5.55914">
        <ele>612</ele>
        <time>2012-06-14T13:27:11Z</time>
      </trkpt>
      <trkpt lat="45.4823" lon="5.55914">
        <ele>612</ele>
        <time>2012-06-14T13:27:16Z</time>
      </trkpt>
      <trkpt lat="45.48231" lon="5.55915">
        <ele>612</ele>
        <time>2012-06-14T13:27:21Z</time>
      </trkpt>
      <trkpt lat="45.48231" lon="5.55915">
        <ele>613</ele>
        <time>2012-06-14T13:27:26Z</time>
      </trkpt>
      <trkpt lat="45.48231" lon="5.55915">
        <ele>613</ele>
        <time>2012-06-14T13:27:31Z</time>
      </trkpt>
      <trkpt lat="45.48228" lon="5.55918">
        <ele>613</ele>
        <time>2012-06-14T13:27:36Z</time>
      </trkpt>
      <trkpt lat="45.48228" lon="5.55917">
        <ele>612</ele>
        <time>2012-06-14T13:27:41Z</time>
      </trkpt>
      <trkpt lat="45.4823" lon="5.55915">
        <ele>612</ele>
        <time>2012-06-14T13:27:46Z</time>
      </trkpt>
      <trkpt lat="45.48234" lon="5.55912">
        <ele>613</ele>
        <time>2012-06-14T13:27:51Z</time>
      </trkpt>
      <trkpt lat="45.48234" lon="5.55912">
        <ele>613</ele>
        <time>2012-06-14T13:27:56Z</time>
      </trkpt>
      <trkpt lat="45.48234" lon="5.55912">
        <ele>612</ele>
        <time>2012-06-14T13:28:02Z</time>
      </trkpt>
      <trkpt lat="45.48235" lon="5.55912">
        <ele>613</ele>
        <time>2012-06-14T13:28:07Z</time>
      </trkpt>
      <trkpt lat="45.48235" lon="5.55911">
        <ele>613</ele>
        <time>2012-06-14T13:28:12Z</time>
      </trkpt>
      <trkpt lat="45.48235" lon="5.55911">
        <ele>613</ele>
        <time>2012-06-14T13:28:17Z</time>
      </trkpt>
      <trkpt lat="45.48235" lon="5.55911">
        <ele>613</ele>
        <time>2012-06-14T13:28:22Z</time>
      </trkpt>
      <trkpt lat="45.48235" lon="5.55911">
        <ele>613</ele>
        <time>2012-06-14T13:28:27Z</time>
      </trkpt>
      <trkpt lat="45.48239" lon="5.55911">
        <ele>613</ele>
        <time>2012-06-14T13:28:32Z</time>
      </trkpt>
      <trkpt lat="45.48244" lon="5.5591">
        <ele>612</ele>
        <time>2012-06-14T13:28:37Z</time>
      </trkpt>
      <trkpt lat="45.48249" lon="5.5591">
        <ele>613</ele>
        <time>2012-06-14T13:28:42Z</time>
      </trkpt>
      <trkpt lat="45.48254" lon="5.55908">
        <ele>613</ele>
        <time>2012-06-14T13:28:47Z</time>
      </trkpt>
      <trkpt lat="45.48259" lon="5.55908">
        <ele>613</ele>
        <time>2012-06-14T13:28:52Z</time>
      </trkpt>
      <trkpt lat="45.48264" lon="5.55906">
        <ele>613</ele>
        <time>2012-06-14T13:28:57Z</time>
      </trkpt>
      <trkpt lat="45.4827" lon="5.55905">
        <ele>614</ele>
        <time>2012-06-14T13:29:02Z</time>
      </trkpt>
      <trkpt lat="45.48277" lon="5.55905">
        <ele>614</ele>
        <time>2012-06-14T13:29:08Z</time>
      </trkpt>
      <trkpt lat="45.48283" lon="5.55905">
        <ele>614</ele>
        <time>2012-06-14T13:29:13Z</time>
      </trkpt>
      <trkpt lat="45.48289" lon="5.55905">
        <ele>614</ele>
        <time>2012-06-14T13:29:18Z</time>
      </trkpt>
      <trkpt lat="45.48294" lon="5.55904">
        <ele>615</ele>
        <time>2012-06-14T13:29:23Z</time>
      </trkpt>
      <trkpt lat="45.483" lon="5.55902">
        <ele>615</ele>
        <time>2012-06-14T13:29:28Z</time>
      </trkpt>
      <trkpt lat="45.48306" lon="5.55901">
        <ele>615</ele>
        <time>2012-06-14T13:29:33Z</time>
      </trkpt>
      <trkpt lat="45.48311" lon="5.55899">
        <ele>616</ele>
        <time>2012-06-14T13:29:38Z</time>
      </trkpt>
      <trkpt lat="45.48317" lon="5.55896">
        <ele>617</ele>
        <time>2012-06-14T13:29:43Z</time>
      </trkpt>
      <trkpt lat="45.48323" lon="5.55895">
        <ele>617</ele>
        <time>2012-06-14T13:29:48Z</time>
      </trkpt>
      <trkpt lat="45.48328" lon="5.55892">
        <ele>618</ele>
        <time>2012-06-14T13:29:53Z</time>
      </trkpt>
      <trkpt lat="45.48333" lon="5.55887">
        <ele>618</ele>
        <time>2012-06-14T13:29:58Z</time>
      </trkpt>
      <trkpt lat="45.48338" lon="5.55882">
        <ele>619</ele>
        <time>2012-06-14T13:30:03Z</time>
      </trkpt>
      <trkpt lat="45.48343" lon="5.55876">
        <ele>619</ele>
        <time>2012-06-14T13:30:09Z</time>
      </trkpt>
      <trkpt lat="45.48343" lon="5.55876">
        <ele>620</ele>
        <time>2012-06-14T13:30:14Z</time>
      </trkpt>
      <trkpt lat="45.48346" lon="5.5587">
        <ele>621</ele>
        <time>2012-06-14T13:30:19Z</time>
      </trkpt>
      <trkpt lat="45.48351" lon="5.55865">
        <ele>621</ele>
        <time>2012-06-14T13:30:24Z</time>
      </trkpt>
      <trkpt lat="45.48354" lon="5.5586">
        <ele>621</ele>
        <time>2012-06-14T13:30:29Z</time>
      </trkpt>
      <trkpt lat="45.48358" lon="5.55854">
        <ele>621</ele>
        <time>2012-06-14T13:30:34Z</time>
      </trkpt>
      <trkpt lat="45.48362" lon="5.55849">
        <ele>621</ele>
        <time>2012-06-14T13:30:39Z</time>
      </trkpt>
      <trkpt lat="45.48367" lon="5.55843">
        <ele>621</ele>
        <time>2012-06-14T13:30:44Z</time>
      </trkpt>
      <trkpt lat="45.4837" lon="5.55837">
        <ele>621</ele>
        <time>2012-06-14T13:30:49Z</time>
      </trkpt>
      <trkpt lat="45.48374" lon="5.55831">
        <ele>621</ele>
        <time>2012-06-14T13:30:54Z</time>
      </trkpt>
      <trkpt lat="45.48378" lon="5.55826">
        <ele>621</ele>
        <time>2012-06-14T13:30:59Z</time>
      </trkpt>
      <trkpt lat="45.48382" lon="5.55821">
        <ele>622</ele>
        <time>2012-06-14T13:31:04Z</time>
      </trkpt>
      <trkpt lat="45.48384" lon="5.55818">
        <ele>623</ele>
        <time>2012-06-14T13:31:09Z</time>
      </trkpt>
      <trkpt lat="45.48385" lon="5.55818">
        <ele>623</ele>
        <time>2012-06-14T13:31:14Z</time>
      </trkpt>
      <trkpt lat="45.48385" lon="5.55818">
        <ele>623</ele>
        <time>2012-06-14T13:31:19Z</time>
      </trkpt>
      <trkpt lat="45.48385" lon="5.55819">
        <ele>623</ele>
        <time>2012-06-14T13:31:25Z</time>
      </trkpt>
      <trkpt lat="45.48385" lon="5.55819">
        <ele>624</ele>
        <time>2012-06-14T13:31:30Z</time>
      </trkpt>
      <trkpt lat="45.48385" lon="5.55819">
        <ele>624</ele>
        <time>2012-06-14T13:31:35Z</time>
      </trkpt>
      <trkpt lat="45.48385" lon="5.55817">
        <ele>624</ele>
        <time>2012-06-14T13:31:40Z</time>
      </trkpt>
      <trkpt lat="45.48386" lon="5.55812">
        <ele>623</ele>
        <time>2012-06-14T13:31:45Z</time>
      </trkpt>
      <trkpt lat="45.48387" lon="5.55805">
        <ele>623</ele>
        <time>2012-06-14T13:31:50Z</time>
      </trkpt>
      <trkpt lat="45.48388" lon="5.55802">
        <ele>623</ele>
        <time>2012-06-14T13:31:55Z</time>
      </trkpt>
      <trkpt lat="45.48389" lon="5.55798">
        <ele>623</ele>
        <time>2012-06-14T13:32:00Z</time>
      </trkpt>
      <trkpt lat="45.48391" lon="5.55791">
        <ele>622</ele>
        <time>2012-06-14T13:32:05Z</time>
      </trkpt>
      <trkpt lat="45.48392" lon="5.55784">
        <ele>622</ele>
        <time>2012-06-14T13:32:10Z</time>
      </trkpt>
      <trkpt lat="45.48394" lon="5.55777">
        <ele>622</ele>
        <time>2012-06-14T13:32:15Z</time>
      </trkpt>
      <trkpt lat="45.48396" lon="5.55769">
        <ele>622</ele>
        <time>2012-06-14T13:32:20Z</time>
      </trkpt>
      <trkpt lat="45.48398" lon="5.55762">
        <ele>621</ele>
        <time>2012-06-14T13:32:25Z</time>
      </trkpt>
      <trkpt lat="45.48399" lon="5.55755">
        <ele>621</ele>
        <time>2012-06-14T13:32:30Z</time>
      </trkpt>
      <trkpt lat="45.48401" lon="5.55747">
        <ele>622</ele>
        <time>2012-06-14T13:32:35Z</time>
      </trkpt>
      <trkpt lat="45.48402" lon="5.55739">
        <ele>622</ele>
        <time>2012-06-14T13:32:40Z</time>
      </trkpt>
      <trkpt lat="45.48402" lon="5.55732">
        <ele>622</ele>
        <time>2012-06-14T13:32:45Z</time>
      </trkpt>
      <trkpt lat="45.48403" lon="5.55724">
        <ele>621</ele>
        <time>2012-06-14T13:32:50Z</time>
      </trkpt>
      <trkpt lat="45.48404" lon="5.55717">
        <ele>621</ele>
        <time>2012-06-14T13:32:55Z</time>
      </trkpt>
      <trkpt lat="45.48407" lon="5.55708">
        <ele>620</ele>
        <time>2012-06-14T13:33:01Z</time>
      </trkpt>
      <trkpt lat="45.48409" lon="5.55701">
        <ele>620</ele>
        <time>2012-06-14T13:33:06Z</time>
      </trkpt>
      <trkpt lat="45.48411" lon="5.55693">
        <ele>620</ele>
        <time>2012-06-14T13:33:11Z</time>
      </trkpt>
      <trkpt lat="45.48413" lon="5.55687">
        <ele>620</ele>
        <time>2012-06-14T13:33:16Z</time>
      </trkpt>
      <trkpt lat="45.48416" lon="5.5568">
        <ele>620</ele>
        <time>2012-06-14T13:33:21Z</time>
      </trkpt>
      <trkpt lat="45.48419" lon="5.55673">
        <ele>620</ele>
        <time>2012-06-14T13:33:26Z</time>
      </trkpt>
      <trkpt lat="45.48423" lon="5.55666">
        <ele>620</ele>
        <time>2012-06-14T13:33:31Z</time>
      </trkpt>
      <trkpt lat="45.48426" lon="5.5566">
        <ele>620</ele>
        <time>2012-06-14T13:33:36Z</time>
      </trkpt>
      <trkpt lat="45.48429" lon="5.55653">
        <ele>620</ele>
        <time>2012-06-14T13:33:41Z</time>
      </trkpt>
      <trkpt lat="45.48432" lon="5.55646">
        <ele>620</ele>
        <time>2012-06-14T13:33:46Z</time>
      </trkpt>
      <trkpt lat="45.48436" lon="5.5564">
        <ele>620</ele>
        <time>2012-06-14T13:33:51Z</time>
      </trkpt>
      <trkpt lat="45.48439" lon="5.55633">
        <ele>620</ele>
        <time>2012-06-14T13:33:56Z</time>
      </trkpt>
      <trkpt lat="45.48442" lon="5.55625">
        <ele>619</ele>
        <time>2012-06-14T13:34:02Z</time>
      </trkpt>
      <trkpt lat="45.48445" lon="5.55619">
        <ele>619</ele>
        <time>2012-06-14T13:34:07Z</time>
      </trkpt>
      <trkpt lat="45.48447" lon="5.55613">
        <ele>619</ele>
        <time>2012-06-14T13:34:12Z</time>
      </trkpt>
      <trkpt lat="45.4845" lon="5.55607">
        <ele>620</ele>
        <time>2012-06-14T13:34:17Z</time>
      </trkpt>
      <trkpt lat="45.48452" lon="5.55601">
        <ele>620</ele>
        <time>2012-06-14T13:34:22Z</time>
      </trkpt>
      <trkpt lat="45.48453" lon="5.55599">
        <ele>620</ele>
        <time>2012-06-14T13:34:27Z</time>
      </trkpt>
      <trkpt lat="45.48454" lon="5.55594">
        <ele>620</ele>
        <time>2012-06-14T13:34:32Z</time>
      </trkpt>
      <trkpt lat="45.48457" lon="5.55588">
        <ele>619</ele>
        <time>2012-06-14T13:34:37Z</time>
      </trkpt>
      <trkpt lat="45.48458" lon="5.55581">
        <ele>619</ele>
        <time>2012-06-14T13:34:42Z</time>
      </trkpt>
      <trkpt lat="45.48461" lon="5.55575">
        <ele>619</ele>
        <time>2012-06-14T13:34:47Z</time>
      </trkpt>
      <trkpt lat="45.48462" lon="5.55568">
        <ele>619</ele>
        <time>2012-06-14T13:34:52Z</time>
      </trkpt>
      <trkpt lat="45.48463" lon="5.55562">
        <ele>619</ele>
        <time>2012-06-14T13:34:57Z</time>
      </trkpt>
      <trkpt lat="45.48466" lon="5.55555">
        <ele>618</ele>
        <time>2012-06-14T13:35:02Z</time>
      </trkpt>
      <trkpt lat="45.48468" lon="5.55549">
        <ele>617</ele>
        <time>2012-06-14T13:35:07Z</time>
      </trkpt>
      <trkpt lat="45.48471" lon="5.55542">
        <ele>616</ele>
        <time>2012-06-14T13:35:12Z</time>
      </trkpt>
      <trkpt lat="45.48474" lon="5.55534">
        <ele>616</ele>
        <time>2012-06-14T13:35:18Z</time>
      </trkpt>
      <trkpt lat="45.48476" lon="5.55526">
        <ele>616</ele>
        <time>2012-06-14T13:35:23Z</time>
      </trkpt>
      <trkpt lat="45.48479" lon="5.55519">
        <ele>616</ele>
        <time>2012-06-14T13:35:28Z</time>
      </trkpt>
      <trkpt lat="45.48481" lon="5.55512">
        <ele>616</ele>
        <time>2012-06-14T13:35:33Z</time>
      </trkpt>
      <trkpt lat="45.48483" lon="5.55503">
        <ele>616</ele>
        <time>2012-06-14T13:35:38Z</time>
      </trkpt>
      <trkpt lat="45.48485" lon="5.55495">
        <ele>617</ele>
        <time>2012-06-14T13:35:43Z</time>
      </trkpt>
      <trkpt lat="45.48487" lon="5.55487">
        <ele>617</ele>
        <time>2012-06-14T13:35:48Z</time>
      </trkpt>
      <trkpt lat="45.48489" lon="5.5548">
        <ele>617</ele>
        <time>2012-06-14T13:35:53Z</time>
      </trkpt>
      <trkpt lat="45.48491" lon="5.55473">
        <ele>617</ele>
        <time>2012-06-14T13:35:58Z</time>
      </trkpt>
      <trkpt lat="45.48493" lon="5.55465">
        <ele>617</ele>
        <time>2012-06-14T13:36:03Z</time>
      </trkpt>
      <trkpt lat="45.48495" lon="5.55458">
        <ele>617</ele>
        <time>2012-06-14T13:36:08Z</time>
      </trkpt>
      <trkpt lat="45.48498" lon="5.55451">
        <ele>617</ele>
        <time>2012-06-14T13:36:13Z</time>
      </trkpt>
      <trkpt lat="45.48501" lon="5.55446">
        <ele>617</ele>
        <time>2012-06-14T13:36:18Z</time>
      </trkpt>
      <trkpt lat="45.48504" lon="5.5544">
        <ele>617</ele>
        <time>2012-06-14T13:36:23Z</time>
      </trkpt>
      <trkpt lat="45.48508" lon="5.55436">
        <ele>616</ele>
        <time>2012-06-14T13:36:28Z</time>
      </trkpt>
      <trkpt lat="45.48513" lon="5.55432">
        <ele>615</ele>
        <time>2012-06-14T13:36:33Z</time>
      </trkpt>
      <trkpt lat="45.48517" lon="5.55428">
        <ele>615</ele>
        <time>2012-06-14T13:36:38Z</time>
      </trkpt>
      <trkpt lat="45.48522" lon="5.55423">
        <ele>615</ele>
        <time>2012-06-14T13:36:43Z</time>
      </trkpt>
      <trkpt lat="45.48528" lon="5.55418">
        <ele>615</ele>
        <time>2012-06-14T13:36:49Z</time>
      </trkpt>
      <trkpt lat="45.48533" lon="5.55414">
        <ele>615</ele>
        <time>2012-06-14T13:36:54Z</time>
      </trkpt>
      <trkpt lat="45.48538" lon="5.55409">
        <ele>615</ele>
        <time>2012-06-14T13:36:59Z</time>
      </trkpt>
      <trkpt lat="45.48543" lon="5.55405">
        <ele>615</ele>
        <time>2012-06-14T13:37:04Z</time>
      </trkpt>
      <trkpt lat="45.48547" lon="5.55401">
        <ele>614</ele>
        <time>2012-06-14T13:37:09Z</time>
      </trkpt>
      <trkpt lat="45.48552" lon="5.55397">
        <ele>614</ele>
        <time>2012-06-14T13:37:14Z</time>
      </trkpt>
      <trkpt lat="45.48557" lon="5.55392">
        <ele>614</ele>
        <time>2012-06-14T13:37:19Z</time>
      </trkpt>
      <trkpt lat="45.48561" lon="5.55388">
        <ele>614</ele>
        <time>2012-06-14T13:37:24Z</time>
      </trkpt>
      <trkpt lat="45.48565" lon="5.55385">
        <ele>614</ele>
        <time>2012-06-14T13:37:29Z</time>
      </trkpt>
      <trkpt lat="45.48565" lon="5.55384">
        <ele>614</ele>
        <time>2012-06-14T13:37:34Z</time>
      </trkpt>
      <trkpt lat="45.48565" lon="5.55384">
        <ele>614</ele>
        <time>2012-06-14T13:37:39Z</time>
      </trkpt>
      <trkpt lat="45.48568" lon="5.55382">
        <ele>614</ele>
        <time>2012-06-14T13:37:44Z</time>
      </trkpt>
      <trkpt lat="45.48571" lon="5.5538">
        <ele>614</ele>
        <time>2012-06-14T13:37:49Z</time>
      </trkpt>
      <trkpt lat="45.48573" lon="5.55378">
        <ele>614</ele>
        <time>2012-06-14T13:37:54Z</time>
      </trkpt>
      <trkpt lat="45.48572" lon="5.55378">
        <ele>613</ele>
        <time>2012-06-14T13:37:59Z</time>
      </trkpt>
      <trkpt lat="45.48572" lon="5.55378">
        <ele>613</ele>
        <time>2012-06-14T13:38:04Z</time>
      </trkpt>
      <trkpt lat="45.48571" lon="5.55378">
        <ele>613</ele>
        <time>2012-06-14T13:38:09Z</time>
      </trkpt>
      <trkpt lat="45.4857" lon="5.55378">
        <ele>613</ele>
        <time>2012-06-14T13:38:14Z</time>
      </trkpt>
      <trkpt lat="45.48569" lon="5.55378">
        <ele>613</ele>
        <time>2012-06-14T13:38:20Z</time>
      </trkpt>
      <trkpt lat="45.48569" lon="5.55378">
        <ele>613</ele>
        <time>2012-06-14T13:38:25Z</time>
      </trkpt>
      <trkpt lat="45.48569" lon="5.55378">
        <ele>613</ele>
        <time>2012-06-14T13:38:30Z</time>
      </trkpt>
      <trkpt lat="45.48569" lon="5.55378">
        <ele>613</ele>
        <time>2012-06-14T13:38:35Z</time>
      </trkpt>
      <trkpt lat="45.48569" lon="5.55378">
        <ele>614</ele>
        <time>2012-06-14T13:38:40Z</time>
      </trkpt>
      <trkpt lat="45.48569" lon="5.55378">
        <ele>614</ele>
        <time>2012-06-14T13:38:45Z</time>
      </trkpt>
      <trkpt lat="45.48569" lon="5.55377">
        <ele>614</ele>
        <time>2012-06-14T13:38:50Z</time>
      </trkpt>
      <trkpt lat="45.48571" lon="5.55376">
        <ele>613</ele>
        <time>2012-06-14T13:38:55Z</time>
      </trkpt>
      <trkpt lat="45.48572" lon="5.55376">
        <ele>613</ele>
        <time>2012-06-14T13:39:00Z</time>
      </trkpt>
      <trkpt lat="45.48575" lon="5.55374">
        <ele>613</ele>
        <time>2012-06-14T13:39:05Z</time>
      </trkpt>
      <trkpt lat="45.48579" lon="5.55371">
        <ele>613</ele>
        <time>2012-06-14T13:39:10Z</time>
      </trkpt>
      <trkpt lat="45.48584" lon="5.55367">
        <ele>612</ele>
        <time>2012-06-14T13:39:15Z</time>
      </trkpt>
      <trkpt lat="45.48588" lon="5.55363">
        <ele>612</ele>
        <time>2012-06-14T13:39:20Z</time>
      </trkpt>
      <trkpt lat="45.48592" lon="5.5536">
        <ele>611</ele>
        <time>2012-06-14T13:39:25Z</time>
      </trkpt>
      <trkpt lat="45.48595" lon="5.55357">
        <ele>611</ele>
        <time>2012-06-14T13:39:30Z</time>
      </trkpt>
      <trkpt lat="45.48599" lon="5.55353">
        <ele>611</ele>
        <time>2012-06-14T13:39:35Z</time>
      </trkpt>
      <trkpt lat="45.48603" lon="5.55349">
        <ele>610</ele>
        <time>2012-06-14T13:39:40Z</time>
      </trkpt>
      <trkpt lat="45.48609" lon="5.55344">
        <ele>609</ele>
        <time>2012-06-14T13:39:46Z</time>
      </trkpt>
      <trkpt lat="45.48613" lon="5.5534">
        <ele>608</ele>
        <time>2012-06-14T13:39:51Z</time>
      </trkpt>
      <trkpt lat="45.48616" lon="5.55336">
        <ele>609</ele>
        <time>2012-06-14T13:39:56Z</time>
      </trkpt>
      <trkpt lat="45.48621" lon="5.55333">
        <ele>608</ele>
        <time>2012-06-14T13:40:01Z</time>
      </trkpt>
      <trkpt lat="45.48625" lon="5.55329">
        <ele>608</ele>
        <time>2012-06-14T13:40:06Z</time>
      </trkpt>
      <trkpt lat="45.4863" lon="5.55325">
        <ele>608</ele>
        <time>2012-06-14T13:40:11Z</time>
      </trkpt>
      <trkpt lat="45.48634" lon="5.55321">
        <ele>607</ele>
        <time>2012-06-14T13:40:16Z</time>
      </trkpt>
      <trkpt lat="45.48637" lon="5.55315">
        <ele>607</ele>
        <time>2012-06-14T13:40:21Z</time>
      </trkpt>
      <trkpt lat="45.48641" lon="5.5531">
        <ele>606</ele>
        <time>2012-06-14T13:40:26Z</time>
      </trkpt>
      <trkpt lat="45.48643" lon="5.55305">
        <ele>606</ele>
        <time>2012-06-14T13:40:31Z</time>
      </trkpt>
      <trkpt lat="45.48645" lon="5.553">
        <ele>606</ele>
        <time>2012-06-14T13:40:36Z</time>
      </trkpt>
      <trkpt lat="45.48648" lon="5.55296">
        <ele>605</ele>
        <time>2012-06-14T13:40:41Z</time>
      </trkpt>
      <trkpt lat="45.48651" lon="5.55291">
        <ele>606</ele>
        <time>2012-06-14T13:40:46Z</time>
      </trkpt>
      <trkpt lat="45.48654" lon="5.55285">
        <ele>606</ele>
        <time>2012-06-14T13:40:51Z</time>
      </trkpt>
      <trkpt lat="45.48657" lon="5.55278">
        <ele>606</ele>
        <time>2012-06-14T13:40:57Z</time>
      </trkpt>
      <trkpt lat="45.4866" lon="5.55273">
        <ele>606</ele>
        <time>2012-06-14T13:41:02Z</time>
      </trkpt>
      <trkpt lat="45.48661" lon="5.55267">
        <ele>606</ele>
        <time>2012-06-14T13:41:07Z</time>
      </trkpt>
      <trkpt lat="45.48663" lon="5.55262">
        <ele>606</ele>
        <time>2012-06-14T13:41:12Z</time>
      </trkpt>
      <trkpt lat="45.48665" lon="5.55256">
        <ele>606</ele>
        <time>2012-06-14T13:41:17Z</time>
      </trkpt>
      <trkpt lat="45.48667" lon="5.55251">
        <ele>606</ele>
        <time>2012-06-14T13:41:22Z</time>
      </trkpt>
      <trkpt lat="45.48669" lon="5.55245">
        <ele>606</ele>
        <time>2012-06-14T13:41:27Z</time>
      </trkpt>
      <trkpt lat="45.48671" lon="5.5524">
        <ele>605</ele>
        <time>2012-06-14T13:41:32Z</time>
      </trkpt>
      <trkpt lat="45.48674" lon="5.55236">
        <ele>606</ele>
        <time>2012-06-14T13:41:37Z</time>
      </trkpt>
      <trkpt lat="45.48676" lon="5.55234">
        <ele>605</ele>
        <time>2012-06-14T13:41:42Z</time>
      </trkpt>
      <trkpt lat="45.48679" lon="5.55232">
        <ele>604</ele>
        <time>2012-06-14T13:41:47Z</time>
      </trkpt>
      <trkpt lat="45.48683" lon="5.55228">
        <ele>604</ele>
        <time>2012-06-14T13:41:52Z</time>
      </trkpt>
      <trkpt lat="45.48686" lon="5.55226">
        <ele>603</ele>
        <time>2012-06-14T13:41:57Z</time>
      </trkpt>
      <trkpt lat="45.48689" lon="5.55223">
        <ele>603</ele>
        <time>2012-06-14T13:42:02Z</time>
      </trkpt>
      <trkpt lat="45.48691" lon="5.55221">
        <ele>603</ele>
        <time>2012-06-14T13:42:07Z</time>
      </trkpt>
      <trkpt lat="45.48693" lon="5.5522">
        <ele>603</ele>
        <time>2012-06-14T13:42:12Z</time>
      </trkpt>
      <trkpt lat="45.48695" lon="5.55219">
        <ele>603</ele>
        <time>2012-06-14T13:42:18Z</time>
      </trkpt>
      <trkpt lat="45.487" lon="5.55216">
        <ele>603</ele>
        <time>2012-06-14T13:42:23Z</time>
      </trkpt>
      <trkpt lat="45.48703" lon="5.55214">
        <ele>602</ele>
        <time>2012-06-14T13:42:28Z</time>
      </trkpt>
      <trkpt lat="45.48705" lon="5.55212">
        <ele>602</ele>
        <time>2012-06-14T13:42:33Z</time>
      </trkpt>
      <trkpt lat="45.48708" lon="5.55209">
        <ele>602</ele>
        <time>2012-06-14T13:42:38Z</time>
      </trkpt>
      <trkpt lat="45.48711" lon="5.55206">
        <ele>601</ele>
        <time>2012-06-14T13:42:43Z</time>
      </trkpt>
      <trkpt lat="45.48716" lon="5.55203">
        <ele>601</ele>
        <time>2012-06-14T13:42:48Z</time>
      </trkpt>
      <trkpt lat="45.48719" lon="5.552">
        <ele>601</ele>
        <time>2012-06-14T13:42:53Z</time>
      </trkpt>
      <trkpt lat="45.48722" lon="5.55196">
        <ele>600</ele>
        <time>2012-06-14T13:42:58Z</time>
      </trkpt>
      <trkpt lat="45.48726" lon="5.55192">
        <ele>600</ele>
        <time>2012-06-14T13:43:03Z</time>
      </trkpt>
      <trkpt lat="45.48729" lon="5.55187">
        <ele>600</ele>
        <time>2012-06-14T13:43:08Z</time>
      </trkpt>
      <trkpt lat="45.48732" lon="5.55181">
        <ele>599</ele>
        <time>2012-06-14T13:43:13Z</time>
      </trkpt>
      <trkpt lat="45.48734" lon="5.55176">
        <ele>599</ele>
        <time>2012-06-14T13:43:18Z</time>
      </trkpt>
      <trkpt lat="45.48739" lon="5.5517">
        <ele>599</ele>
        <time>2012-06-14T13:43:23Z</time>
      </trkpt>
      <trkpt lat="45.48744" lon="5.55166">
        <ele>598</ele>
        <time>2012-06-14T13:43:28Z</time>
      </trkpt>
      <trkpt lat="45.48747" lon="5.55164">
        <ele>597</ele>
        <time>2012-06-14T13:43:34Z</time>
      </trkpt>
      <trkpt lat="45.4875" lon="5.55164">
        <ele>597</ele>
        <time>2012-06-14T13:43:39Z</time>
      </trkpt>
      <trkpt lat="45.48753" lon="5.55162">
        <ele>597</ele>
        <time>2012-06-14T13:43:44Z</time>
      </trkpt>
      <trkpt lat="45.48755" lon="5.55158">
        <ele>597</ele>
        <time>2012-06-14T13:43:49Z</time>
      </trkpt>
      <trkpt lat="45.48757" lon="5.55156">
        <ele>597</ele>
        <time>2012-06-14T13:43:54Z</time>
      </trkpt>
      <trkpt lat="45.48761" lon="5.55154">
        <ele>596</ele>
        <time>2012-06-14T13:43:59Z</time>
      </trkpt>
      <trkpt lat="45.48765" lon="5.55152">
        <ele>596</ele>
        <time>2012-06-14T13:44:04Z</time>
      </trkpt>
      <trkpt lat="45.48769" lon="5.55146">
        <ele>595</ele>
        <time>2012-06-14T13:44:09Z</time>
      </trkpt>
      <trkpt lat="45.48772" lon="5.55141">
        <ele>595</ele>
        <time>2012-06-14T13:44:14Z</time>
      </trkpt>
      <trkpt lat="45.48776" lon="5.55137">
        <ele>595</ele>
        <time>2012-06-14T13:44:19Z</time>
      </trkpt>
      <trkpt lat="45.4878" lon="5.55134">
        <ele>594</ele>
        <time>2012-06-14T13:44:24Z</time>
      </trkpt>
      <trkpt lat="45.48785" lon="5.55132">
        <ele>595</ele>
        <time>2012-06-14T13:44:29Z</time>
      </trkpt>
      <trkpt lat="45.48789" lon="5.55129">
        <ele>594</ele>
        <time>2012-06-14T13:44:34Z</time>
      </trkpt>
      <trkpt lat="45.48794" lon="5.55124">
        <ele>594</ele>
        <time>2012-06-14T13:44:39Z</time>
      </trkpt>
      <trkpt lat="45.48798" lon="5.55119">
        <ele>595</ele>
        <time>2012-06-14T13:44:44Z</time>
      </trkpt>
      <trkpt lat="45.48801" lon="5.55114">
        <ele>595</ele>
        <time>2012-06-14T13:44:50Z</time>
      </trkpt>
      <trkpt lat="45.48803" lon="5.55111">
        <ele>595</ele>
        <time>2012-06-14T13:44:55Z</time>
      </trkpt>
      <trkpt lat="45.48805" lon="5.5511">
        <ele>595</ele>
        <time>2012-06-14T13:45:00Z</time>
      </trkpt>
      <trkpt lat="45.48806" lon="5.55109">
        <ele>595</ele>
        <time>2012-06-14T13:45:05Z</time>
      </trkpt>
      <trkpt lat="45.48807" lon="5.55108">
        <ele>596</ele>
        <time>2012-06-14T13:45:10Z</time>
      </trkpt>
      <trkpt lat="45.48807" lon="5.55105">
        <ele>596</ele>
        <time>2012-06-14T13:45:15Z</time>
      </trkpt>
      <trkpt lat="45.48808" lon="5.55105">
        <ele>595</ele>
        <time>2012-06-14T13:45:20Z</time>
      </trkpt>
      <trkpt lat="45.48808" lon="5.55105">
        <ele>595</ele>
        <time>2012-06-14T13:45:25Z</time>
      </trkpt>
      <trkpt lat="45.48809" lon="5.55105">
        <ele>595</ele>
        <time>2012-06-14T13:45:30Z</time>
      </trkpt>
      <trkpt lat="45.4881" lon="5.55105">
        <ele>595</ele>
        <time>2012-06-14T13:45:35Z</time>
      </trkpt>
      <trkpt lat="45.48813" lon="5.55104">
        <ele>595</ele>
        <time>2012-06-14T13:45:40Z</time>
      </trkpt>
      <trkpt lat="45.48814" lon="5.55102">
        <ele>596</ele>
        <time>2012-06-14T13:45:45Z</time>
      </trkpt>
      <trkpt lat="45.48816" lon="5.55102">
        <ele>596</ele>
        <time>2012-06-14T13:45:50Z</time>
      </trkpt>
      <trkpt lat="45.48817" lon="5.55103">
        <ele>597</ele>
        <time>2012-06-14T13:45:55Z</time>
      </trkpt>
      <trkpt lat="45.48818" lon="5.55103">
        <ele>596</ele>
        <time>2012-06-14T13:46:01Z</time>
      </trkpt>
      <trkpt lat="45.48817" lon="5.55105">
        <ele>596</ele>
        <time>2012-06-14T13:46:06Z</time>
      </trkpt>
      <trkpt lat="45.48813" lon="5.55106">
        <ele>595</ele>
        <time>2012-06-14T13:46:11Z</time>
      </trkpt>
      <trkpt lat="45.48814" lon="5.55103">
        <ele>595</ele>
        <time>2012-06-14T13:46:16Z</time>
      </trkpt>
      <trkpt lat="45.48815" lon="5.55098">
        <ele>596</ele>
        <time>2012-06-14T13:46:21Z</time>
      </trkpt>
      <trkpt lat="45.48814" lon="5.55093">
        <ele>596</ele>
        <time>2012-06-14T13:46:26Z</time>
      </trkpt>
      <trkpt lat="45.48812" lon="5.55087">
        <ele>596</ele>
        <time>2012-06-14T13:46:31Z</time>
      </trkpt>
      <trkpt lat="45.48811" lon="5.55081">
        <ele>597</ele>
        <time>2012-06-14T13:46:36Z</time>
      </trkpt>
      <trkpt lat="45.4881" lon="5.55074">
        <ele>598</ele>
        <time>2012-06-14T13:46:41Z</time>
      </trkpt>
      <trkpt lat="45.48808" lon="5.5507">
        <ele>599</ele>
        <time>2012-06-14T13:46:46Z</time>
      </trkpt>
      <trkpt lat="45.48808" lon="5.55063">
        <ele>600</ele>
        <time>2012-06-14T13:46:51Z</time>
      </trkpt>
      <trkpt lat="45.48811" lon="5.55056">
        <ele>600</ele>
        <time>2012-06-14T13:46:56Z</time>
      </trkpt>
      <trkpt lat="45.48811" lon="5.55051">
        <ele>600</ele>
        <time>2012-06-14T13:47:02Z</time>
      </trkpt>
      <trkpt lat="45.48812" lon="5.55045">
        <ele>601</ele>
        <time>2012-06-14T13:47:07Z</time>
      </trkpt>
      <trkpt lat="45.48813" lon="5.5504">
        <ele>601</ele>
        <time>2012-06-14T13:47:12Z</time>
      </trkpt>
      <trkpt lat="45.48814" lon="5.55035">
        <ele>602</ele>
        <time>2012-06-14T13:47:17Z</time>
      </trkpt>
      <trkpt lat="45.48816" lon="5.5503">
        <ele>603</ele>
        <time>2012-06-14T13:47:22Z</time>
      </trkpt>
      <trkpt lat="45.48819" lon="5.55025">
        <ele>603</ele>
        <time>2012-06-14T13:47:27Z</time>
      </trkpt>
      <trkpt lat="45.48819" lon="5.55021">
        <ele>604</ele>
        <time>2012-06-14T13:47:32Z</time>
      </trkpt>
      <trkpt lat="45.48821" lon="5.55018">
        <ele>605</ele>
        <time>2012-06-14T13:47:37Z</time>
      </trkpt>
      <trkpt lat="45.48823" lon="5.55012">
        <ele>605</ele>
        <time>2012-06-14T13:47:42Z</time>
      </trkpt>
      <trkpt lat="45.48826" lon="5.55008">
        <ele>606</ele>
        <time>2012-06-14T13:47:47Z</time>
      </trkpt>
      <trkpt lat="45.48828" lon="5.55004">
        <ele>607</ele>
        <time>2012-06-14T13:47:52Z</time>
      </trkpt>
      <trkpt lat="45.4883" lon="5.54998">
        <ele>608</ele>
        <time>2012-06-14T13:47:57Z</time>
      </trkpt>
      <trkpt lat="45.48831" lon="5.54993">
        <ele>608</ele>
        <time>2012-06-14T13:48:02Z</time>
      </trkpt>
      <trkpt lat="45.48832" lon="5.54989">
        <ele>609</ele>
        <time>2012-06-14T13:48:07Z</time>
      </trkpt>
      <trkpt lat="45.48831" lon="5.54982">
        <ele>609</ele>
        <time>2012-06-14T13:48:12Z</time>
      </trkpt>
      <trkpt lat="45.48831" lon="5.54976">
        <ele>610</ele>
        <time>2012-06-14T13:48:18Z</time>
      </trkpt>
      <trkpt lat="45.48831" lon="5.54971">
        <ele>611</ele>
        <time>2012-06-14T13:48:23Z</time>
      </trkpt>
      <trkpt lat="45.48831" lon="5.54965">
        <ele>611</ele>
        <time>2012-06-14T13:48:28Z</time>
      </trkpt>
      <trkpt lat="45.48832" lon="5.54958">
        <ele>612</ele>
        <time>2012-06-14T13:48:33Z</time>
      </trkpt>
      <trkpt lat="45.48832" lon="5.54952">
        <ele>612</ele>
        <time>2012-06-14T13:48:38Z</time>
      </trkpt>
      <trkpt lat="45.48831" lon="5.54947">
        <ele>612</ele>
        <time>2012-06-14T13:48:43Z</time>
      </trkpt>
      <trkpt lat="45.48829" lon="5.5494">
        <ele>612</ele>
        <time>2012-06-14T13:48:48Z</time>
      </trkpt>
      <trkpt lat="45.48829" lon="5.54933">
        <ele>612</ele>
        <time>2012-06-14T13:48:53Z</time>
      </trkpt>
      <trkpt lat="45.48827" lon="5.54925">
        <ele>612</ele>
        <time>2012-06-14T13:48:58Z</time>
      </trkpt>
      <trkpt lat="45.48828" lon="5.54918">
        <ele>613</ele>
        <time>2012-06-14T13:49:03Z</time>
      </trkpt>
      <trkpt lat="45.48829" lon="5.54912">
        <ele>612</ele>
        <time>2012-06-14T13:49:08Z</time>
      </trkpt>
      <trkpt lat="45.48829" lon="5.54905">
        <ele>612</ele>
        <time>2012-06-14T13:49:13Z</time>
      </trkpt>
      <trkpt lat="45.48829" lon="5.54895">
        <ele>612</ele>
        <time>2012-06-14T13:49:18Z</time>
      </trkpt>
      <trkpt lat="45.4883" lon="5.54887">
        <ele>612</ele>
        <time>2012-06-14T13:49:24Z</time>
      </trkpt>
      <trkpt lat="45.4883" lon="5.5488">
        <ele>612</ele>
        <time>2012-06-14T13:49:29Z</time>
      </trkpt>
      <trkpt lat="45.4883" lon="5.54874">
        <ele>612</ele>
        <time>2012-06-14T13:49:34Z</time>
      </trkpt>
      <trkpt lat="45.4883" lon="5.54868">
        <ele>613</ele>
        <time>2012-06-14T13:49:39Z</time>
      </trkpt>
      <trkpt lat="45.48832" lon="5.54862">
        <ele>612</ele>
        <time>2012-06-14T13:49:44Z</time>
      </trkpt>
      <trkpt lat="45.48834" lon="5.54856">
        <ele>612</ele>
        <time>2012-06-14T13:49:49Z</time>
      </trkpt>
      <trkpt lat="45.48834" lon="5.54851">
        <ele>612</ele>
        <time>2012-06-14T13:49:54Z</time>
      </trkpt>
      <trkpt lat="45.48835" lon="5.54846">
        <ele>613</ele>
        <time>2012-06-14T13:49:59Z</time>
      </trkpt>
      <trkpt lat="45.48837" lon="5.54839">
        <ele>613</ele>
        <time>2012-06-14T13:50:04Z</time>
      </trkpt>
      <trkpt lat="45.48839" lon="5.54835">
        <ele>613</ele>
        <time>2012-06-14T13:50:09Z</time>
      </trkpt>
      <trkpt lat="45.48838" lon="5.54829">
        <ele>614</ele>
        <time>2012-06-14T13:50:14Z</time>
      </trkpt>
      <trkpt lat="45.48839" lon="5.54823">
        <ele>615</ele>
        <time>2012-06-14T13:50:19Z</time>
      </trkpt>
      <trkpt lat="45.4884" lon="5.54817">
        <ele>615</ele>
        <time>2012-06-14T13:50:24Z</time>
      </trkpt>
      <trkpt lat="45.4884" lon="5.54811">
        <ele>615</ele>
        <time>2012-06-14T13:50:30Z</time>
      </trkpt>
      <trkpt lat="45.48842" lon="5.54806">
        <ele>616</ele>
        <time>2012-06-14T13:50:35Z</time>
      </trkpt>
      <trkpt lat="45.48844" lon="5.54801">
        <ele>616</ele>
        <time>2012-06-14T13:50:40Z</time>
      </trkpt>
      <trkpt lat="45.48844" lon="5.54793">
        <ele>616</ele>
        <time>2012-06-14T13:50:45Z</time>
      </trkpt>
      <trkpt lat="45.48844" lon="5.54785">
        <ele>616</ele>
        <time>2012-06-14T13:50:50Z</time>
      </trkpt>
      <trkpt lat="45.48844" lon="5.54777">
        <ele>616</ele>
        <time>2012-06-14T13:50:55Z</time>
      </trkpt>
      <trkpt lat="45.48845" lon="5.5477">
        <ele>616</ele>
        <time>2012-06-14T13:51:00Z</time>
      </trkpt>
      <trkpt lat="45.48846" lon="5.54764">
        <ele>616</ele>
        <time>2012-06-14T13:51:05Z</time>
      </trkpt>
      <trkpt lat="45.48846" lon="5.54758">
        <ele>616</ele>
        <time>2012-06-14T13:51:10Z</time>
      </trkpt>
      <trkpt lat="45.48846" lon="5.54751">
        <ele>616</ele>
        <time>2012-06-14T13:51:15Z</time>
      </trkpt>
      <trkpt lat="45.48847" lon="5.54744">
        <ele>616</ele>
        <time>2012-06-14T13:51:20Z</time>
      </trkpt>
      <trkpt lat="45.48848" lon="5.54739">
        <ele>616</ele>
        <time>2012-06-14T13:51:25Z</time>
      </trkpt>
      <trkpt lat="45.48849" lon="5.54732">
        <ele>616</ele>
        <time>2012-06-14T13:51:30Z</time>
      </trkpt>
      <trkpt lat="45.48849" lon="5.54724">
        <ele>616</ele>
        <time>2012-06-14T13:51:35Z</time>
      </trkpt>
      <trkpt lat="45.48849" lon="5.54717">
        <ele>616</ele>
        <time>2012-06-14T13:51:40Z</time>
      </trkpt>
      <trkpt lat="45.4885" lon="5.5471">
        <ele>616</ele>
        <time>2012-06-14T13:51:45Z</time>
      </trkpt>
      <trkpt lat="45.48852" lon="5.54702">
        <ele>616</ele>
        <time>2012-06-14T13:51:50Z</time>
      </trkpt>
      <trkpt lat="45.48853" lon="5.54696">
        <ele>616</ele>
        <time>2012-06-14T13:51:56Z</time>
      </trkpt>
      <trkpt lat="45.48854" lon="5.54691">
        <ele>615</ele>
        <time>2012-06-14T13:52:01Z</time>
      </trkpt>
      <trkpt lat="45.48853" lon="5.54684">
        <ele>615</ele>
        <time>2012-06-14T13:52:06Z</time>
      </trkpt>
      <trkpt lat="45.48853" lon="5.54677">
        <ele>615</ele>
        <time>2012-06-14T13:52:11Z</time>
      </trkpt>
      <trkpt lat="45.48852" lon="5.5467">
        <ele>616</ele>
        <time>2012-06-14T13:52:16Z</time>
      </trkpt>
      <trkpt lat="45.4885" lon="5.54662">
        <ele>616</ele>
        <time>2012-06-14T13:52:21Z</time>
      </trkpt>
      <trkpt lat="45.48851" lon="5.54655">
        <ele>616</ele>
        <time>2012-06-14T13:52:26Z</time>
      </trkpt>
      <trkpt lat="45.4885" lon="5.54646">
        <ele>616</ele>
        <time>2012-06-14T13:52:31Z</time>
      </trkpt>
      <trkpt lat="45.48848" lon="5.54641">
        <ele>617</ele>
        <time>2012-06-14T13:52:36Z</time>
      </trkpt>
      <trkpt lat="45.48847" lon="5.54637">
        <ele>617</ele>
        <time>2012-06-14T13:52:42Z</time>
      </trkpt>
      <trkpt lat="45.48846" lon="5.5463">
        <ele>617</ele>
        <time>2012-06-14T13:52:47Z</time>
      </trkpt>
      <trkpt lat="45.48847" lon="5.54623">
        <ele>617</ele>
        <time>2012-06-14T13:52:52Z</time>
      </trkpt>
      <trkpt lat="45.48849" lon="5.54618">
        <ele>618</ele>
        <time>2012-06-14T13:52:57Z</time>
      </trkpt>
      <trkpt lat="45.48852" lon="5.54613">
        <ele>618</ele>
        <time>2012-06-14T13:53:02Z</time>
      </trkpt>
      <trkpt lat="45.48855" lon="5.54609">
        <ele>618</ele>
        <time>2012-06-14T13:53:07Z</time>
      </trkpt>
      <trkpt lat="45.48858" lon="5.54604">
        <ele>619</ele>
        <time>2012-06-14T13:53:12Z</time>
      </trkpt>
      <trkpt lat="45.48861" lon="5.546">
        <ele>620</ele>
        <time>2012-06-14T13:53:17Z</time>
      </trkpt>
      <trkpt lat="45.48864" lon="5.54596">
        <ele>620</ele>
        <time>2012-06-14T13:53:22Z</time>
      </trkpt>
      <trkpt lat="45.48868" lon="5.54592">
        <ele>620</ele>
        <time>2012-06-14T13:53:27Z</time>
      </trkpt>
      <trkpt lat="45.48871" lon="5.54587">
        <ele>621</ele>
        <time>2012-06-14T13:53:32Z</time>
      </trkpt>
      <trkpt lat="45.48874" lon="5.54583">
        <ele>620</ele>
        <time>2012-06-14T13:53:37Z</time>
      </trkpt>
      <trkpt lat="45.48873" lon="5.54582">
        <ele>620</ele>
        <time>2012-06-14T13:53:42Z</time>
      </trkpt>
      <trkpt lat="45.48873" lon="5.54581">
        <ele>620</ele>
        <time>2012-06-14T13:53:47Z</time>
      </trkpt>
      <trkpt lat="45.48873" lon="5.5458">
        <ele>621</ele>
        <time>2012-06-14T13:53:52Z</time>
      </trkpt>
      <trkpt lat="45.4887" lon="5.54577">
        <ele>620</ele>
        <time>2012-06-14T13:53:57Z</time>
      </trkpt>
      <trkpt lat="45.4887" lon="5.54575">
        <ele>620</ele>
        <time>2012-06-14T13:54:02Z</time>
      </trkpt>
      <trkpt lat="45.48875" lon="5.54575">
        <ele>620</ele>
        <time>2012-06-14T13:54:07Z</time>
      </trkpt>
      <trkpt lat="45.4888" lon="5.54575">
        <ele>621</ele>
        <time>2012-06-14T13:54:12Z</time>
      </trkpt>
      <trkpt lat="45.48884" lon="5.54576">
        <ele>621</ele>
        <time>2012-06-14T13:54:17Z</time>
      </trkpt>
      <trkpt lat="45.48888" lon="5.54577">
        <ele>621</ele>
        <time>2012-06-14T13:54:23Z</time>
      </trkpt>
      <trkpt lat="45.48891" lon="5.54577">
        <ele>621</ele>
        <time>2012-06-14T13:54:28Z</time>
      </trkpt>
      <trkpt lat="45.48894" lon="5.54578">
        <ele>621</ele>
        <time>2012-06-14T13:54:33Z</time>
      </trkpt>
      <trkpt lat="45.48898" lon="5.5458">
        <ele>622</ele>
        <time>2012-06-14T13:54:38Z</time>
      </trkpt>
      <trkpt lat="45.48902" lon="5.54582">
        <ele>622</ele>
        <time>2012-06-14T13:54:43Z</time>
      </trkpt>
      <trkpt lat="45.48906" lon="5.54584">
        <ele>622</ele>
        <time>2012-06-14T13:54:48Z</time>
      </trkpt>
      <trkpt lat="45.48911" lon="5.54587">
        <ele>622</ele>
        <time>2012-06-14T13:54:53Z</time>
      </trkpt>
      <trkpt lat="45.48914" lon="5.54589">
        <ele>622</ele>
        <time>2012-06-14T13:54:58Z</time>
      </trkpt>
      <trkpt lat="45.4892" lon="5.54591">
        <ele>622</ele>
        <time>2012-06-14T13:55:03Z</time>
      </trkpt>
      <trkpt lat="45.48924" lon="5.54591">
        <ele>623</ele>
        <time>2012-06-14T13:55:08Z</time>
      </trkpt>
      <trkpt lat="45.48929" lon="5.54591">
        <ele>623</ele>
        <time>2012-06-14T13:55:13Z</time>
      </trkpt>
      <trkpt lat="45.48931" lon="5.54591">
        <ele>624</ele>
        <time>2012-06-14T13:55:18Z</time>
      </trkpt>
      <trkpt lat="45.48935" lon="5.54592">
        <ele>624</ele>
        <time>2012-06-14T13:55:23Z</time>
      </trkpt>
      <trkpt lat="45.48939" lon="5.54592">
        <ele>625</ele>
        <time>2012-06-14T13:55:28Z</time>
      </trkpt>
      <trkpt lat="45.48943" lon="5.5459">
        <ele>625</ele>
        <time>2012-06-14T13:55:33Z</time>
      </trkpt>
      <trkpt lat="45.48947" lon="5.54589">
        <ele>625</ele>
        <time>2012-06-14T13:55:39Z</time>
      </trkpt>
      <trkpt lat="45.48951" lon="5.54588">
        <ele>625</ele>
        <time>2012-06-14T13:55:44Z</time>
      </trkpt>
      <trkpt lat="45.48956" lon="5.54586">
        <ele>625</ele>
        <time>2012-06-14T13:55:49Z</time>
      </trkpt>
      <trkpt lat="45.48962" lon="5.54586">
        <ele>626</ele>
        <time>2012-06-14T13:55:54Z</time>
      </trkpt>
      <trkpt lat="45.48967" lon="5.54583">
        <ele>626</ele>
        <time>2012-06-14T13:55:59Z</time>
      </trkpt>
      <trkpt lat="45.48972" lon="5.54581">
        <ele>626</ele>
        <time>2012-06-14T13:56:04Z</time>
      </trkpt>
      <trkpt lat="45.48978" lon="5.54579">
        <ele>626</ele>
        <time>2012-06-14T13:56:09Z</time>
      </trkpt>
      <trkpt lat="45.48985" lon="5.54577">
        <ele>626</ele>
        <time>2012-06-14T13:56:14Z</time>
      </trkpt>
      <trkpt lat="45.4899" lon="5.54575">
        <ele>626</ele>
        <time>2012-06-14T13:56:19Z</time>
      </trkpt>
      <trkpt lat="45.48996" lon="5.54573">
        <ele>627</ele>
        <time>2012-06-14T13:56:24Z</time>
      </trkpt>
      <trkpt lat="45.49002" lon="5.5457">
        <ele>628</ele>
        <time>2012-06-14T13:56:29Z</time>
      </trkpt>
      <trkpt lat="45.49007" lon="5.54568">
        <ele>628</ele>
        <time>2012-06-14T13:56:34Z</time>
      </trkpt>
      <trkpt lat="45.4901" lon="5.54565">
        <ele>628</ele>
        <time>2012-06-14T13:56:39Z</time>
      </trkpt>
      <trkpt lat="45.49014" lon="5.54563">
        <ele>628</ele>
        <time>2012-06-14T13:56:44Z</time>
      </trkpt>
      <trkpt lat="45.49018" lon="5.54562">
        <ele>628</ele>
        <time>2012-06-14T13:56:49Z</time>
      </trkpt>
      <trkpt lat="45.49025" lon="5.54559">
        <ele>628</ele>
        <time>2012-06-14T13:56:54Z</time>
      </trkpt>
      <trkpt lat="45.49031" lon="5.54556">
        <ele>629</ele>
        <time>2012-06-14T13:56:59Z</time>
      </trkpt>
      <trkpt lat="45.49037" lon="5.54554">
        <ele>630</ele>
        <time>2012-06-14T13:57:04Z</time>
      </trkpt>
      <trkpt lat="45.49042" lon="5.54552">
        <ele>630</ele>
        <time>2012-06-14T13:57:09Z</time>
      </trkpt>
      <trkpt lat="45.49047" lon="5.54549">
        <ele>630</ele>
        <time>2012-06-14T13:57:14Z</time>
      </trkpt>
      <trkpt lat="45.4905" lon="5.54548">
        <ele>630</ele>
        <time>2012-06-14T13:57:19Z</time>
      </trkpt>
      <trkpt lat="45.49055" lon="5.54545">
        <ele>630</ele>
        <time>2012-06-14T13:57:24Z</time>
      </trkpt>
      <trkpt lat="45.49061" lon="5.54544">
        <ele>630</ele>
        <time>2012-06-14T13:57:29Z</time>
      </trkpt>
      <trkpt lat="45.49065" lon="5.54543">
        <ele>630</ele>
        <time>2012-06-14T13:57:35Z</time>
      </trkpt>
      <trkpt lat="45.49071" lon="5.54544">
        <ele>631</ele>
        <time>2012-06-14T13:57:40Z</time>
      </trkpt>
      <trkpt lat="45.49075" lon="5.54542">
        <ele>631</ele>
        <time>2012-06-14T13:57:45Z</time>
      </trkpt>
      <trkpt lat="45.4908" lon="5.5454">
        <ele>631</ele>
        <time>2012-06-14T13:57:50Z</time>
      </trkpt>
      <trkpt lat="45.49084" lon="5.54539">
        <ele>631</ele>
        <time>2012-06-14T13:57:55Z</time>
      </trkpt>
      <trkpt lat="45.49089" lon="5.54538">
        <ele>632</ele>
        <time>2012-06-14T13:58:00Z</time>
      </trkpt>
      <trkpt lat="45.49093" lon="5.54537">
        <ele>632</ele>
        <time>2012-06-14T13:58:05Z</time>
      </trkpt>
      <trkpt lat="45.49098" lon="5.54536">
        <ele>632</ele>
        <time>2012-06-14T13:58:10Z</time>
      </trkpt>
      <trkpt lat="45.49103" lon="5.54534">
        <ele>632</ele>
        <time>2012-06-14T13:58:15Z</time>
      </trkpt>
      <trkpt lat="45.49108" lon="5.54532">
        <ele>632</ele>
        <time>2012-06-14T13:58:20Z</time>
      </trkpt>
      <trkpt lat="45.49113" lon="5.54531">
        <ele>631</ele>
        <time>2012-06-14T13:58:25Z</time>
      </trkpt>
      <trkpt lat="45.49119" lon="5.54528">
        <ele>632</ele>
        <time>2012-06-14T13:58:30Z</time>
      </trkpt>
      <trkpt lat="45.49124" lon="5.54527">
        <ele>631</ele>
        <time>2012-06-14T13:58:35Z</time>
      </trkpt>
      <trkpt lat="45.49129" lon="5.54525">
        <ele>631</ele>
        <time>2012-06-14T13:58:40Z</time>
      </trkpt>
      <trkpt lat="45.49136" lon="5.54524">
        <ele>632</ele>
        <time>2012-06-14T13:58:45Z</time>
      </trkpt>
      <trkpt lat="45.4914" lon="5.5452">
        <ele>632</ele>
        <time>2012-06-14T13:58:50Z</time>
      </trkpt>
      <trkpt lat="45.49145" lon="5.54516">
        <ele>631</ele>
        <time>2012-06-14T13:58:56Z</time>
      </trkpt>
      <trkpt lat="45.49149" lon="5.54513">
        <ele>630</ele>
        <time>2012-06-14T13:59:01Z</time>
      </trkpt>
      <trkpt lat="45.49154" lon="5.54509">
        <ele>631</ele>
        <time>2012-06-14T13:59:06Z</time>
      </trkpt>
      <trkpt lat="45.49158" lon="5.54506">
        <ele>631</ele>
        <time>2012-06-14T13:59:11Z</time>
      </trkpt>
      <trkpt lat="45.49163" lon="5.54503">
        <ele>630</ele>
        <time>2012-06-14T13:59:16Z</time>
      </trkpt>
      <trkpt lat="45.49168" lon="5.545">
        <ele>631</ele>
        <time>2012-06-14T13:59:21Z</time>
      </trkpt>
      <trkpt lat="45.49172" lon="5.54497">
        <ele>631</ele>
        <time>2012-06-14T13:59:26Z</time>
      </trkpt>
      <trkpt lat="45.49177" lon="5.54494">
        <ele>631</ele>
        <time>2012-06-14T13:59:31Z</time>
      </trkpt>
      <trkpt lat="45.49182" lon="5.54491">
        <ele>631</ele>
        <time>2012-06-14T13:59:36Z</time>
      </trkpt>
      <trkpt lat="45.49186" lon="5.54488">
        <ele>631</ele>
        <time>2012-06-14T13:59:41Z</time>
      </trkpt>
      <trkpt lat="45.49191" lon="5.54485">
        <ele>631</ele>
        <time>2012-06-14T13:59:46Z</time>
      </trkpt>
      <trkpt lat="45.49196" lon="5.54481">
        <ele>631</ele>
        <time>2012-06-14T13:59:51Z</time>
      </trkpt>
      <trkpt lat="45.49198" lon="5.54477">
        <ele>632</ele>
        <time>2012-06-14T13:59:56Z</time>
      </trkpt>
      <trkpt lat="45.49195" lon="5.54472">
        <ele>631</ele>
        <time>2012-06-14T14:00:01Z</time>
      </trkpt>
      <trkpt lat="45.4919" lon="5.54467">
        <ele>631</ele>
        <time>2012-06-14T14:00:06Z</time>
      </trkpt>
      <trkpt lat="45.49186" lon="5.54462">
        <ele>631</ele>
        <time>2012-06-14T14:00:11Z</time>
      </trkpt>
      <trkpt lat="45.49183" lon="5.54458">
        <ele>630</ele>
        <time>2012-06-14T14:00:16Z</time>
      </trkpt>
      <trkpt lat="45.49179" lon="5.54453">
        <ele>630</ele>
        <time>2012-06-14T14:00:21Z</time>
      </trkpt>
      <trkpt lat="45.49177" lon="5.54452">
        <ele>630</ele>
        <time>2012-06-14T14:00:26Z</time>
      </trkpt>
      <trkpt lat="45.49173" lon="5.54446">
        <ele>630</ele>
        <time>2012-06-14T14:00:31Z</time>
      </trkpt>
      <trkpt lat="45.49168" lon="5.54442">
        <ele>630</ele>
        <time>2012-06-14T14:00:37Z</time>
      </trkpt>
      <trkpt lat="45.49164" lon="5.54437">
        <ele>630</ele>
        <time>2012-06-14T14:00:42Z</time>
      </trkpt>
      <trkpt lat="45.49159" lon="5.54434">
        <ele>630</ele>
        <time>2012-06-14T14:00:47Z</time>
      </trkpt>
      <trkpt lat="45.49155" lon="5.5443">
        <ele>630</ele>
        <time>2012-06-14T14:00:52Z</time>
      </trkpt>
      <trkpt lat="45.49149" lon="5.54426">
        <ele>630</ele>
        <time>2012-06-14T14:00:57Z</time>
      </trkpt>
      <trkpt lat="45.49143" lon="5.54423">
        <ele>630</ele>
        <time>2012-06-14T14:01:02Z</time>
      </trkpt>
      <trkpt lat="45.49138" lon="5.5442">
        <ele>630</ele>
        <time>2012-06-14T14:01:07Z</time>
      </trkpt>
      <trkpt lat="45.49133" lon="5.54416">
        <ele>630</ele>
        <time>2012-06-14T14:01:12Z</time>
      </trkpt>
      <trkpt lat="45.49128" lon="5.54413">
        <ele>630</ele>
        <time>2012-06-14T14:01:17Z</time>
      </trkpt>
      <trkpt lat="45.49123" lon="5.5441">
        <ele>630</ele>
        <time>2012-06-14T14:01:22Z</time>
      </trkpt>
      <trkpt lat="45.49118" lon="5.54407">
        <ele>630</ele>
        <time>2012-06-14T14:01:27Z</time>
      </trkpt>
      <trkpt lat="45.49113" lon="5.54405">
        <ele>630</ele>
        <time>2012-06-14T14:01:32Z</time>
      </trkpt>
      <trkpt lat="45.49108" lon="5.54403">
        <ele>630</ele>
        <time>2012-06-14T14:01:37Z</time>
      </trkpt>
      <trkpt lat="45.49103" lon="5.54401">
        <ele>631</ele>
        <time>2012-06-14T14:01:42Z</time>
      </trkpt>
      <trkpt lat="45.49097" lon="5.54398">
        <ele>631</ele>
        <time>2012-06-14T14:01:47Z</time>
      </trkpt>
      <trkpt lat="45.49091" lon="5.54396">
        <ele>630</ele>
        <time>2012-06-14T14:01:52Z</time>
      </trkpt>
      <trkpt lat="45.49086" lon="5.54394">
        <ele>631</ele>
        <time>2012-06-14T14:01:58Z</time>
      </trkpt>
      <trkpt lat="45.49082" lon="5.54391">
        <ele>631</ele>
        <time>2012-06-14T14:02:03Z</time>
      </trkpt>
      <trkpt lat="45.49077" lon="5.54389">
        <ele>631</ele>
        <time>2012-06-14T14:02:08Z</time>
      </trkpt>
      <trkpt lat="45.49072" lon="5.54387">
        <ele>631</ele>
        <time>2012-06-14T14:02:13Z</time>
      </trkpt>
      <trkpt lat="45.49067" lon="5.54383">
        <ele>632</ele>
        <time>2012-06-14T14:02:18Z</time>
      </trkpt>
      <trkpt lat="45.49064" lon="5.54379">
        <ele>632</ele>
        <time>2012-06-14T14:02:23Z</time>
      </trkpt>
      <trkpt lat="45.49059" lon="5.54376">
        <ele>632</ele>
        <time>2012-06-14T14:02:28Z</time>
      </trkpt>
      <trkpt lat="45.49054" lon="5.54372">
        <ele>632</ele>
        <time>2012-06-14T14:02:33Z</time>
      </trkpt>
      <trkpt lat="45.49049" lon="5.54368">
        <ele>632</ele>
        <time>2012-06-14T14:02:38Z</time>
      </trkpt>
      <trkpt lat="45.49045" lon="5.54363">
        <ele>632</ele>
        <time>2012-06-14T14:02:43Z</time>
      </trkpt>
      <trkpt lat="45.49041" lon="5.54358">
        <ele>633</ele>
        <time>2012-06-14T14:02:48Z</time>
      </trkpt>
      <trkpt lat="45.49036" lon="5.54354">
        <ele>633</ele>
        <time>2012-06-14T14:02:53Z</time>
      </trkpt>
      <trkpt lat="45.49031" lon="5.54348">
        <ele>632</ele>
        <time>2012-06-14T14:02:58Z</time>
      </trkpt>
      <trkpt lat="45.49028" lon="5.54343">
        <ele>633</ele>
        <time>2012-06-14T14:03:04Z</time>
      </trkpt>
      <trkpt lat="45.49023" lon="5.54338">
        <ele>633</ele>
        <time>2012-06-14T14:03:09Z</time>
      </trkpt>
      <trkpt lat="45.49018" lon="5.54334">
        <ele>633</ele>
        <time>2012-06-14T14:03:14Z</time>
      </trkpt>
      <trkpt lat="45.49014" lon="5.5433">
        <ele>633</ele>
        <time>2012-06-14T14:03:19Z</time>
      </trkpt>
      <trkpt lat="45.49009" lon="5.54327">
        <ele>633</ele>
        <time>2012-06-14T14:03:24Z</time>
      </trkpt>
      <trkpt lat="45.49004" lon="5.54324">
        <ele>633</ele>
        <time>2012-06-14T14:03:29Z</time>
      </trkpt>
      <trkpt lat="45.48999" lon="5.54321">
        <ele>633</ele>
        <time>2012-06-14T14:03:34Z</time>
      </trkpt>
      <trkpt lat="45.48994" lon="5.54318">
        <ele>633</ele>
        <time>2012-06-14T14:03:39Z</time>
      </trkpt>
      <trkpt lat="45.48989" lon="5.54314">
        <ele>633</ele>
        <time>2012-06-14T14:03:44Z</time>
      </trkpt>
      <trkpt lat="45.48984" lon="5.54311">
        <ele>632</ele>
        <time>2012-06-14T14:03:49Z</time>
      </trkpt>
      <trkpt lat="45.48979" lon="5.54308">
        <ele>632</ele>
        <time>2012-06-14T14:03:54Z</time>
      </trkpt>
      <trkpt lat="45.48973" lon="5.54306">
        <ele>633</ele>
        <time>2012-06-14T14:03:59Z</time>
      </trkpt>
      <trkpt lat="45.48969" lon="5.54303">
        <ele>632</ele>
        <time>2012-06-14T14:04:04Z</time>
      </trkpt>
      <trkpt lat="45.48964" lon="5.54301">
        <ele>632</ele>
        <time>2012-06-14T14:04:09Z</time>
      </trkpt>
      <trkpt lat="45.48959" lon="5.54299">
        <ele>632</ele>
        <time>2012-06-14T14:04:14Z</time>
      </trkpt>
      <trkpt lat="45.48954" lon="5.54297">
        <ele>632</ele>
        <time>2012-06-14T14:04:19Z</time>
      </trkpt>
      <trkpt lat="45.48949" lon="5.54295">
        <ele>632</ele>
        <time>2012-06-14T14:04:24Z</time>
      </trkpt>
      <trkpt lat="45.48948" lon="5.54297">
        <ele>632</ele>
        <time>2012-06-14T14:04:30Z</time>
      </trkpt>
      <trkpt lat="45.48948" lon="5.54299">
        <ele>632</ele>
        <time>2012-06-14T14:04:35Z</time>
      </trkpt>
      <trkpt lat="45.48948" lon="5.54299">
        <ele>632</ele>
        <time>2012-06-14T14:04:40Z</time>
      </trkpt>
      <trkpt lat="45.48948" lon="5.54299">
        <ele>632</ele>
        <time>2012-06-14T14:04:45Z</time>
      </trkpt>
      <trkpt lat="45.48948" lon="5.54299">
        <ele>633</ele>
        <time>2012-06-14T14:04:50Z</time>
      </trkpt>
      <trkpt lat="45.48948" lon="5.54299">
        <ele>632</ele>
        <time>2012-06-14T14:04:55Z</time>
      </trkpt>
      <trkpt lat="45.48948" lon="5.54299">
        <ele>632</ele>
        <time>2012-06-14T14:05:00Z</time>
      </trkpt>
      <trkpt lat="45.48948" lon="5.54298">
        <ele>633</ele>
        <time>2012-06-14T14:05:05Z</time>
      </trkpt>
      <trkpt lat="45.48949" lon="5.54297">
        <ele>633</ele>
        <time>2012-06-14T14:05:10Z</time>
      </trkpt>
      <trkpt lat="45.48948" lon="5.54298">
        <ele>633</ele>
        <time>2012-06-14T14:05:15Z</time>
      </trkpt>
      <trkpt lat="45.48946" lon="5.543">
        <ele>632</ele>
        <time>2012-06-14T14:05:20Z</time>
      </trkpt>
      <trkpt lat="45.48946" lon="5.543">
        <ele>632</ele>
        <time>2012-06-14T14:05:25Z</time>
      </trkpt>
      <trkpt lat="45.48946" lon="5.54298">
        <ele>631</ele>
        <time>2012-06-14T14:05:30Z</time>
      </trkpt>
      <trkpt lat="45.48943" lon="5.54297">
        <ele>632</ele>
        <time>2012-06-14T14:05:36Z</time>
      </trkpt>
      <trkpt lat="45.48942" lon="5.54297">
        <ele>631</ele>
        <time>2012-06-14T14:05:41Z</time>
      </trkpt>
      <trkpt lat="45.48938" lon="5.54295">
        <ele>631</ele>
        <time>2012-06-14T14:05:46Z</time>
      </trkpt>
      <trkpt lat="45.48933" lon="5.54294">
        <ele>631</ele>
        <time>2012-06-14T14:05:51Z</time>
      </trkpt>
      <trkpt lat="45.48928" lon="5.54291">
        <ele>631</ele>
        <time>2012-06-14T14:05:56Z</time>
      </trkpt>
      <trkpt lat="45.48922" lon="5.54287">
        <ele>631</ele>
        <time>2012-06-14T14:06:01Z</time>
      </trkpt>
      <trkpt lat="45.48917" lon="5.54283">
        <ele>630</ele>
        <time>2012-06-14T14:06:06Z</time>
      </trkpt>
      <trkpt lat="45.48914" lon="5.54277">
        <ele>630</ele>
        <time>2012-06-14T14:06:11Z</time>
      </trkpt>
      <trkpt lat="45.48914" lon="5.5427">
        <ele>631</ele>
        <time>2012-06-14T14:06:16Z</time>
      </trkpt>
      <trkpt lat="45.48915" lon="5.54262">
        <ele>631</ele>
        <time>2012-06-14T14:06:21Z</time>
      </trkpt>
      <trkpt lat="45.48915" lon="5.54261">
        <ele>632</ele>
        <time>2012-06-14T14:06:26Z</time>
      </trkpt>
      <trkpt lat="45.48915" lon="5.54261">
        <ele>632</ele>
        <time>2012-06-14T14:06:31Z</time>
      </trkpt>
      <trkpt lat="45.48917" lon="5.54253">
        <ele>633</ele>
        <time>2012-06-14T14:06:36Z</time>
      </trkpt>
      <trkpt lat="45.48918" lon="5.54246">
        <ele>633</ele>
        <time>2012-06-14T14:06:41Z</time>
      </trkpt>
      <trkpt lat="45.48919" lon="5.54238">
        <ele>633</ele>
        <time>2012-06-14T14:06:47Z</time>
      </trkpt>
      <trkpt lat="45.48921" lon="5.54231">
        <ele>633</ele>
        <time>2012-06-14T14:06:52Z</time>
      </trkpt>
      <trkpt lat="45.48922" lon="5.54223">
        <ele>633</ele>
        <time>2012-06-14T14:06:57Z</time>
      </trkpt>
      <trkpt lat="45.48924" lon="5.54217">
        <ele>633</ele>
        <time>2012-06-14T14:07:02Z</time>
      </trkpt>
      <trkpt lat="45.48925" lon="5.5421">
        <ele>634</ele>
        <time>2012-06-14T14:07:07Z</time>
      </trkpt>
      <trkpt lat="45.48926" lon="5.54203">
        <ele>634</ele>
        <time>2012-06-14T14:07:12Z</time>
      </trkpt>
      <trkpt lat="45.48928" lon="5.54195">
        <ele>635</ele>
        <time>2012-06-14T14:07:17Z</time>
      </trkpt>
      <trkpt lat="45.4893" lon="5.54189">
        <ele>635</ele>
        <time>2012-06-14T14:07:22Z</time>
      </trkpt>
      <trkpt lat="45.48931" lon="5.54181">
        <ele>636</ele>
        <time>2012-06-14T14:07:27Z</time>
      </trkpt>
      <trkpt lat="45.48933" lon="5.54175">
        <ele>636</ele>
        <time>2012-06-14T14:07:32Z</time>
      </trkpt>
      <trkpt lat="45.48933" lon="5.54172">
        <ele>636</ele>
        <time>2012-06-14T14:07:37Z</time>
      </trkpt>
      <trkpt lat="45.48933" lon="5.54171">
        <ele>635</ele>
        <time>2012-06-14T14:07:42Z</time>
      </trkpt>
      <trkpt lat="45.48933" lon="5.54169">
        <ele>635</ele>
        <time>2012-06-14T14:07:48Z</time>
      </trkpt>
      <trkpt lat="45.48934" lon="5.54166">
        <ele>637</ele>
        <time>2012-06-14T14:07:53Z</time>
      </trkpt>
      <trkpt lat="45.48935" lon="5.5416">
        <ele>637</ele>
        <time>2012-06-14T14:07:58Z</time>
      </trkpt>
      <trkpt lat="45.48937" lon="5.54152">
        <ele>636</ele>
        <time>2012-06-14T14:08:03Z</time>
      </trkpt>
      <trkpt lat="45.48939" lon="5.54145">
        <ele>636</ele>
        <time>2012-06-14T14:08:08Z</time>
      </trkpt>
      <trkpt lat="45.4894" lon="5.54137">
        <ele>637</ele>
        <time>2012-06-14T14:08:13Z</time>
      </trkpt>
      <trkpt lat="45.4894" lon="5.54134">
        <ele>637</ele>
        <time>2012-06-14T14:08:18Z</time>
      </trkpt>
      <trkpt lat="45.4894" lon="5.54132">
        <ele>637</ele>
        <time>2012-06-14T14:08:23Z</time>
      </trkpt>
      <trkpt lat="45.48941" lon="5.54125">
        <ele>637</ele>
        <time>2012-06-14T14:08:28Z</time>
      </trkpt>
      <trkpt lat="45.48943" lon="5.54116">
        <ele>637</ele>
        <time>2012-06-14T14:08:33Z</time>
      </trkpt>
      <trkpt lat="45.48944" lon="5.54108">
        <ele>638</ele>
        <time>2012-06-14T14:08:38Z</time>
      </trkpt>
      <trkpt lat="45.48946" lon="5.54101">
        <ele>638</ele>
        <time>2012-06-14T14:08:44Z</time>
      </trkpt>
      <trkpt lat="45.48947" lon="5.54093">
        <ele>638</ele>
        <time>2012-06-14T14:08:49Z</time>
      </trkpt>
      <trkpt lat="45.48949" lon="5.54087">
        <ele>638</ele>
        <time>2012-06-14T14:08:54Z</time>
      </trkpt>
      <trkpt lat="45.48952" lon="5.54079">
        <ele>639</ele>
        <time>2012-06-14T14:08:59Z</time>
      </trkpt>
      <trkpt lat="45.48954" lon="5.54072">
        <ele>639</ele>
        <time>2012-06-14T14:09:04Z</time>
      </trkpt>
      <trkpt lat="45.48956" lon="5.54064">
        <ele>639</ele>
        <time>2012-06-14T14:09:09Z</time>
      </trkpt>
      <trkpt lat="45.48958" lon="5.54055">
        <ele>639</ele>
        <time>2012-06-14T14:09:14Z</time>
      </trkpt>
      <trkpt lat="45.4896" lon="5.54048">
        <ele>640</ele>
        <time>2012-06-14T14:09:19Z</time>
      </trkpt>
      <trkpt lat="45.48963" lon="5.54041">
        <ele>639</ele>
        <time>2012-06-14T14:09:24Z</time>
      </trkpt>
      <trkpt lat="45.48965" lon="5.54034">
        <ele>640</ele>
        <time>2012-06-14T14:09:29Z</time>
      </trkpt>
      <trkpt lat="45.48967" lon="5.54027">
        <ele>640</ele>
        <time>2012-06-14T14:09:34Z</time>
      </trkpt>
      <trkpt lat="45.4897" lon="5.54019">
        <ele>641</ele>
        <time>2012-06-14T14:09:39Z</time>
      </trkpt>
      <trkpt lat="45.48971" lon="5.54013">
        <ele>640</ele>
        <time>2012-06-14T14:09:44Z</time>
      </trkpt>
      <trkpt lat="45.4897" lon="5.54007">
        <ele>640</ele>
        <time>2012-06-14T14:09:49Z</time>
      </trkpt>
      <trkpt lat="45.48967" lon="5.54001">
        <ele>640</ele>
        <time>2012-06-14T14:09:54Z</time>
      </trkpt>
      <trkpt lat="45.48963" lon="5.53995">
        <ele>640</ele>
        <time>2012-06-14T14:09:59Z</time>
      </trkpt>
      <trkpt lat="45.4896" lon="5.53989">
        <ele>641</ele>
        <time>2012-06-14T14:10:04Z</time>
      </trkpt>
      <trkpt lat="45.48956" lon="5.53984">
        <ele>640</ele>
        <time>2012-06-14T14:10:09Z</time>
      </trkpt>
      <trkpt lat="45.48952" lon="5.53978">
        <ele>640</ele>
        <time>2012-06-14T14:10:14Z</time>
      </trkpt>
      <trkpt lat="45.4895" lon="5.53973">
        <ele>641</ele>
        <time>2012-06-14T14:10:19Z</time>
      </trkpt>
      <trkpt lat="45.48948" lon="5.53968">
        <ele>641</ele>
        <time>2012-06-14T14:10:25Z</time>
      </trkpt>
      <trkpt lat="45.48946" lon="5.53962">
        <ele>641</ele>
        <time>2012-06-14T14:10:30Z</time>
      </trkpt>
      <trkpt lat="45.48942" lon="5.53956">
        <ele>641</ele>
        <time>2012-06-14T14:10:35Z</time>
      </trkpt>
      <trkpt lat="45.4894" lon="5.5395">
        <ele>641</ele>
        <time>2012-06-14T14:10:40Z</time>
      </trkpt>
      <trkpt lat="45.48938" lon="5.53944">
        <ele>642</ele>
        <time>2012-06-14T14:10:45Z</time>
      </trkpt>
      <trkpt lat="45.48936" lon="5.53936">
        <ele>642</ele>
        <time>2012-06-14T14:10:50Z</time>
      </trkpt>
      <trkpt lat="45.48933" lon="5.5393">
        <ele>641</ele>
        <time>2012-06-14T14:10:55Z</time>
      </trkpt>
      <trkpt lat="45.4893" lon="5.53924">
        <ele>642</ele>
        <time>2012-06-14T14:11:00Z</time>
      </trkpt>
      <trkpt lat="45.48927" lon="5.53917">
        <ele>643</ele>
        <time>2012-06-14T14:11:05Z</time>
      </trkpt>
      <trkpt lat="45.48922" lon="5.53909">
        <ele>642</ele>
        <time>2012-06-14T14:11:10Z</time>
      </trkpt>
      <trkpt lat="45.48919" lon="5.53902">
        <ele>642</ele>
        <time>2012-06-14T14:11:15Z</time>
      </trkpt>
      <trkpt lat="45.48916" lon="5.53894">
        <ele>642</ele>
        <time>2012-06-14T14:11:20Z</time>
      </trkpt>
      <trkpt lat="45.48914" lon="5.53888">
        <ele>643</ele>
        <time>2012-06-14T14:11:25Z</time>
      </trkpt>
      <trkpt lat="45.48909" lon="5.53882">
        <ele>643</ele>
        <time>2012-06-14T14:11:31Z</time>
      </trkpt>
      <trkpt lat="45.48904" lon="5.53876">
        <ele>643</ele>
        <time>2012-06-14T14:11:36Z</time>
      </trkpt>
      <trkpt lat="45.48899" lon="5.53871">
        <ele>642</ele>
        <time>2012-06-14T14:11:41Z</time>
      </trkpt>
      <trkpt lat="45.48896" lon="5.53867">
        <ele>642</ele>
        <time>2012-06-14T14:11:46Z</time>
      </trkpt>
      <trkpt lat="45.48891" lon="5.53861">
        <ele>642</ele>
        <time>2012-06-14T14:11:51Z</time>
      </trkpt>
      <trkpt lat="45.48886" lon="5.53856">
        <ele>642</ele>
        <time>2012-06-14T14:11:56Z</time>
      </trkpt>
      <trkpt lat="45.48881" lon="5.53849">
        <ele>643</ele>
        <time>2012-06-14T14:12:01Z</time>
      </trkpt>
      <trkpt lat="45.48877" lon="5.53843">
        <ele>643</ele>
        <time>2012-06-14T14:12:06Z</time>
      </trkpt>
      <trkpt lat="45.48872" lon="5.53837">
        <ele>643</ele>
        <time>2012-06-14T14:12:11Z</time>
      </trkpt>
      <trkpt lat="45.48867" lon="5.53832">
        <ele>643</ele>
        <time>2012-06-14T14:12:16Z</time>
      </trkpt>
      <trkpt lat="45.48862" lon="5.53826">
        <ele>643</ele>
        <time>2012-06-14T14:12:21Z</time>
      </trkpt>
      <trkpt lat="45.48857" lon="5.53821">
        <ele>643</ele>
        <time>2012-06-14T14:12:26Z</time>
      </trkpt>
      <trkpt lat="45.48853" lon="5.53817">
        <ele>644</ele>
        <time>2012-06-14T14:12:31Z</time>
      </trkpt>
      <trkpt lat="45.48849" lon="5.53813">
        <ele>644</ele>
        <time>2012-06-14T14:12:36Z</time>
      </trkpt>
      <trkpt lat="45.48844" lon="5.53808">
        <ele>644</ele>
        <time>2012-06-14T14:12:41Z</time>
      </trkpt>
      <trkpt lat="45.4884" lon="5.53804">
        <ele>644</ele>
        <time>2012-06-14T14:12:46Z</time>
      </trkpt>
      <trkpt lat="45.48836" lon="5.538">
        <ele>644</ele>
        <time>2012-06-14T14:12:51Z</time>
      </trkpt>
      <trkpt lat="45.48833" lon="5.53793">
        <ele>644</ele>
        <time>2012-06-14T14:12:56Z</time>
      </trkpt>
      <trkpt lat="45.48829" lon="5.53786">
        <ele>644</ele>
        <time>2012-06-14T14:13:02Z</time>
      </trkpt>
      <trkpt lat="45.48826" lon="5.5378">
        <ele>644</ele>
        <time>2012-06-14T14:13:07Z</time>
      </trkpt>
      <trkpt lat="45.48822" lon="5.53773">
        <ele>644</ele>
        <time>2012-06-14T14:13:12Z</time>
      </trkpt>
      <trkpt lat="45.48818" lon="5.53767">
        <ele>644</ele>
        <time>2012-06-14T14:13:17Z</time>
      </trkpt>
      <trkpt lat="45.48814" lon="5.53761">
        <ele>644</ele>
        <time>2012-06-14T14:13:22Z</time>
      </trkpt>
      <trkpt lat="45.4881" lon="5.53756">
        <ele>644</ele>
        <time>2012-06-14T14:13:27Z</time>
      </trkpt>
      <trkpt lat="45.48806" lon="5.5375">
        <ele>644</ele>
        <time>2012-06-14T14:13:32Z</time>
      </trkpt>
      <trkpt lat="45.48802" lon="5.53745">
        <ele>644</ele>
        <time>2012-06-14T14:13:37Z</time>
      </trkpt>
      <trkpt lat="45.48798" lon="5.5374">
        <ele>644</ele>
        <time>2012-06-14T14:13:42Z</time>
      </trkpt>
      <trkpt lat="45.48794" lon="5.53734">
        <ele>644</ele>
        <time>2012-06-14T14:13:47Z</time>
      </trkpt>
      <trkpt lat="45.4879" lon="5.53728">
        <ele>644</ele>
        <time>2012-06-14T14:13:52Z</time>
      </trkpt>
      <trkpt lat="45.48786" lon="5.53722">
        <ele>645</ele>
        <time>2012-06-14T14:13:57Z</time>
      </trkpt>
      <trkpt lat="45.48783" lon="5.53716">
        <ele>644</ele>
        <time>2012-06-14T14:14:02Z</time>
      </trkpt>
      <trkpt lat="45.48779" lon="5.5371">
        <ele>644</ele>
        <time>2012-06-14T14:14:07Z</time>
      </trkpt>
      <trkpt lat="45.48775" lon="5.53704">
        <ele>644</ele>
        <time>2012-06-14T14:14:12Z</time>
      </trkpt>
      <trkpt lat="45.48771" lon="5.53697">
        <ele>645</ele>
        <time>2012-06-14T14:14:17Z</time>
      </trkpt>
      <trkpt lat="45.48767" lon="5.5369">
        <ele>645</ele>
        <time>2012-06-14T14:14:22Z</time>
      </trkpt>
      <trkpt lat="45.48763" lon="5.53684">
        <ele>645</ele>
        <time>2012-06-14T14:14:27Z</time>
      </trkpt>
      <trkpt lat="45.4876" lon="5.53678">
        <ele>645</ele>
        <time>2012-06-14T14:14:33Z</time>
      </trkpt>
      <trkpt lat="45.48757" lon="5.53674">
        <ele>645</ele>
        <time>2012-06-14T14:14:38Z</time>
      </trkpt>
      <trkpt lat="45.48754" lon="5.53669">
        <ele>645</ele>
        <time>2012-06-14T14:14:43Z</time>
      </trkpt>
      <trkpt lat="45.4875" lon="5.53665">
        <ele>645</ele>
        <time>2012-06-14T14:14:48Z</time>
      </trkpt>
      <trkpt lat="45.48746" lon="5.5366">
        <ele>645</ele>
        <time>2012-06-14T14:14:53Z</time>
      </trkpt>
      <trkpt lat="45.48744" lon="5.53657">
        <ele>645</ele>
        <time>2012-06-14T14:14:58Z</time>
      </trkpt>
      <trkpt lat="45.4874" lon="5.53654">
        <ele>645</ele>
        <time>2012-06-14T14:15:03Z</time>
      </trkpt>
      <trkpt lat="45.48735" lon="5.5365">
        <ele>645</ele>
        <time>2012-06-14T14:15:08Z</time>
      </trkpt>
      <trkpt lat="45.48729" lon="5.53645">
        <ele>646</ele>
        <time>2012-06-14T14:15:13Z</time>
      </trkpt>
      <trkpt lat="45.48726" lon="5.5364">
        <ele>646</ele>
        <time>2012-06-14T14:15:18Z</time>
      </trkpt>
      <trkpt lat="45.48722" lon="5.53633">
        <ele>647</ele>
        <time>2012-06-14T14:15:23Z</time>
      </trkpt>
      <trkpt lat="45.4872" lon="5.53628">
        <ele>647</ele>
        <time>2012-06-14T14:15:28Z</time>
      </trkpt>
      <trkpt lat="45.48719" lon="5.53623">
        <ele>647</ele>
        <time>2012-06-14T14:15:33Z</time>
      </trkpt>
      <trkpt lat="45.48717" lon="5.53617">
        <ele>647</ele>
        <time>2012-06-14T14:15:38Z</time>
      </trkpt>
      <trkpt lat="45.48713" lon="5.53612">
        <ele>648</ele>
        <time>2012-06-14T14:15:43Z</time>
      </trkpt>
      <trkpt lat="45.48709" lon="5.53607">
        <ele>648</ele>
        <time>2012-06-14T14:15:48Z</time>
      </trkpt>
      <trkpt lat="45.48706" lon="5.53601">
        <ele>648</ele>
        <time>2012-06-14T14:15:53Z</time>
      </trkpt>
      <trkpt lat="45.48702" lon="5.53594">
        <ele>649</ele>
        <time>2012-06-14T14:15:58Z</time>
      </trkpt>
      <trkpt lat="45.48698" lon="5.53587">
        <ele>649</ele>
        <time>2012-06-14T14:16:03Z</time>
      </trkpt>
      <trkpt lat="45.48693" lon="5.53581">
        <ele>649</ele>
        <time>2012-06-14T14:16:08Z</time>
      </trkpt>
      <trkpt lat="45.48688" lon="5.53574">
        <ele>650</ele>
        <time>2012-06-14T14:16:14Z</time>
      </trkpt>
      <trkpt lat="45.48683" lon="5.53569">
        <ele>650</ele>
        <time>2012-06-14T14:16:19Z</time>
      </trkpt>
      <trkpt lat="45.48678" lon="5.53563">
        <ele>651</ele>
        <time>2012-06-14T14:16:24Z</time>
      </trkpt>
      <trkpt lat="45.48674" lon="5.53557">
        <ele>651</ele>
        <time>2012-06-14T14:16:29Z</time>
      </trkpt>
      <trkpt lat="45.48671" lon="5.53552">
        <ele>651</ele>
        <time>2012-06-14T14:16:34Z</time>
      </trkpt>
      <trkpt lat="45.48667" lon="5.53546">
        <ele>652</ele>
        <time>2012-06-14T14:16:39Z</time>
      </trkpt>
      <trkpt lat="45.48663" lon="5.53542">
        <ele>651</ele>
        <time>2012-06-14T14:16:44Z</time>
      </trkpt>
      <trkpt lat="45.48658" lon="5.53536">
        <ele>652</ele>
        <time>2012-06-14T14:16:49Z</time>
      </trkpt>
      <trkpt lat="45.48654" lon="5.53531">
        <ele>652</ele>
        <time>2012-06-14T14:16:54Z</time>
      </trkpt>
      <trkpt lat="45.4865" lon="5.53526">
        <ele>652</ele>
        <time>2012-06-14T14:16:59Z</time>
      </trkpt>
      <trkpt lat="45.48646" lon="5.53521">
        <ele>652</ele>
        <time>2012-06-14T14:17:04Z</time>
      </trkpt>
      <trkpt lat="45.48643" lon="5.53516">
        <ele>652</ele>
        <time>2012-06-14T14:17:09Z</time>
      </trkpt>
      <trkpt lat="45.48638" lon="5.5351">
        <ele>653</ele>
        <time>2012-06-14T14:17:14Z</time>
      </trkpt>
      <trkpt lat="45.48634" lon="5.53506">
        <ele>653</ele>
        <time>2012-06-14T14:17:19Z</time>
      </trkpt>
      <trkpt lat="45.48629" lon="5.53501">
        <ele>653</ele>
        <time>2012-06-14T14:17:24Z</time>
      </trkpt>
      <trkpt lat="45.48624" lon="5.53497">
        <ele>654</ele>
        <time>2012-06-14T14:17:30Z</time>
      </trkpt>
      <trkpt lat="45.48621" lon="5.53493">
        <ele>654</ele>
        <time>2012-06-14T14:17:35Z</time>
      </trkpt>
      <trkpt lat="45.48616" lon="5.53488">
        <ele>654</ele>
        <time>2012-06-14T14:17:40Z</time>
      </trkpt>
      <trkpt lat="45.48611" lon="5.53485">
        <ele>654</ele>
        <time>2012-06-14T14:17:45Z</time>
      </trkpt>
      <trkpt lat="45.48608" lon="5.53481">
        <ele>654</ele>
        <time>2012-06-14T14:17:50Z</time>
      </trkpt>
      <trkpt lat="45.48605" lon="5.53478">
        <ele>655</ele>
        <time>2012-06-14T14:17:55Z</time>
      </trkpt>
      <trkpt lat="45.48603" lon="5.53476">
        <ele>655</ele>
        <time>2012-06-14T14:18:00Z</time>
      </trkpt>
      <trkpt lat="45.486" lon="5.53472">
        <ele>656</ele>
        <time>2012-06-14T14:18:05Z</time>
      </trkpt>
      <trkpt lat="45.48597" lon="5.53468">
        <ele>656</ele>
        <time>2012-06-14T14:18:10Z</time>
      </trkpt>
      <trkpt lat="45.48594" lon="5.53465">
        <ele>656</ele>
        <time>2012-06-14T14:18:15Z</time>
      </trkpt>
      <trkpt lat="45.48591" lon="5.53463">
        <ele>657</ele>
        <time>2012-06-14T14:18:20Z</time>
      </trkpt>
      <trkpt lat="45.48587" lon="5.53461">
        <ele>657</ele>
        <time>2012-06-14T14:18:25Z</time>
      </trkpt>
      <trkpt lat="45.48586" lon="5.5346">
        <ele>657</ele>
        <time>2012-06-14T14:18:31Z</time>
      </trkpt>
      <trkpt lat="45.48583" lon="5.53456">
        <ele>658</ele>
        <time>2012-06-14T14:18:36Z</time>
      </trkpt>
      <trkpt lat="45.48579" lon="5.53453">
        <ele>658</ele>
        <time>2012-06-14T14:18:41Z</time>
      </trkpt>
      <trkpt lat="45.48575" lon="5.5345">
        <ele>658</ele>
        <time>2012-06-14T14:18:46Z</time>
      </trkpt>
      <trkpt lat="45.4857" lon="5.53447">
        <ele>658</ele>
        <time>2012-06-14T14:18:51Z</time>
      </trkpt>
      <trkpt lat="45.48565" lon="5.53445">
        <ele>658</ele>
        <time>2012-06-14T14:18:56Z</time>
      </trkpt>
      <trkpt lat="45.48559" lon="5.53441">
        <ele>659</ele>
        <time>2012-06-14T14:19:01Z</time>
      </trkpt>
      <trkpt lat="45.48554" lon="5.53438">
        <ele>659</ele>
        <time>2012-06-14T14:19:06Z</time>
      </trkpt>
      <trkpt lat="45.48548" lon="5.53435">
        <ele>659</ele>
        <time>2012-06-14T14:19:11Z</time>
      </trkpt>
      <trkpt lat="45.48543" lon="5.53433">
        <ele>659</ele>
        <time>2012-06-14T14:19:16Z</time>
      </trkpt>
      <trkpt lat="45.48539" lon="5.5343">
        <ele>659</ele>
        <time>2012-06-14T14:19:21Z</time>
      </trkpt>
      <trkpt lat="45.48536" lon="5.53427">
        <ele>659</ele>
        <time>2012-06-14T14:19:26Z</time>
      </trkpt>
      <trkpt lat="45.48533" lon="5.53424">
        <ele>659</ele>
        <time>2012-06-14T14:19:32Z</time>
      </trkpt>
      <trkpt lat="45.48532" lon="5.53422">
        <ele>659</ele>
        <time>2012-06-14T14:19:37Z</time>
      </trkpt>
      <trkpt lat="45.48531" lon="5.53422">
        <ele>659</ele>
        <time>2012-06-14T14:19:42Z</time>
      </trkpt>
      <trkpt lat="45.4853" lon="5.53421">
        <ele>660</ele>
        <time>2012-06-14T14:19:47Z</time>
      </trkpt>
      <trkpt lat="45.48529" lon="5.53421">
        <ele>659</ele>
        <time>2012-06-14T14:19:52Z</time>
      </trkpt>
      <trkpt lat="45.48528" lon="5.5342">
        <ele>659</ele>
        <time>2012-06-14T14:19:57Z</time>
      </trkpt>
      <trkpt lat="45.48527" lon="5.5342">
        <ele>659</ele>
        <time>2012-06-14T14:20:02Z</time>
      </trkpt>
      <trkpt lat="45.48525" lon="5.53419">
        <ele>659</ele>
        <time>2012-06-14T14:20:07Z</time>
      </trkpt>
      <trkpt lat="45.48526" lon="5.53419">
        <ele>659</ele>
        <time>2012-06-14T14:20:12Z</time>
      </trkpt>
      <trkpt lat="45.48526" lon="5.53418">
        <ele>659</ele>
        <time>2012-06-14T14:20:17Z</time>
      </trkpt>
      <trkpt lat="45.48525" lon="5.53417">
        <ele>659</ele>
        <time>2012-06-14T14:20:22Z</time>
      </trkpt>
      <trkpt lat="45.48524" lon="5.53416">
        <ele>659</ele>
        <time>2012-06-14T14:20:27Z</time>
      </trkpt>
      <trkpt lat="45.48522" lon="5.53415">
        <ele>659</ele>
        <time>2012-06-14T14:20:32Z</time>
      </trkpt>
      <trkpt lat="45.4852" lon="5.53412">
        <ele>659</ele>
        <time>2012-06-14T14:20:37Z</time>
      </trkpt>
      <trkpt lat="45.48515" lon="5.53409">
        <ele>659</ele>
        <time>2012-06-14T14:20:42Z</time>
      </trkpt>
      <trkpt lat="45.4851" lon="5.53405">
        <ele>659</ele>
        <time>2012-06-14T14:20:47Z</time>
      </trkpt>
      <trkpt lat="45.48505" lon="5.53402">
        <ele>659</ele>
        <time>2012-06-14T14:20:53Z</time>
      </trkpt>
      <trkpt lat="45.48502" lon="5.53399">
        <ele>659</ele>
        <time>2012-06-14T14:20:58Z</time>
      </trkpt>
      <trkpt lat="45.48497" lon="5.53395">
        <ele>659</ele>
        <time>2012-06-14T14:21:03Z</time>
      </trkpt>
      <trkpt lat="45.48492" lon="5.53391">
        <ele>660</ele>
        <time>2012-06-14T14:21:08Z</time>
      </trkpt>
      <trkpt lat="45.48488" lon="5.53387">
        <ele>660</ele>
        <time>2012-06-14T14:21:13Z</time>
      </trkpt>
      <trkpt lat="45.48484" lon="5.53385">
        <ele>659</ele>
        <time>2012-06-14T14:21:18Z</time>
      </trkpt>
      <trkpt lat="45.48481" lon="5.53382">
        <ele>659</ele>
        <time>2012-06-14T14:21:23Z</time>
      </trkpt>
      <trkpt lat="45.4848" lon="5.53379">
        <ele>660</ele>
        <time>2012-06-14T14:21:28Z</time>
      </trkpt>
      <trkpt lat="45.48478" lon="5.53377">
        <ele>660</ele>
        <time>2012-06-14T14:21:33Z</time>
      </trkpt>
      <trkpt lat="45.48476" lon="5.53374">
        <ele>660</ele>
        <time>2012-06-14T14:21:38Z</time>
      </trkpt>
      <trkpt lat="45.48473" lon="5.53369">
        <ele>660</ele>
        <time>2012-06-14T14:21:43Z</time>
      </trkpt>
      <trkpt lat="45.48467" lon="5.53363">
        <ele>660</ele>
        <time>2012-06-14T14:21:48Z</time>
      </trkpt>
      <trkpt lat="45.48462" lon="5.53358">
        <ele>660</ele>
        <time>2012-06-14T14:21:53Z</time>
      </trkpt>
      <trkpt lat="45.48457" lon="5.53354">
        <ele>660</ele>
        <time>2012-06-14T14:21:58Z</time>
      </trkpt>
      <trkpt lat="45.48452" lon="5.53349">
        <ele>660</ele>
        <time>2012-06-14T14:22:03Z</time>
      </trkpt>
      <trkpt lat="45.48447" lon="5.53345">
        <ele>660</ele>
        <time>2012-06-14T14:22:09Z</time>
      </trkpt>
      <trkpt lat="45.48443" lon="5.5334">
        <ele>659</ele>
        <time>2012-06-14T14:22:14Z</time>
      </trkpt>
      <trkpt lat="45.48439" lon="5.53335">
        <ele>660</ele>
        <time>2012-06-14T14:22:19Z</time>
      </trkpt>
      <trkpt lat="45.48434" lon="5.53331">
        <ele>660</ele>
        <time>2012-06-14T14:22:24Z</time>
      </trkpt>
      <trkpt lat="45.4843" lon="5.53327">
        <ele>660</ele>
        <time>2012-06-14T14:22:29Z</time>
      </trkpt>
      <trkpt lat="45.48427" lon="5.53322">
        <ele>660</ele>
        <time>2012-06-14T14:22:34Z</time>
      </trkpt>
      <trkpt lat="45.48424" lon="5.53319">
        <ele>659</ele>
        <time>2012-06-14T14:22:39Z</time>
      </trkpt>
      <trkpt lat="45.4842" lon="5.53315">
        <ele>660</ele>
        <time>2012-06-14T14:22:44Z</time>
      </trkpt>
      <trkpt lat="45.48417" lon="5.53312">
        <ele>659</ele>
        <time>2012-06-14T14:22:49Z</time>
      </trkpt>
      <trkpt lat="45.48413" lon="5.53308">
        <ele>660</ele>
        <time>2012-06-14T14:22:54Z</time>
      </trkpt>
      <trkpt lat="45.4841" lon="5.53304">
        <ele>660</ele>
        <time>2012-06-14T14:22:59Z</time>
      </trkpt>
      <trkpt lat="45.48406" lon="5.533">
        <ele>660</ele>
        <time>2012-06-14T14:23:04Z</time>
      </trkpt>
      <trkpt lat="45.48402" lon="5.53297">
        <ele>660</ele>
        <time>2012-06-14T14:23:09Z</time>
      </trkpt>
      <trkpt lat="45.48397" lon="5.53291">
        <ele>660</ele>
        <time>2012-06-14T14:23:14Z</time>
      </trkpt>
      <trkpt lat="45.48393" lon="5.53287">
        <ele>660</ele>
        <time>2012-06-14T14:23:19Z</time>
      </trkpt>
      <trkpt lat="45.48389" lon="5.53283">
        <ele>660</ele>
        <time>2012-06-14T14:23:24Z</time>
      </trkpt>
      <trkpt lat="45.48384" lon="5.53278">
        <ele>660</ele>
        <time>2012-06-14T14:23:30Z</time>
      </trkpt>
      <trkpt lat="45.4838" lon="5.53273">
        <ele>660</ele>
        <time>2012-06-14T14:23:35Z</time>
      </trkpt>
      <trkpt lat="45.48376" lon="5.53268">
        <ele>660</ele>
        <time>2012-06-14T14:23:40Z</time>
      </trkpt>
      <trkpt lat="45.48372" lon="5.53264">
        <ele>660</ele>
        <time>2012-06-14T14:23:45Z</time>
      </trkpt>
      <trkpt lat="45.48368" lon="5.53259">
        <ele>660</ele>
        <time>2012-06-14T14:23:50Z</time>
      </trkpt>
      <trkpt lat="45.48365" lon="5.53254">
        <ele>660</ele>
        <time>2012-06-14T14:23:55Z</time>
      </trkpt>
      <trkpt lat="45.48361" lon="5.53248">
        <ele>660</ele>
        <time>2012-06-14T14:24:00Z</time>
      </trkpt>
      <trkpt lat="45.48357" lon="5.53242">
        <ele>661</ele>
        <time>2012-06-14T14:24:05Z</time>
      </trkpt>
      <trkpt lat="45.48354" lon="5.53237">
        <ele>661</ele>
        <time>2012-06-14T14:24:10Z</time>
      </trkpt>
      <trkpt lat="45.48352" lon="5.53233">
        <ele>661</ele>
        <time>2012-06-14T14:24:15Z</time>
      </trkpt>
      <trkpt lat="45.48352" lon="5.53232">
        <ele>660</ele>
        <time>2012-06-14T14:24:20Z</time>
      </trkpt>
      <trkpt lat="45.48352" lon="5.53232">
        <ele>660</ele>
        <time>2012-06-14T14:24:25Z</time>
      </trkpt>
      <trkpt lat="45.48352" lon="5.53231">
        <ele>660</ele>
        <time>2012-06-14T14:24:30Z</time>
      </trkpt>
      <trkpt lat="45.48353" lon="5.53232">
        <ele>660</ele>
        <time>2012-06-14T14:24:35Z</time>
      </trkpt>
      <trkpt lat="45.48352" lon="5.53231">
        <ele>660</ele>
        <time>2012-06-14T14:24:41Z</time>
      </trkpt>
      <trkpt lat="45.48352" lon="5.53231">
        <ele>661</ele>
        <time>2012-06-14T14:24:46Z</time>
      </trkpt>
      <trkpt lat="45.48352" lon="5.53231">
        <ele>661</ele>
        <time>2012-06-14T14:24:51Z</time>
      </trkpt>
      <trkpt lat="45.48351" lon="5.53231">
        <ele>661</ele>
        <time>2012-06-14T14:24:56Z</time>
      </trkpt>
      <trkpt lat="45.48351" lon="5.53231">
        <ele>661</ele>
        <time>2012-06-14T14:25:01Z</time>
      </trkpt>
      <trkpt lat="45.48351" lon="5.5323">
        <ele>660</ele>
        <time>2012-06-14T14:25:06Z</time>
      </trkpt>
      <trkpt lat="45.48351" lon="5.5323">
        <ele>660</ele>
        <time>2012-06-14T14:25:11Z</time>
      </trkpt>
      <trkpt lat="45.4835" lon="5.5323">
        <ele>660</ele>
        <time>2012-06-14T14:25:16Z</time>
      </trkpt>
      <trkpt lat="45.4835" lon="5.5323">
        <ele>660</ele>
        <time>2012-06-14T14:25:21Z</time>
      </trkpt>
      <trkpt lat="45.48351" lon="5.5323">
        <ele>660</ele>
        <time>2012-06-14T14:25:26Z</time>
      </trkpt>
      <trkpt lat="45.48351" lon="5.53232">
        <ele>660</ele>
        <time>2012-06-14T14:25:31Z</time>
      </trkpt>
      <trkpt lat="45.48351" lon="5.53232">
        <ele>660</ele>
        <time>2012-06-14T14:25:36Z</time>
      </trkpt>
      <trkpt lat="45.48352" lon="5.53233">
        <ele>660</ele>
        <time>2012-06-14T14:25:41Z</time>
      </trkpt>
      <trkpt lat="45.48352" lon="5.53233">
        <ele>660</ele>
        <time>2012-06-14T14:25:46Z</time>
      </trkpt>
      <trkpt lat="45.48352" lon="5.53233">
        <ele>660</ele>
        <time>2012-06-14T14:25:52Z</time>
      </trkpt>
      <trkpt lat="45.48353" lon="5.53234">
        <ele>660</ele>
        <time>2012-06-14T14:25:57Z</time>
      </trkpt>
      <trkpt lat="45.48353" lon="5.53234">
        <ele>660</ele>
        <time>2012-06-14T14:26:02Z</time>
      </trkpt>
      <trkpt lat="45.48352" lon="5.53234">
        <ele>660</ele>
        <time>2012-06-14T14:26:07Z</time>
      </trkpt>
      <trkpt lat="45.48352" lon="5.53234">
        <ele>660</ele>
        <time>2012-06-14T14:26:12Z</time>
      </trkpt>
      <trkpt lat="45.48352" lon="5.53234">
        <ele>660</ele>
        <time>2012-06-14T14:26:17Z</time>
      </trkpt>
      <trkpt lat="45.48352" lon="5.53234">
        <ele>660</ele>
        <time>2012-06-14T14:26:22Z</time>
      </trkpt>
      <trkpt lat="45.48352" lon="5.53234">
        <ele>660</ele>
        <time>2012-06-14T14:26:27Z</time>
      </trkpt>
      <trkpt lat="45.4835" lon="5.53229">
        <ele>660</ele>
        <time>2012-06-14T14:26:32Z</time>
      </trkpt>
      <trkpt lat="45.48347" lon="5.53225">
        <ele>660</ele>
        <time>2012-06-14T14:26:37Z</time>
      </trkpt>
      <trkpt lat="45.48345" lon="5.53222">
        <ele>661</ele>
        <time>2012-06-14T14:26:42Z</time>
      </trkpt>
      <trkpt lat="45.48344" lon="5.53219">
        <ele>661</ele>
        <time>2012-06-14T14:26:47Z</time>
      </trkpt>
      <trkpt lat="45.48341" lon="5.53214">
        <ele>661</ele>
        <time>2012-06-14T14:26:52Z</time>
      </trkpt>
      <trkpt lat="45.48338" lon="5.53208">
        <ele>661</ele>
        <time>2012-06-14T14:26:57Z</time>
      </trkpt>
      <trkpt lat="45.48335" lon="5.53204">
        <ele>661</ele>
        <time>2012-06-14T14:27:02Z</time>
      </trkpt>
      <trkpt lat="45.48332" lon="5.53199">
        <ele>660</ele>
        <time>2012-06-14T14:27:07Z</time>
      </trkpt>
      <trkpt lat="45.48328" lon="5.53194">
        <ele>660</ele>
        <time>2012-06-14T14:27:13Z</time>
      </trkpt>
      <trkpt lat="45.48325" lon="5.53189">
        <ele>660</ele>
        <time>2012-06-14T14:27:18Z</time>
      </trkpt>
      <trkpt lat="45.48321" lon="5.53184">
        <ele>660</ele>
        <time>2012-06-14T14:27:23Z</time>
      </trkpt>
      <trkpt lat="45.48317" lon="5.5318">
        <ele>660</ele>
        <time>2012-06-14T14:27:28Z</time>
      </trkpt>
      <trkpt lat="45.48313" lon="5.53176">
        <ele>660</ele>
        <time>2012-06-14T14:27:33Z</time>
      </trkpt>
      <trkpt lat="45.4831" lon="5.53172">
        <ele>660</ele>
        <time>2012-06-14T14:27:38Z</time>
      </trkpt>
      <trkpt lat="45.48306" lon="5.53168">
        <ele>660</ele>
        <time>2012-06-14T14:27:43Z</time>
      </trkpt>
      <trkpt lat="45.48301" lon="5.53164">
        <ele>660</ele>
        <time>2012-06-14T14:27:48Z</time>
      </trkpt>
      <trkpt lat="45.48299" lon="5.53161">
        <ele>660</ele>
        <time>2012-06-14T14:27:53Z</time>
      </trkpt>
      <trkpt lat="45.48296" lon="5.5316">
        <ele>660</ele>
        <time>2012-06-14T14:27:58Z</time>
      </trkpt>
      <trkpt lat="45.48292" lon="5.53156">
        <ele>660</ele>
        <time>2012-06-14T14:28:03Z</time>
      </trkpt>
      <trkpt lat="45.48288" lon="5.53152">
        <ele>661</ele>
        <time>2012-06-14T14:28:08Z</time>
      </trkpt>
      <trkpt lat="45.48283" lon="5.53148">
        <ele>661</ele>
        <time>2012-06-14T14:28:14Z</time>
      </trkpt>
      <trkpt lat="45.48279" lon="5.53144">
        <ele>661</ele>
        <time>2012-06-14T14:28:19Z</time>
      </trkpt>
      <trkpt lat="45.48275" lon="5.5314">
        <ele>661</ele>
        <time>2012-06-14T14:28:24Z</time>
      </trkpt>
      <trkpt lat="45.4827" lon="5.53137">
        <ele>661</ele>
        <time>2012-06-14T14:28:29Z</time>
      </trkpt>
      <trkpt lat="45.48265" lon="5.53134">
        <ele>660</ele>
        <time>2012-06-14T14:28:34Z</time>
      </trkpt>
      <trkpt lat="45.48262" lon="5.5313">
        <ele>661</ele>
        <time>2012-06-14T14:28:39Z</time>
      </trkpt>
      <trkpt lat="45.4826" lon="5.53129">
        <ele>661</ele>
        <time>2012-06-14T14:28:44Z</time>
      </trkpt>
      <trkpt lat="45.48256" lon="5.53126">
        <ele>661</ele>
        <time>2012-06-14T14:28:49Z</time>
      </trkpt>
      <trkpt lat="45.48252" lon="5.53122">
        <ele>661</ele>
        <time>2012-06-14T14:28:54Z</time>
      </trkpt>
      <trkpt lat="45.48248" lon="5.53119">
        <ele>661</ele>
        <time>2012-06-14T14:28:59Z</time>
      </trkpt>
      <trkpt lat="45.48242" lon="5.53116">
        <ele>661</ele>
        <time>2012-06-14T14:29:04Z</time>
      </trkpt>
      <trkpt lat="45.48236" lon="5.53113">
        <ele>662</ele>
        <time>2012-06-14T14:29:09Z</time>
      </trkpt>
      <trkpt lat="45.48232" lon="5.53111">
        <ele>662</ele>
        <time>2012-06-14T14:29:14Z</time>
      </trkpt>
      <trkpt lat="45.48227" lon="5.53108">
        <ele>662</ele>
        <time>2012-06-14T14:29:19Z</time>
      </trkpt>
      <trkpt lat="45.48222" lon="5.53104">
        <ele>662</ele>
        <time>2012-06-14T14:29:24Z</time>
      </trkpt>
      <trkpt lat="45.48217" lon="5.53101">
        <ele>662</ele>
        <time>2012-06-14T14:29:30Z</time>
      </trkpt>
      <trkpt lat="45.48211" lon="5.531">
        <ele>663</ele>
        <time>2012-06-14T14:29:35Z</time>
      </trkpt>
      <trkpt lat="45.48206" lon="5.53101">
        <ele>663</ele>
        <time>2012-06-14T14:29:40Z</time>
      </trkpt>
      <trkpt lat="45.48203" lon="5.53105">
        <ele>663</ele>
        <time>2012-06-14T14:29:45Z</time>
      </trkpt>
      <trkpt lat="45.48199" lon="5.5311">
        <ele>663</ele>
        <time>2012-06-14T14:29:50Z</time>
      </trkpt>
      <trkpt lat="45.48196" lon="5.53113">
        <ele>664</ele>
        <time>2012-06-14T14:29:55Z</time>
      </trkpt>
      <trkpt lat="45.4819" lon="5.53113">
        <ele>664</ele>
        <time>2012-06-14T14:30:00Z</time>
      </trkpt>
      <trkpt lat="45.48185" lon="5.53112">
        <ele>665</ele>
        <time>2012-06-14T14:30:05Z</time>
      </trkpt>
      <trkpt lat="45.48179" lon="5.53109">
        <ele>665</ele>
        <time>2012-06-14T14:30:10Z</time>
      </trkpt>
      <trkpt lat="45.48175" lon="5.53105">
        <ele>665</ele>
        <time>2012-06-14T14:30:15Z</time>
      </trkpt>
      <trkpt lat="45.4817" lon="5.53103">
        <ele>665</ele>
        <time>2012-06-14T14:30:20Z</time>
      </trkpt>
      <trkpt lat="45.48166" lon="5.531">
        <ele>666</ele>
        <time>2012-06-14T14:30:25Z</time>
      </trkpt>
      <trkpt lat="45.48162" lon="5.53096">
        <ele>666</ele>
        <time>2012-06-14T14:30:30Z</time>
      </trkpt>
      <trkpt lat="45.48158" lon="5.53093">
        <ele>666</ele>
        <time>2012-06-14T14:30:36Z</time>
      </trkpt>
      <trkpt lat="45.48153" lon="5.5309">
        <ele>666</ele>
        <time>2012-06-14T14:30:41Z</time>
      </trkpt>
      <trkpt lat="45.48149" lon="5.53086">
        <ele>667</ele>
        <time>2012-06-14T14:30:46Z</time>
      </trkpt>
      <trkpt lat="45.48146" lon="5.53083">
        <ele>667</ele>
        <time>2012-06-14T14:30:51Z</time>
      </trkpt>
      <trkpt lat="45.48142" lon="5.5308">
        <ele>667</ele>
        <time>2012-06-14T14:30:56Z</time>
      </trkpt>
      <trkpt lat="45.48138" lon="5.53077">
        <ele>667</ele>
        <time>2012-06-14T14:31:01Z</time>
      </trkpt>
      <trkpt lat="45.48133" lon="5.53074">
        <ele>667</ele>
        <time>2012-06-14T14:31:06Z</time>
      </trkpt>
      <trkpt lat="45.48129" lon="5.53071">
        <ele>666</ele>
        <time>2012-06-14T14:31:11Z</time>
      </trkpt>
      <trkpt lat="45.48124" lon="5.53066">
        <ele>667</ele>
        <time>2012-06-14T14:31:16Z</time>
      </trkpt>
      <trkpt lat="45.48119" lon="5.53063">
        <ele>667</ele>
        <time>2012-06-14T14:31:21Z</time>
      </trkpt>
      <trkpt lat="45.48115" lon="5.53058">
        <ele>667</ele>
        <time>2012-06-14T14:31:26Z</time>
      </trkpt>
      <trkpt lat="45.48111" lon="5.53055">
        <ele>667</ele>
        <time>2012-06-14T14:31:32Z</time>
      </trkpt>
      <trkpt lat="45.48106" lon="5.53051">
        <ele>667</ele>
        <time>2012-06-14T14:31:37Z</time>
      </trkpt>
      <trkpt lat="45.48102" lon="5.53047">
        <ele>668</ele>
        <time>2012-06-14T14:31:42Z</time>
      </trkpt>
      <trkpt lat="45.48098" lon="5.53043">
        <ele>668</ele>
        <time>2012-06-14T14:31:47Z</time>
      </trkpt>
      <trkpt lat="45.48093" lon="5.53039">
        <ele>668</ele>
        <time>2012-06-14T14:31:52Z</time>
      </trkpt>
      <trkpt lat="45.48089" lon="5.53035">
        <ele>668</ele>
        <time>2012-06-14T14:31:57Z</time>
      </trkpt>
      <trkpt lat="45.48085" lon="5.53031">
        <ele>668</ele>
        <time>2012-06-14T14:32:02Z</time>
      </trkpt>
      <trkpt lat="45.4808" lon="5.53027">
        <ele>668</ele>
        <time>2012-06-14T14:32:07Z</time>
      </trkpt>
      <trkpt lat="45.48075" lon="5.53023">
        <ele>667</ele>
        <time>2012-06-14T14:32:12Z</time>
      </trkpt>
      <trkpt lat="45.48071" lon="5.53018">
        <ele>668</ele>
        <time>2012-06-14T14:32:17Z</time>
      </trkpt>
      <trkpt lat="45.48066" lon="5.53016">
        <ele>668</ele>
        <time>2012-06-14T14:32:22Z</time>
      </trkpt>
      <trkpt lat="45.48062" lon="5.53011">
        <ele>668</ele>
        <time>2012-06-14T14:32:27Z</time>
      </trkpt>
      <trkpt lat="45.48058" lon="5.53007">
        <ele>667</ele>
        <time>2012-06-14T14:32:32Z</time>
      </trkpt>
      <trkpt lat="45.48054" lon="5.53002">
        <ele>668</ele>
        <time>2012-06-14T14:32:37Z</time>
      </trkpt>
      <trkpt lat="45.48049" lon="5.52997">
        <ele>668</ele>
        <time>2012-06-14T14:32:42Z</time>
      </trkpt>
      <trkpt lat="45.48045" lon="5.52992">
        <ele>668</ele>
        <time>2012-06-14T14:32:47Z</time>
      </trkpt>
      <trkpt lat="45.48041" lon="5.52988">
        <ele>668</ele>
        <time>2012-06-14T14:32:52Z</time>
      </trkpt>
      <trkpt lat="45.48036" lon="5.52981">
        <ele>668</ele>
        <time>2012-06-14T14:32:57Z</time>
      </trkpt>
      <trkpt lat="45.48035" lon="5.52977">
        <ele>668</ele>
        <time>2012-06-14T14:33:02Z</time>
      </trkpt>
      <trkpt lat="45.48032" lon="5.52974">
        <ele>667</ele>
        <time>2012-06-14T14:33:07Z</time>
      </trkpt>
      <trkpt lat="45.48032" lon="5.52973">
        <ele>667</ele>
        <time>2012-06-14T14:33:12Z</time>
      </trkpt>
      <trkpt lat="45.48031" lon="5.52972">
        <ele>667</ele>
        <time>2012-06-14T14:33:18Z</time>
      </trkpt>
      <trkpt lat="45.4803" lon="5.52969">
        <ele>667</ele>
        <time>2012-06-14T14:33:23Z</time>
      </trkpt>
      <trkpt lat="45.48031" lon="5.52969">
        <ele>667</ele>
        <time>2012-06-14T14:33:28Z</time>
      </trkpt>
      <trkpt lat="45.48032" lon="5.52969">
        <ele>667</ele>
        <time>2012-06-14T14:33:33Z</time>
      </trkpt>
      <trkpt lat="45.48031" lon="5.52967">
        <ele>667</ele>
        <time>2012-06-14T14:33:38Z</time>
      </trkpt>
      <trkpt lat="45.48028" lon="5.52962">
        <ele>667</ele>
        <time>2012-06-14T14:33:43Z</time>
      </trkpt>
      <trkpt lat="45.48024" lon="5.52959">
        <ele>667</ele>
        <time>2012-06-14T14:33:48Z</time>
      </trkpt>
      <trkpt lat="45.48021" lon="5.52955">
        <ele>667</ele>
        <time>2012-06-14T14:33:53Z</time>
      </trkpt>
      <trkpt lat="45.48018" lon="5.52951">
        <ele>666</ele>
        <time>2012-06-14T14:33:58Z</time>
      </trkpt>
      <trkpt lat="45.48013" lon="5.52948">
        <ele>666</ele>
        <time>2012-06-14T14:34:03Z</time>
      </trkpt>
      <trkpt lat="45.48009" lon="5.52943">
        <ele>666</ele>
        <time>2012-06-14T14:34:08Z</time>
      </trkpt>
      <trkpt lat="45.48006" lon="5.52939">
        <ele>666</ele>
        <time>2012-06-14T14:34:13Z</time>
      </trkpt>
      <trkpt lat="45.48003" lon="5.52935">
        <ele>666</ele>
        <time>2012-06-14T14:34:18Z</time>
      </trkpt>
      <trkpt lat="45.47998" lon="5.5293">
        <ele>665</ele>
        <time>2012-06-14T14:34:23Z</time>
      </trkpt>
      <trkpt lat="45.47992" lon="5.52925">
        <ele>665</ele>
        <time>2012-06-14T14:34:28Z</time>
      </trkpt>
      <trkpt lat="45.47987" lon="5.5292">
        <ele>665</ele>
        <time>2012-06-14T14:34:33Z</time>
      </trkpt>
      <trkpt lat="45.47982" lon="5.52917">
        <ele>665</ele>
        <time>2012-06-14T14:34:38Z</time>
      </trkpt>
      <trkpt lat="45.47978" lon="5.52913">
        <ele>665</ele>
        <time>2012-06-14T14:34:43Z</time>
      </trkpt>
      <trkpt lat="45.47973" lon="5.52909">
        <ele>666</ele>
        <time>2012-06-14T14:34:48Z</time>
      </trkpt>
      <trkpt lat="45.47969" lon="5.52905">
        <ele>666</ele>
        <time>2012-06-14T14:34:53Z</time>
      </trkpt>
      <trkpt lat="45.47966" lon="5.52902">
        <ele>665</ele>
        <time>2012-06-14T14:34:59Z</time>
      </trkpt>
      <trkpt lat="45.47962" lon="5.52897">
        <ele>665</ele>
        <time>2012-06-14T14:35:04Z</time>
      </trkpt>
      <trkpt lat="45.47959" lon="5.52893">
        <ele>665</ele>
        <time>2012-06-14T14:35:09Z</time>
      </trkpt>
      <trkpt lat="45.47956" lon="5.52887">
        <ele>666</ele>
        <time>2012-06-14T14:35:14Z</time>
      </trkpt>
      <trkpt lat="45.47953" lon="5.52884">
        <ele>666</ele>
        <time>2012-06-14T14:35:19Z</time>
      </trkpt>
      <trkpt lat="45.47951" lon="5.5288">
        <ele>665</ele>
        <time>2012-06-14T14:35:24Z</time>
      </trkpt>
      <trkpt lat="45.47948" lon="5.52877">
        <ele>665</ele>
        <time>2012-06-14T14:35:29Z</time>
      </trkpt>
      <trkpt lat="45.47945" lon="5.52872">
        <ele>666</ele>
        <time>2012-06-14T14:35:34Z</time>
      </trkpt>
      <trkpt lat="45.4794" lon="5.52868">
        <ele>666</ele>
        <time>2012-06-14T14:35:39Z</time>
      </trkpt>
      <trkpt lat="45.47936" lon="5.52865">
        <ele>666</ele>
        <time>2012-06-14T14:35:44Z</time>
      </trkpt>
      <trkpt lat="45.47931" lon="5.52861">
        <ele>666</ele>
        <time>2012-06-14T14:35:49Z</time>
      </trkpt>
      <trkpt lat="45.47927" lon="5.52858">
        <ele>667</ele>
        <time>2012-06-14T14:35:54Z</time>
      </trkpt>
      <trkpt lat="45.4792" lon="5.52857">
        <ele>668</ele>
        <time>2012-06-14T14:35:59Z</time>
      </trkpt>
      <trkpt lat="45.47915" lon="5.52856">
        <ele>669</ele>
        <time>2012-06-14T14:36:05Z</time>
      </trkpt>
      <trkpt lat="45.4791" lon="5.52856">
        <ele>670</ele>
        <time>2012-06-14T14:36:10Z</time>
      </trkpt>
      <trkpt lat="45.47904" lon="5.52856">
        <ele>670</ele>
        <time>2012-06-14T14:36:15Z</time>
      </trkpt>
      <trkpt lat="45.47899" lon="5.52855">
        <ele>671</ele>
        <time>2012-06-14T14:36:20Z</time>
      </trkpt>
      <trkpt lat="45.47893" lon="5.52854">
        <ele>672</ele>
        <time>2012-06-14T14:36:25Z</time>
      </trkpt>
      <trkpt lat="45.47888" lon="5.52854">
        <ele>673</ele>
        <time>2012-06-14T14:36:30Z</time>
      </trkpt>
      <trkpt lat="45.47882" lon="5.52853">
        <ele>673</ele>
        <time>2012-06-14T14:36:35Z</time>
      </trkpt>
      <trkpt lat="45.47877" lon="5.52851">
        <ele>673</ele>
        <time>2012-06-14T14:36:40Z</time>
      </trkpt>
      <trkpt lat="45.47871" lon="5.5285">
        <ele>674</ele>
        <time>2012-06-14T14:36:45Z</time>
      </trkpt>
      <trkpt lat="45.47866" lon="5.5285">
        <ele>675</ele>
        <time>2012-06-14T14:36:50Z</time>
      </trkpt>
      <trkpt lat="45.47861" lon="5.52849">
        <ele>675</ele>
        <time>2012-06-14T14:36:55Z</time>
      </trkpt>
      <trkpt lat="45.47858" lon="5.5285">
        <ele>676</ele>
        <time>2012-06-14T14:37:00Z</time>
      </trkpt>
      <trkpt lat="45.47855" lon="5.52851">
        <ele>677</ele>
        <time>2012-06-14T14:37:06Z</time>
      </trkpt>
      <trkpt lat="45.47851" lon="5.52851">
        <ele>677</ele>
        <time>2012-06-14T14:37:11Z</time>
      </trkpt>
      <trkpt lat="45.47848" lon="5.52851">
        <ele>677</ele>
        <time>2012-06-14T14:37:16Z</time>
      </trkpt>
      <trkpt lat="45.47845" lon="5.52851">
        <ele>678</ele>
        <time>2012-06-14T14:37:21Z</time>
      </trkpt>
      <trkpt lat="45.47839" lon="5.52851">
        <ele>678</ele>
        <time>2012-06-14T14:37:26Z</time>
      </trkpt>
      <trkpt lat="45.47834" lon="5.5285">
        <ele>679</ele>
        <time>2012-06-14T14:37:31Z</time>
      </trkpt>
      <trkpt lat="45.47829" lon="5.52848">
        <ele>680</ele>
        <time>2012-06-14T14:37:36Z</time>
      </trkpt>
      <trkpt lat="45.47825" lon="5.52847">
        <ele>681</ele>
        <time>2012-06-14T14:37:41Z</time>
      </trkpt>
      <trkpt lat="45.4782" lon="5.52846">
        <ele>682</ele>
        <time>2012-06-14T14:37:46Z</time>
      </trkpt>
      <trkpt lat="45.47818" lon="5.52845">
        <ele>681</ele>
        <time>2012-06-14T14:37:51Z</time>
      </trkpt>
      <trkpt lat="45.47817" lon="5.52844">
        <ele>681</ele>
        <time>2012-06-14T14:37:56Z</time>
      </trkpt>
      <trkpt lat="45.47813" lon="5.5284">
        <ele>682</ele>
        <time>2012-06-14T14:38:01Z</time>
      </trkpt>
      <trkpt lat="45.47812" lon="5.52838">
        <ele>682</ele>
        <time>2012-06-14T14:38:06Z</time>
      </trkpt>
      <trkpt lat="45.47811" lon="5.52835">
        <ele>682</ele>
        <time>2012-06-14T14:38:11Z</time>
      </trkpt>
      <trkpt lat="45.47811" lon="5.52834">
        <ele>682</ele>
        <time>2012-06-14T14:38:17Z</time>
      </trkpt>
      <trkpt lat="45.47811" lon="5.52835">
        <ele>681</ele>
        <time>2012-06-14T14:38:22Z</time>
      </trkpt>
      <trkpt lat="45.47812" lon="5.52833">
        <ele>682</ele>
        <time>2012-06-14T14:38:27Z</time>
      </trkpt>
      <trkpt lat="45.47812" lon="5.52832">
        <ele>682</ele>
        <time>2012-06-14T14:38:32Z</time>
      </trkpt>
      <trkpt lat="45.47813" lon="5.52831">
        <ele>682</ele>
        <time>2012-06-14T14:38:37Z</time>
      </trkpt>
      <trkpt lat="45.47813" lon="5.5283">
        <ele>682</ele>
        <time>2012-06-14T14:38:42Z</time>
      </trkpt>
      <trkpt lat="45.47811" lon="5.52829">
        <ele>682</ele>
        <time>2012-06-14T14:38:47Z</time>
      </trkpt>
      <trkpt lat="45.47811" lon="5.5283">
        <ele>682</ele>
        <time>2012-06-14T14:38:52Z</time>
      </trkpt>
      <trkpt lat="45.4781" lon="5.52829">
        <ele>682</ele>
        <time>2012-06-14T14:38:57Z</time>
      </trkpt>
      <trkpt lat="45.47808" lon="5.52828">
        <ele>682</ele>
        <time>2012-06-14T14:39:02Z</time>
      </trkpt>
      <trkpt lat="45.47807" lon="5.52828">
        <ele>682</ele>
        <time>2012-06-14T14:39:07Z</time>
      </trkpt>
      <trkpt lat="45.47808" lon="5.52828">
        <ele>682</ele>
        <time>2012-06-14T14:39:12Z</time>
      </trkpt>
      <trkpt lat="45.47807" lon="5.52828">
        <ele>682</ele>
        <time>2012-06-14T14:39:17Z</time>
      </trkpt>
      <trkpt lat="45.47809" lon="5.52827">
        <ele>682</ele>
        <time>2012-06-14T14:39:23Z</time>
      </trkpt>
      <trkpt lat="45.4781" lon="5.52827">
        <ele>682</ele>
        <time>2012-06-14T14:39:28Z</time>
      </trkpt>
      <trkpt lat="45.47812" lon="5.52828">
        <ele>682</ele>
        <time>2012-06-14T14:39:33Z</time>
      </trkpt>
      <trkpt lat="45.47812" lon="5.52829">
        <ele>682</ele>
        <time>2012-06-14T14:39:38Z</time>
      </trkpt>
      <trkpt lat="45.47812" lon="5.52828">
        <ele>682</ele>
        <time>2012-06-14T14:39:43Z</time>
      </trkpt>
      <trkpt lat="45.47812" lon="5.52831">
        <ele>682</ele>
        <time>2012-06-14T14:39:48Z</time>
      </trkpt>
      <trkpt lat="45.47813" lon="5.5283">
        <ele>682</ele>
        <time>2012-06-14T14:39:53Z</time>
      </trkpt>
      <trkpt lat="45.47815" lon="5.52833">
        <ele>682</ele>
        <time>2012-06-14T14:39:58Z</time>
      </trkpt>
      <trkpt lat="45.47818" lon="5.52837">
        <ele>682</ele>
        <time>2012-06-14T14:40:03Z</time>
      </trkpt>
      <trkpt lat="45.47821" lon="5.52841">
        <ele>682</ele>
        <time>2012-06-14T14:40:08Z</time>
      </trkpt>
      <trkpt lat="45.47822" lon="5.52842">
        <ele>681</ele>
        <time>2012-06-14T14:40:13Z</time>
      </trkpt>
      <trkpt lat="45.47823" lon="5.52844">
        <ele>681</ele>
        <time>2012-06-14T14:40:18Z</time>
      </trkpt>
      <trkpt lat="45.47824" lon="5.52847">
        <ele>681</ele>
        <time>2012-06-14T14:40:24Z</time>
      </trkpt>
      <trkpt lat="45.47826" lon="5.52849">
        <ele>681</ele>
        <time>2012-06-14T14:40:29Z</time>
      </trkpt>
      <trkpt lat="45.47827" lon="5.52851">
        <ele>681</ele>
        <time>2012-06-14T14:40:34Z</time>
      </trkpt>
      <trkpt lat="45.47828" lon="5.52852">
        <ele>681</ele>
        <time>2012-06-14T14:40:39Z</time>
      </trkpt>
      <trkpt lat="45.47829" lon="5.52852">
        <ele>681</ele>
        <time>2012-06-14T14:40:44Z</time>
      </trkpt>
      <trkpt lat="45.4783" lon="5.52851">
        <ele>682</ele>
        <time>2012-06-14T14:40:49Z</time>
      </trkpt>
      <trkpt lat="45.47831" lon="5.52851">
        <ele>682</ele>
        <time>2012-06-14T14:40:54Z</time>
      </trkpt>
      <trkpt lat="45.47832" lon="5.52851">
        <ele>681</ele>
        <time>2012-06-14T14:40:59Z</time>
      </trkpt>
      <trkpt lat="45.47833" lon="5.52851">
        <ele>681</ele>
        <time>2012-06-14T14:41:04Z</time>
      </trkpt>
      <trkpt lat="45.47833" lon="5.5285">
        <ele>681</ele>
        <time>2012-06-14T14:41:09Z</time>
      </trkpt>
      <trkpt lat="45.47834" lon="5.5285">
        <ele>681</ele>
        <time>2012-06-14T14:41:14Z</time>
      </trkpt>
      <trkpt lat="45.47835" lon="5.52849">
        <ele>681</ele>
        <time>2012-06-14T14:41:19Z</time>
      </trkpt>
      <trkpt lat="45.47835" lon="5.5285">
        <ele>681</ele>
        <time>2012-06-14T14:41:24Z</time>
      </trkpt>
      <trkpt lat="45.47835" lon="5.52851">
        <ele>682</ele>
        <time>2012-06-14T14:41:29Z</time>
      </trkpt>
      <trkpt lat="45.47836" lon="5.52854">
        <ele>681</ele>
        <time>2012-06-14T14:41:35Z</time>
      </trkpt>
      <trkpt lat="45.47837" lon="5.52858">
        <ele>681</ele>
        <time>2012-06-14T14:41:40Z</time>
      </trkpt>
      <trkpt lat="45.47837" lon="5.5286">
        <ele>681</ele>
        <time>2012-06-14T14:41:45Z</time>
      </trkpt>
      <trkpt lat="45.47838" lon="5.52864">
        <ele>681</ele>
        <time>2012-06-14T14:41:50Z</time>
      </trkpt>
      <trkpt lat="45.4784" lon="5.5287">
        <ele>680</ele>
        <time>2012-06-14T14:41:55Z</time>
      </trkpt>
      <trkpt lat="45.47842" lon="5.52874">
        <ele>680</ele>
        <time>2012-06-14T14:42:00Z</time>
      </trkpt>
      <trkpt lat="45.47843" lon="5.52878">
        <ele>680</ele>
        <time>2012-06-14T14:42:05Z</time>
      </trkpt>
      <trkpt lat="45.47845" lon="5.52883">
        <ele>679</ele>
        <time>2012-06-14T14:42:10Z</time>
      </trkpt>
      <trkpt lat="45.47847" lon="5.52887">
        <ele>679</ele>
        <time>2012-06-14T14:42:15Z</time>
      </trkpt>
      <trkpt lat="45.4785" lon="5.52892">
        <ele>679</ele>
        <time>2012-06-14T14:42:20Z</time>
      </trkpt>
      <trkpt lat="45.47853" lon="5.52896">
        <ele>679</ele>
        <time>2012-06-14T14:42:25Z</time>
      </trkpt>
      <trkpt lat="45.47854" lon="5.52901">
        <ele>678</ele>
        <time>2012-06-14T14:42:30Z</time>
      </trkpt>
      <trkpt lat="45.47855" lon="5.52907">
        <ele>678</ele>
        <time>2012-06-14T14:42:35Z</time>
      </trkpt>
      <trkpt lat="45.47859" lon="5.52913">
        <ele>678</ele>
        <time>2012-06-14T14:42:40Z</time>
      </trkpt>
      <trkpt lat="45.47862" lon="5.52919">
        <ele>677</ele>
        <time>2012-06-14T14:42:45Z</time>
      </trkpt>
      <trkpt lat="45.47864" lon="5.52923">
        <ele>677</ele>
        <time>2012-06-14T14:42:50Z</time>
      </trkpt>
      <trkpt lat="45.47867" lon="5.52929">
        <ele>677</ele>
        <time>2012-06-14T14:42:56Z</time>
      </trkpt>
      <trkpt lat="45.47868" lon="5.52935">
        <ele>678</ele>
        <time>2012-06-14T14:43:01Z</time>
      </trkpt>
      <trkpt lat="45.47871" lon="5.5294">
        <ele>678</ele>
        <time>2012-06-14T14:43:06Z</time>
      </trkpt>
      <trkpt lat="45.47873" lon="5.52947">
        <ele>678</ele>
        <time>2012-06-14T14:43:11Z</time>
      </trkpt>
      <trkpt lat="45.47874" lon="5.52953">
        <ele>677</ele>
        <time>2012-06-14T14:43:16Z</time>
      </trkpt>
      <trkpt lat="45.47877" lon="5.52961">
        <ele>677</ele>
        <time>2012-06-14T14:43:21Z</time>
      </trkpt>
      <trkpt lat="45.47879" lon="5.52967">
        <ele>677</ele>
        <time>2012-06-14T14:43:26Z</time>
      </trkpt>
      <trkpt lat="45.47881" lon="5.52974">
        <ele>677</ele>
        <time>2012-06-14T14:43:31Z</time>
      </trkpt>
      <trkpt lat="45.47881" lon="5.52984">
        <ele>677</ele>
        <time>2012-06-14T14:43:36Z</time>
      </trkpt>
      <trkpt lat="45.47882" lon="5.52992">
        <ele>677</ele>
        <time>2012-06-14T14:43:41Z</time>
      </trkpt>
      <trkpt lat="45.47883" lon="5.53">
        <ele>677</ele>
        <time>2012-06-14T14:43:46Z</time>
      </trkpt>
      <trkpt lat="45.47884" lon="5.5301">
        <ele>677</ele>
        <time>2012-06-14T14:43:52Z</time>
      </trkpt>
      <trkpt lat="45.47887" lon="5.53018">
        <ele>676</ele>
        <time>2012-06-14T14:43:57Z</time>
      </trkpt>
      <trkpt lat="45.47889" lon="5.53025">
        <ele>676</ele>
        <time>2012-06-14T14:44:02Z</time>
      </trkpt>
      <trkpt lat="45.4789" lon="5.53032">
        <ele>676</ele>
        <time>2012-06-14T14:44:07Z</time>
      </trkpt>
      <trkpt lat="45.47891" lon="5.5304">
        <ele>676</ele>
        <time>2012-06-14T14:44:12Z</time>
      </trkpt>
      <trkpt lat="45.47892" lon="5.53048">
        <ele>675</ele>
        <time>2012-06-14T14:44:17Z</time>
      </trkpt>
      <trkpt lat="45.47892" lon="5.53055">
        <ele>675</ele>
        <time>2012-06-14T14:44:22Z</time>
      </trkpt>
      <trkpt lat="45.47892" lon="5.53063">
        <ele>675</ele>
        <time>2012-06-14T14:44:27Z</time>
      </trkpt>
      <trkpt lat="45.47895" lon="5.53071">
        <ele>675</ele>
        <time>2012-06-14T14:44:32Z</time>
      </trkpt>
      <trkpt lat="45.47897" lon="5.5308">
        <ele>675</ele>
        <time>2012-06-14T14:44:37Z</time>
      </trkpt>
      <trkpt lat="45.47899" lon="5.53086">
        <ele>675</ele>
        <time>2012-06-14T14:44:42Z</time>
      </trkpt>
      <trkpt lat="45.479" lon="5.53093">
        <ele>675</ele>
        <time>2012-06-14T14:44:47Z</time>
      </trkpt>
      <trkpt lat="45.47901" lon="5.53102">
        <ele>674</ele>
        <time>2012-06-14T14:44:52Z</time>
      </trkpt>
      <trkpt lat="45.47902" lon="5.5311">
        <ele>673</ele>
        <time>2012-06-14T14:44:57Z</time>
      </trkpt>
      <trkpt lat="45.47904" lon="5.53119">
        <ele>673</ele>
        <time>2012-06-14T14:45:03Z</time>
      </trkpt>
      <trkpt lat="45.47906" lon="5.53127">
        <ele>672</ele>
        <time>2012-06-14T14:45:08Z</time>
      </trkpt>
      <trkpt lat="45.47905" lon="5.53136">
        <ele>672</ele>
        <time>2012-06-14T14:45:13Z</time>
      </trkpt>
      <trkpt lat="45.47907" lon="5.53144">
        <ele>671</ele>
        <time>2012-06-14T14:45:18Z</time>
      </trkpt>
      <trkpt lat="45.47908" lon="5.53154">
        <ele>671</ele>
        <time>2012-06-14T14:45:23Z</time>
      </trkpt>
      <trkpt lat="45.47908" lon="5.53162">
        <ele>671</ele>
        <time>2012-06-14T14:45:28Z</time>
      </trkpt>
      <trkpt lat="45.4791" lon="5.53171">
        <ele>670</ele>
        <time>2012-06-14T14:45:33Z</time>
      </trkpt>
      <trkpt lat="45.4791" lon="5.5318">
        <ele>670</ele>
        <time>2012-06-14T14:45:38Z</time>
      </trkpt>
      <trkpt lat="45.47911" lon="5.53187">
        <ele>669</ele>
        <time>2012-06-14T14:45:43Z</time>
      </trkpt>
      <trkpt lat="45.47911" lon="5.53194">
        <ele>669</ele>
        <time>2012-06-14T14:45:48Z</time>
      </trkpt>
      <trkpt lat="45.47911" lon="5.53201">
        <ele>668</ele>
        <time>2012-06-14T14:45:53Z</time>
      </trkpt>
      <trkpt lat="45.47914" lon="5.53209">
        <ele>667</ele>
        <time>2012-06-14T14:45:58Z</time>
      </trkpt>
      <trkpt lat="45.47916" lon="5.53217">
        <ele>666</ele>
        <time>2012-06-14T14:46:03Z</time>
      </trkpt>
      <trkpt lat="45.47918" lon="5.53223">
        <ele>667</ele>
        <time>2012-06-14T14:46:08Z</time>
      </trkpt>
      <trkpt lat="45.47919" lon="5.5323">
        <ele>666</ele>
        <time>2012-06-14T14:46:13Z</time>
      </trkpt>
      <trkpt lat="45.47921" lon="5.53234">
        <ele>666</ele>
        <time>2012-06-14T14:46:18Z</time>
      </trkpt>
      <trkpt lat="45.47922" lon="5.5324">
        <ele>665</ele>
        <time>2012-06-14T14:46:24Z</time>
      </trkpt>
      <trkpt lat="45.47923" lon="5.53247">
        <ele>665</ele>
        <time>2012-06-14T14:46:29Z</time>
      </trkpt>
      <trkpt lat="45.47923" lon="5.5325">
        <ele>665</ele>
        <time>2012-06-14T14:46:34Z</time>
      </trkpt>
      <trkpt lat="45.47922" lon="5.53255">
        <ele>665</ele>
        <time>2012-06-14T14:46:39Z</time>
      </trkpt>
      <trkpt lat="45.47921" lon="5.53262">
        <ele>665</ele>
        <time>2012-06-14T14:46:44Z</time>
      </trkpt>
      <trkpt lat="45.47922" lon="5.53268">
        <ele>665</ele>
        <time>2012-06-14T14:46:49Z</time>
      </trkpt>
      <trkpt lat="45.47925" lon="5.53274">
        <ele>664</ele>
        <time>2012-06-14T14:46:54Z</time>
      </trkpt>
      <trkpt lat="45.47928" lon="5.53282">
        <ele>664</ele>
        <time>2012-06-14T14:46:59Z</time>
      </trkpt>
      <trkpt lat="45.47932" lon="5.53291">
        <ele>664</ele>
        <time>2012-06-14T14:47:04Z</time>
      </trkpt>
      <trkpt lat="45.47934" lon="5.53299">
        <ele>663</ele>
        <time>2012-06-14T14:47:09Z</time>
      </trkpt>
      <trkpt lat="45.47937" lon="5.53306">
        <ele>663</ele>
        <time>2012-06-14T14:47:14Z</time>
      </trkpt>
      <trkpt lat="45.47939" lon="5.53313">
        <ele>663</ele>
        <time>2012-06-14T14:47:19Z</time>
      </trkpt>
      <trkpt lat="45.47942" lon="5.5332">
        <ele>662</ele>
        <time>2012-06-14T14:47:25Z</time>
      </trkpt>
      <trkpt lat="45.47945" lon="5.53326">
        <ele>661</ele>
        <time>2012-06-14T14:47:30Z</time>
      </trkpt>
      <trkpt lat="45.47948" lon="5.53331">
        <ele>660</ele>
        <time>2012-06-14T14:47:35Z</time>
      </trkpt>
      <trkpt lat="45.47949" lon="5.53334">
        <ele>660</ele>
        <time>2012-06-14T14:47:40Z</time>
      </trkpt>
      <trkpt lat="45.4795" lon="5.53334">
        <ele>660</ele>
        <time>2012-06-14T14:47:45Z</time>
      </trkpt>
      <trkpt lat="45.4795" lon="5.53334">
        <ele>660</ele>
        <time>2012-06-14T14:47:50Z</time>
      </trkpt>
      <trkpt lat="45.47952" lon="5.53335">
        <ele>660</ele>
        <time>2012-06-14T14:47:55Z</time>
      </trkpt>
      <trkpt lat="45.47955" lon="5.53338">
        <ele>660</ele>
        <time>2012-06-14T14:48:00Z</time>
      </trkpt>
      <trkpt lat="45.47958" lon="5.53344">
        <ele>660</ele>
        <time>2012-06-14T14:48:05Z</time>
      </trkpt>
      <trkpt lat="45.47961" lon="5.53349">
        <ele>659</ele>
        <time>2012-06-14T14:48:11Z</time>
      </trkpt>
      <trkpt lat="45.47963" lon="5.53355">
        <ele>659</ele>
        <time>2012-06-14T14:48:16Z</time>
      </trkpt>
      <trkpt lat="45.47966" lon="5.5336">
        <ele>659</ele>
        <time>2012-06-14T14:48:21Z</time>
      </trkpt>
      <trkpt lat="45.47968" lon="5.53367">
        <ele>658</ele>
        <time>2012-06-14T14:48:26Z</time>
      </trkpt>
      <trkpt lat="45.47971" lon="5.53372">
        <ele>658</ele>
        <time>2012-06-14T14:48:31Z</time>
      </trkpt>
      <trkpt lat="45.47972" lon="5.53379">
        <ele>657</ele>
        <time>2012-06-14T14:48:36Z</time>
      </trkpt>
      <trkpt lat="45.47973" lon="5.53387">
        <ele>656</ele>
        <time>2012-06-14T14:48:41Z</time>
      </trkpt>
      <trkpt lat="45.47975" lon="5.53394">
        <ele>656</ele>
        <time>2012-06-14T14:48:46Z</time>
      </trkpt>
      <trkpt lat="45.47976" lon="5.53401">
        <ele>656</ele>
        <time>2012-06-14T14:48:51Z</time>
      </trkpt>
      <trkpt lat="45.47978" lon="5.53409">
        <ele>655</ele>
        <time>2012-06-14T14:48:56Z</time>
      </trkpt>
      <trkpt lat="45.47979" lon="5.53417">
        <ele>654</ele>
        <time>2012-06-14T14:49:01Z</time>
      </trkpt>
      <trkpt lat="45.47981" lon="5.53425">
        <ele>654</ele>
        <time>2012-06-14T14:49:06Z</time>
      </trkpt>
      <trkpt lat="45.47981" lon="5.53432">
        <ele>653</ele>
        <time>2012-06-14T14:49:11Z</time>
      </trkpt>
      <trkpt lat="45.47979" lon="5.53438">
        <ele>653</ele>
        <time>2012-06-14T14:49:16Z</time>
      </trkpt>
      <trkpt lat="45.47974" lon="5.5344">
        <ele>653</ele>
        <time>2012-06-14T14:49:21Z</time>
      </trkpt>
      <trkpt lat="45.47969" lon="5.5344">
        <ele>652</ele>
        <time>2012-06-14T14:49:27Z</time>
      </trkpt>
      <trkpt lat="45.47963" lon="5.53441">
        <ele>652</ele>
        <time>2012-06-14T14:49:32Z</time>
      </trkpt>
      <trkpt lat="45.47958" lon="5.5344">
        <ele>652</ele>
        <time>2012-06-14T14:49:37Z</time>
      </trkpt>
      <trkpt lat="45.47953" lon="5.53441">
        <ele>652</ele>
        <time>2012-06-14T14:49:42Z</time>
      </trkpt>
      <trkpt lat="45.4795" lon="5.53439">
        <ele>652</ele>
        <time>2012-06-14T14:49:47Z</time>
      </trkpt>
      <trkpt lat="45.47946" lon="5.53438">
        <ele>651</ele>
        <time>2012-06-14T14:49:52Z</time>
      </trkpt>
      <trkpt lat="45.47942" lon="5.53437">
        <ele>651</ele>
        <time>2012-06-14T14:49:57Z</time>
      </trkpt>
      <trkpt lat="45.47936" lon="5.53435">
        <ele>650</ele>
        <time>2012-06-14T14:50:02Z</time>
      </trkpt>
      <trkpt lat="45.47931" lon="5.53435">
        <ele>650</ele>
        <time>2012-06-14T14:50:07Z</time>
      </trkpt>
      <trkpt lat="45.47924" lon="5.53435">
        <ele>649</ele>
        <time>2012-06-14T14:50:12Z</time>
      </trkpt>
      <trkpt lat="45.4792" lon="5.53437">
        <ele>649</ele>
        <time>2012-06-14T14:50:18Z</time>
      </trkpt>
      <trkpt lat="45.47917" lon="5.53444">
        <ele>648</ele>
        <time>2012-06-14T14:50:23Z</time>
      </trkpt>
      <trkpt lat="45.47913" lon="5.53451">
        <ele>648</ele>
        <time>2012-06-14T14:50:28Z</time>
      </trkpt>
      <trkpt lat="45.47911" lon="5.53458">
        <ele>648</ele>
        <time>2012-06-14T14:50:33Z</time>
      </trkpt>
      <trkpt lat="45.47908" lon="5.53465">
        <ele>648</ele>
        <time>2012-06-14T14:50:38Z</time>
      </trkpt>
      <trkpt lat="45.47905" lon="5.53472">
        <ele>647</ele>
        <time>2012-06-14T14:50:43Z</time>
      </trkpt>
      <trkpt lat="45.47903" lon="5.53478">
        <ele>646</ele>
        <time>2012-06-14T14:50:48Z</time>
      </trkpt>
      <trkpt lat="45.47901" lon="5.53486">
        <ele>646</ele>
        <time>2012-06-14T14:50:53Z</time>
      </trkpt>
      <trkpt lat="45.47901" lon="5.5349">
        <ele>646</ele>
        <time>2012-06-14T14:50:58Z</time>
      </trkpt>
      <trkpt lat="45.47901" lon="5.5349">
        <ele>648</ele>
        <time>2012-06-14T14:51:03Z</time>
      </trkpt>
      <trkpt lat="45.47899" lon="5.53491">
        <ele>646</ele>
        <time>2012-06-14T14:51:08Z</time>
      </trkpt>
      <trkpt lat="45.47898" lon="5.53498">
        <ele>645</ele>
        <time>2012-06-14T14:51:13Z</time>
      </trkpt>
      <trkpt lat="45.47896" lon="5.53504">
        <ele>644</ele>
        <time>2012-06-14T14:51:18Z</time>
      </trkpt>
      <trkpt lat="45.47895" lon="5.5351">
        <ele>644</ele>
        <time>2012-06-14T14:51:23Z</time>
      </trkpt>
      <trkpt lat="45.47894" lon="5.53512">
        <ele>643</ele>
        <time>2012-06-14T14:51:29Z</time>
      </trkpt>
      <trkpt lat="45.47893" lon="5.53513">
        <ele>643</ele>
        <time>2012-06-14T14:51:34Z</time>
      </trkpt>
      <trkpt lat="45.47893" lon="5.53513">
        <ele>643</ele>
        <time>2012-06-14T14:51:39Z</time>
      </trkpt>
      <trkpt lat="45.47893" lon="5.53513">
        <ele>643</ele>
        <time>2012-06-14T14:51:44Z</time>
      </trkpt>
      <trkpt lat="45.47892" lon="5.53512">
        <ele>643</ele>
        <time>2012-06-14T14:51:49Z</time>
      </trkpt>
      <trkpt lat="45.47892" lon="5.53512">
        <ele>644</ele>
        <time>2012-06-14T14:51:54Z</time>
      </trkpt>
      <trkpt lat="45.47892" lon="5.53512">
        <ele>644</ele>
        <time>2012-06-14T14:51:59Z</time>
      </trkpt>
      <trkpt lat="45.47892" lon="5.53512">
        <ele>644</ele>
        <time>2012-06-14T14:52:04Z</time>
      </trkpt>
      <trkpt lat="45.47891" lon="5.53512">
        <ele>644</ele>
        <time>2012-06-14T14:52:09Z</time>
      </trkpt>
      <trkpt lat="45.47891" lon="5.53512">
        <ele>644</ele>
        <time>2012-06-14T14:52:14Z</time>
      </trkpt>
      <trkpt lat="45.47891" lon="5.53512">
        <ele>644</ele>
        <time>2012-06-14T14:52:19Z</time>
      </trkpt>
      <trkpt lat="45.47891" lon="5.53512">
        <ele>644</ele>
        <time>2012-06-14T14:52:24Z</time>
      </trkpt>
      <trkpt lat="45.47891" lon="5.53511">
        <ele>644</ele>
        <time>2012-06-14T14:52:29Z</time>
      </trkpt>
      <trkpt lat="45.4789" lon="5.53514">
        <ele>644</ele>
        <time>2012-06-14T14:52:34Z</time>
      </trkpt>
      <trkpt lat="45.4789" lon="5.5352">
        <ele>643</ele>
        <time>2012-06-14T14:52:39Z</time>
      </trkpt>
      <trkpt lat="45.47889" lon="5.53528">
        <ele>643</ele>
        <time>2012-06-14T14:52:44Z</time>
      </trkpt>
      <trkpt lat="45.47887" lon="5.53536">
        <ele>642</ele>
        <time>2012-06-14T14:52:49Z</time>
      </trkpt>
      <trkpt lat="45.47887" lon="5.5354">
        <ele>641</ele>
        <time>2012-06-14T14:52:55Z</time>
      </trkpt>
      <trkpt lat="45.47886" lon="5.53543">
        <ele>641</ele>
        <time>2012-06-14T14:53:00Z</time>
      </trkpt>
      <trkpt lat="45.47885" lon="5.5355">
        <ele>640</ele>
        <time>2012-06-14T14:53:05Z</time>
      </trkpt>
      <trkpt lat="45.47886" lon="5.53558">
        <ele>639</ele>
        <time>2012-06-14T14:53:10Z</time>
      </trkpt>
      <trkpt lat="45.47884" lon="5.53565">
        <ele>639</ele>
        <time>2012-06-14T14:53:15Z</time>
      </trkpt>
      <trkpt lat="45.47884" lon="5.53573">
        <ele>639</ele>
        <time>2012-06-14T14:53:20Z</time>
      </trkpt>
      <trkpt lat="45.47883" lon="5.53581">
        <ele>638</ele>
        <time>2012-06-14T14:53:25Z</time>
      </trkpt>
      <trkpt lat="45.47883" lon="5.53589">
        <ele>637</ele>
        <time>2012-06-14T14:53:30Z</time>
      </trkpt>
      <trkpt lat="45.47883" lon="5.53599">
        <ele>637</ele>
        <time>2012-06-14T14:53:35Z</time>
      </trkpt>
      <trkpt lat="45.47882" lon="5.53607">
        <ele>636</ele>
        <time>2012-06-14T14:53:40Z</time>
      </trkpt>
      <trkpt lat="45.47882" lon="5.53615">
        <ele>636</ele>
        <time>2012-06-14T14:53:45Z</time>
      </trkpt>
      <trkpt lat="45.47881" lon="5.53623">
        <ele>636</ele>
        <time>2012-06-14T14:53:50Z</time>
      </trkpt>
      <trkpt lat="45.47881" lon="5.53631">
        <ele>636</ele>
        <time>2012-06-14T14:53:55Z</time>
      </trkpt>
      <trkpt lat="45.4788" lon="5.53639">
        <ele>635</ele>
        <time>2012-06-14T14:54:01Z</time>
      </trkpt>
      <trkpt lat="45.47881" lon="5.53647">
        <ele>635</ele>
        <time>2012-06-14T14:54:06Z</time>
      </trkpt>
      <trkpt lat="45.47881" lon="5.53655">
        <ele>634</ele>
        <time>2012-06-14T14:54:11Z</time>
      </trkpt>
      <trkpt lat="45.4788" lon="5.53662">
        <ele>634</ele>
        <time>2012-06-14T14:54:16Z</time>
      </trkpt>
      <trkpt lat="45.4788" lon="5.5367">
        <ele>634</ele>
        <time>2012-06-14T14:54:21Z</time>
      </trkpt>
      <trkpt lat="45.4788" lon="5.53677">
        <ele>634</ele>
        <time>2012-06-14T14:54:26Z</time>
      </trkpt>
      <trkpt lat="45.4788" lon="5.53684">
        <ele>633</ele>
        <time>2012-06-14T14:54:31Z</time>
      </trkpt>
      <trkpt lat="45.47881" lon="5.53692">
        <ele>632</ele>
        <time>2012-06-14T14:54:36Z</time>
      </trkpt>
      <trkpt lat="45.47882" lon="5.53699">
        <ele>631</ele>
        <time>2012-06-14T14:54:41Z</time>
      </trkpt>
      <trkpt lat="45.47884" lon="5.53709">
        <ele>630</ele>
        <time>2012-06-14T14:54:46Z</time>
      </trkpt>
      <trkpt lat="45.47885" lon="5.53716">
        <ele>630</ele>
        <time>2012-06-14T14:54:51Z</time>
      </trkpt>
      <trkpt lat="45.47887" lon="5.53724">
        <ele>629</ele>
        <time>2012-06-14T14:54:56Z</time>
      </trkpt>
      <trkpt lat="45.47888" lon="5.53731">
        <ele>628</ele>
        <time>2012-06-14T14:55:01Z</time>
      </trkpt>
      <trkpt lat="45.47889" lon="5.53738">
        <ele>628</ele>
        <time>2012-06-14T14:55:06Z</time>
      </trkpt>
      <trkpt lat="45.4789" lon="5.53745">
        <ele>627</ele>
        <time>2012-06-14T14:55:11Z</time>
      </trkpt>
      <trkpt lat="45.47892" lon="5.53751">
        <ele>626</ele>
        <time>2012-06-14T14:55:17Z</time>
      </trkpt>
      <trkpt lat="45.47894" lon="5.53757">
        <ele>626</ele>
        <time>2012-06-14T14:55:22Z</time>
      </trkpt>
      <trkpt lat="45.47896" lon="5.53762">
        <ele>625</ele>
        <time>2012-06-14T14:55:27Z</time>
      </trkpt>
      <trkpt lat="45.47899" lon="5.53768">
        <ele>625</ele>
        <time>2012-06-14T14:55:32Z</time>
      </trkpt>
      <trkpt lat="45.479" lon="5.53774">
        <ele>624</ele>
        <time>2012-06-14T14:55:37Z</time>
      </trkpt>
      <trkpt lat="45.47903" lon="5.5378">
        <ele>623</ele>
        <time>2012-06-14T14:55:42Z</time>
      </trkpt>
      <trkpt lat="45.47905" lon="5.53785">
        <ele>623</ele>
        <time>2012-06-14T14:55:47Z</time>
      </trkpt>
      <trkpt lat="45.47908" lon="5.53791">
        <ele>623</ele>
        <time>2012-06-14T14:55:52Z</time>
      </trkpt>
      <trkpt lat="45.47911" lon="5.53796">
        <ele>622</ele>
        <time>2012-06-14T14:55:57Z</time>
      </trkpt>
      <trkpt lat="45.47915" lon="5.53803">
        <ele>622</ele>
        <time>2012-06-14T14:56:02Z</time>
      </trkpt>
      <trkpt lat="45.47918" lon="5.5381">
        <ele>621</ele>
        <time>2012-06-14T14:56:07Z</time>
      </trkpt>
      <trkpt lat="45.47921" lon="5.53817">
        <ele>621</ele>
        <time>2012-06-14T14:56:12Z</time>
      </trkpt>
      <trkpt lat="45.47923" lon="5.53823">
        <ele>620</ele>
        <time>2012-06-14T14:56:17Z</time>
      </trkpt>
      <trkpt lat="45.47925" lon="5.5383">
        <ele>619</ele>
        <time>2012-06-14T14:56:22Z</time>
      </trkpt>
      <trkpt lat="45.47926" lon="5.53838">
        <ele>619</ele>
        <time>2012-06-14T14:56:28Z</time>
      </trkpt>
      <trkpt lat="45.47928" lon="5.53845">
        <ele>618</ele>
        <time>2012-06-14T14:56:33Z</time>
      </trkpt>
      <trkpt lat="45.47932" lon="5.53851">
        <ele>618</ele>
        <time>2012-06-14T14:56:38Z</time>
      </trkpt>
      <trkpt lat="45.47935" lon="5.53856">
        <ele>617</ele>
        <time>2012-06-14T14:56:43Z</time>
      </trkpt>
      <trkpt lat="45.47937" lon="5.53862">
        <ele>616</ele>
        <time>2012-06-14T14:56:48Z</time>
      </trkpt>
      <trkpt lat="45.4794" lon="5.53868">
        <ele>615</ele>
        <time>2012-06-14T14:56:53Z</time>
      </trkpt>
      <trkpt lat="45.47944" lon="5.53873">
        <ele>615</ele>
        <time>2012-06-14T14:56:58Z</time>
      </trkpt>
      <trkpt lat="45.47948" lon="5.53879">
        <ele>614</ele>
        <time>2012-06-14T14:57:03Z</time>
      </trkpt>
      <trkpt lat="45.47952" lon="5.53888">
        <ele>613</ele>
        <time>2012-06-14T14:57:08Z</time>
      </trkpt>
      <trkpt lat="45.47954" lon="5.53895">
        <ele>613</ele>
        <time>2012-06-14T14:57:13Z</time>
      </trkpt>
      <trkpt lat="45.47956" lon="5.53902">
        <ele>612</ele>
        <time>2012-06-14T14:57:18Z</time>
      </trkpt>
      <trkpt lat="45.47959" lon="5.53909">
        <ele>612</ele>
        <time>2012-06-14T14:57:23Z</time>
      </trkpt>
      <trkpt lat="45.47961" lon="5.53917">
        <ele>611</ele>
        <time>2012-06-14T14:57:28Z</time>
      </trkpt>
      <trkpt lat="45.47964" lon="5.53924">
        <ele>611</ele>
        <time>2012-06-14T14:57:33Z</time>
      </trkpt>
      <trkpt lat="45.47966" lon="5.53932">
        <ele>611</ele>
        <time>2012-06-14T14:57:38Z</time>
      </trkpt>
      <trkpt lat="45.47968" lon="5.53939">
        <ele>610</ele>
        <time>2012-06-14T14:57:43Z</time>
      </trkpt>
      <trkpt lat="45.47969" lon="5.53947">
        <ele>610</ele>
        <time>2012-06-14T14:57:49Z</time>
      </trkpt>
      <trkpt lat="45.47969" lon="5.53954">
        <ele>609</ele>
        <time>2012-06-14T14:57:54Z</time>
      </trkpt>
      <trkpt lat="45.47969" lon="5.53958">
        <ele>608</ele>
        <time>2012-06-14T14:57:59Z</time>
      </trkpt>
      <trkpt lat="45.47969" lon="5.53958">
        <ele>608</ele>
        <time>2012-06-14T14:58:04Z</time>
      </trkpt>
      <trkpt lat="45.47968" lon="5.53958">
        <ele>609</ele>
        <time>2012-06-14T14:58:09Z</time>
      </trkpt>
      <trkpt lat="45.47966" lon="5.53952">
        <ele>609</ele>
        <time>2012-06-14T14:58:14Z</time>
      </trkpt>
      <trkpt lat="45.47965" lon="5.53945">
        <ele>609</ele>
        <time>2012-06-14T14:58:19Z</time>
      </trkpt>
      <trkpt lat="45.47963" lon="5.53939">
        <ele>610</ele>
        <time>2012-06-14T14:58:24Z</time>
      </trkpt>
      <trkpt lat="45.47961" lon="5.53932">
        <ele>610</ele>
        <time>2012-06-14T14:58:29Z</time>
      </trkpt>
      <trkpt lat="45.47959" lon="5.53926">
        <ele>610</ele>
        <time>2012-06-14T14:58:34Z</time>
      </trkpt>
      <trkpt lat="45.47959" lon="5.53924">
        <ele>611</ele>
        <time>2012-06-14T14:58:39Z</time>
      </trkpt>
      <trkpt lat="45.47959" lon="5.53924">
        <ele>612</ele>
        <time>2012-06-14T14:58:44Z</time>
      </trkpt>
      <trkpt lat="45.47961" lon="5.53923">
        <ele>613</ele>
        <time>2012-06-14T14:58:49Z</time>
      </trkpt>
      <trkpt lat="45.47964" lon="5.5392">
        <ele>613</ele>
        <time>2012-06-14T14:58:54Z</time>
      </trkpt>
      <trkpt lat="45.47966" lon="5.53915">
        <ele>614</ele>
        <time>2012-06-14T14:58:59Z</time>
      </trkpt>
      <trkpt lat="45.47969" lon="5.53909">
        <ele>615</ele>
        <time>2012-06-14T14:59:04Z</time>
      </trkpt>
      <trkpt lat="45.47973" lon="5.53904">
        <ele>615</ele>
        <time>2012-06-14T14:59:09Z</time>
      </trkpt>
      <trkpt lat="45.47978" lon="5.53901">
        <ele>615</ele>
        <time>2012-06-14T14:59:14Z</time>
      </trkpt>
      <trkpt lat="45.47983" lon="5.53898">
        <ele>615</ele>
        <time>2012-06-14T14:59:19Z</time>
      </trkpt>
      <trkpt lat="45.47988" lon="5.53896">
        <ele>615</ele>
        <time>2012-06-14T14:59:24Z</time>
      </trkpt>
      <trkpt lat="45.47993" lon="5.53895">
        <ele>616</ele>
        <time>2012-06-14T14:59:30Z</time>
      </trkpt>
      <trkpt lat="45.47998" lon="5.53894">
        <ele>614</ele>
        <time>2012-06-14T14:59:35Z</time>
      </trkpt>
      <trkpt lat="45.48003" lon="5.53894">
        <ele>615</ele>
        <time>2012-06-14T14:59:40Z</time>
      </trkpt>
      <trkpt lat="45.48008" lon="5.53894">
        <ele>613</ele>
        <time>2012-06-14T14:59:45Z</time>
      </trkpt>
      <trkpt lat="45.48014" lon="5.53893">
        <ele>614</ele>
        <time>2012-06-14T14:59:50Z</time>
      </trkpt>
      <trkpt lat="45.4802" lon="5.53893">
        <ele>614</ele>
        <time>2012-06-14T14:59:55Z</time>
      </trkpt>
      <trkpt lat="45.48026" lon="5.53893">
        <ele>614</ele>
        <time>2012-06-14T15:00:00Z</time>
      </trkpt>
      <trkpt lat="45.48032" lon="5.53892">
        <ele>613</ele>
        <time>2012-06-14T15:00:05Z</time>
      </trkpt>
      <trkpt lat="45.48037" lon="5.53893">
        <ele>613</ele>
        <time>2012-06-14T15:00:10Z</time>
      </trkpt>
      <trkpt lat="45.48043" lon="5.53892">
        <ele>613</ele>
        <time>2012-06-14T15:00:15Z</time>
      </trkpt>
      <trkpt lat="45.48049" lon="5.53892">
        <ele>613</ele>
        <time>2012-06-14T15:00:21Z</time>
      </trkpt>
      <trkpt lat="45.48054" lon="5.53891">
        <ele>613</ele>
        <time>2012-06-14T15:00:26Z</time>
      </trkpt>
      <trkpt lat="45.4806" lon="5.5389">
        <ele>613</ele>
        <time>2012-06-14T15:00:31Z</time>
      </trkpt>
      <trkpt lat="45.48065" lon="5.53889">
        <ele>613</ele>
        <time>2012-06-14T15:00:36Z</time>
      </trkpt>
      <trkpt lat="45.48071" lon="5.53889">
        <ele>613</ele>
        <time>2012-06-14T15:00:41Z</time>
      </trkpt>
      <trkpt lat="45.48076" lon="5.53889">
        <ele>613</ele>
        <time>2012-06-14T15:00:46Z</time>
      </trkpt>
      <trkpt lat="45.48082" lon="5.53889">
        <ele>613</ele>
        <time>2012-06-14T15:00:51Z</time>
      </trkpt>
      <trkpt lat="45.48088" lon="5.53889">
        <ele>613</ele>
        <time>2012-06-14T15:00:56Z</time>
      </trkpt>
      <trkpt lat="45.48093" lon="5.5389">
        <ele>614</ele>
        <time>2012-06-14T15:01:01Z</time>
      </trkpt>
      <trkpt lat="45.48098" lon="5.53891">
        <ele>614</ele>
        <time>2012-06-14T15:01:06Z</time>
      </trkpt>
      <trkpt lat="45.48104" lon="5.53891">
        <ele>614</ele>
        <time>2012-06-14T15:01:11Z</time>
      </trkpt>
      <trkpt lat="45.48111" lon="5.53892">
        <ele>614</ele>
        <time>2012-06-14T15:01:16Z</time>
      </trkpt>
      <trkpt lat="45.48116" lon="5.53892">
        <ele>614</ele>
        <time>2012-06-14T15:01:21Z</time>
      </trkpt>
      <trkpt lat="45.48121" lon="5.53892">
        <ele>615</ele>
        <time>2012-06-14T15:01:26Z</time>
      </trkpt>
      <trkpt lat="45.48126" lon="5.53892">
        <ele>615</ele>
        <time>2012-06-14T15:01:31Z</time>
      </trkpt>
      <trkpt lat="45.4813" lon="5.53893">
        <ele>615</ele>
        <time>2012-06-14T15:01:37Z</time>
      </trkpt>
      <trkpt lat="45.48136" lon="5.53893">
        <ele>615</ele>
        <time>2012-06-14T15:01:42Z</time>
      </trkpt>
      <trkpt lat="45.48141" lon="5.53895">
        <ele>615</ele>
        <time>2012-06-14T15:01:47Z</time>
      </trkpt>
      <trkpt lat="45.48146" lon="5.53899">
        <ele>615</ele>
        <time>2012-06-14T15:01:52Z</time>
      </trkpt>
      <trkpt lat="45.4815" lon="5.53905">
        <ele>615</ele>
        <time>2012-06-14T15:01:57Z</time>
      </trkpt>
      <trkpt lat="45.48154" lon="5.53912">
        <ele>615</ele>
        <time>2012-06-14T15:02:02Z</time>
      </trkpt>
      <trkpt lat="45.48157" lon="5.53919">
        <ele>615</ele>
        <time>2012-06-14T15:02:07Z</time>
      </trkpt>
      <trkpt lat="45.4816" lon="5.53927">
        <ele>615</ele>
        <time>2012-06-14T15:02:12Z</time>
      </trkpt>
      <trkpt lat="45.48162" lon="5.53934">
        <ele>615</ele>
        <time>2012-06-14T15:02:17Z</time>
      </trkpt>
      <trkpt lat="45.48166" lon="5.53942">
        <ele>615</ele>
        <time>2012-06-14T15:02:22Z</time>
      </trkpt>
      <trkpt lat="45.48169" lon="5.53948">
        <ele>614</ele>
        <time>2012-06-14T15:02:27Z</time>
      </trkpt>
      <trkpt lat="45.48172" lon="5.53955">
        <ele>615</ele>
        <time>2012-06-14T15:02:32Z</time>
      </trkpt>
      <trkpt lat="45.48175" lon="5.53961">
        <ele>614</ele>
        <time>2012-06-14T15:02:37Z</time>
      </trkpt>
      <trkpt lat="45.48178" lon="5.53967">
        <ele>614</ele>
        <time>2012-06-14T15:02:42Z</time>
      </trkpt>
      <trkpt lat="45.48183" lon="5.53972">
        <ele>615</ele>
        <time>2012-06-14T15:02:48Z</time>
      </trkpt>
      <trkpt lat="45.48186" lon="5.53978">
        <ele>614</ele>
        <time>2012-06-14T15:02:53Z</time>
      </trkpt>
      <trkpt lat="45.4819" lon="5.53983">
        <ele>614</ele>
        <time>2012-06-14T15:02:58Z</time>
      </trkpt>
      <trkpt lat="45.48193" lon="5.53989">
        <ele>614</ele>
        <time>2012-06-14T15:03:03Z</time>
      </trkpt>
      <trkpt lat="45.48197" lon="5.53995">
        <ele>614</ele>
        <time>2012-06-14T15:03:08Z</time>
      </trkpt>
      <trkpt lat="45.48199" lon="5.54001">
        <ele>613</ele>
        <time>2012-06-14T15:03:13Z</time>
      </trkpt>
      <trkpt lat="45.48203" lon="5.54006">
        <ele>613</ele>
        <time>2012-06-14T15:03:18Z</time>
      </trkpt>
      <trkpt lat="45.48207" lon="5.54011">
        <ele>613</ele>
        <time>2012-06-14T15:03:23Z</time>
      </trkpt>
      <trkpt lat="45.48211" lon="5.54014">
        <ele>613</ele>
        <time>2012-06-14T15:03:28Z</time>
      </trkpt>
      <trkpt lat="45.48216" lon="5.54017">
        <ele>613</ele>
        <time>2012-06-14T15:03:33Z</time>
      </trkpt>
      <trkpt lat="45.4822" lon="5.54021">
        <ele>612</ele>
        <time>2012-06-14T15:03:38Z</time>
      </trkpt>
      <trkpt lat="45.48224" lon="5.54025">
        <ele>612</ele>
        <time>2012-06-14T15:03:43Z</time>
      </trkpt>
      <trkpt lat="45.48228" lon="5.5403">
        <ele>612</ele>
        <time>2012-06-14T15:03:48Z</time>
      </trkpt>
      <trkpt lat="45.48233" lon="5.54034">
        <ele>612</ele>
        <time>2012-06-14T15:03:53Z</time>
      </trkpt>
      <trkpt lat="45.48236" lon="5.54038">
        <ele>611</ele>
        <time>2012-06-14T15:03:58Z</time>
      </trkpt>
      <trkpt lat="45.4824" lon="5.54041">
        <ele>611</ele>
        <time>2012-06-14T15:04:03Z</time>
      </trkpt>
      <trkpt lat="45.48245" lon="5.54046">
        <ele>612</ele>
        <time>2012-06-14T15:04:08Z</time>
      </trkpt>
      <trkpt lat="45.48249" lon="5.54051">
        <ele>611</ele>
        <time>2012-06-14T15:04:13Z</time>
      </trkpt>
      <trkpt lat="45.48252" lon="5.54055">
        <ele>611</ele>
        <time>2012-06-14T15:04:18Z</time>
      </trkpt>
      <trkpt lat="45.48255" lon="5.54059">
        <ele>611</ele>
        <time>2012-06-14T15:04:23Z</time>
      </trkpt>
      <trkpt lat="45.48259" lon="5.54064">
        <ele>611</ele>
        <time>2012-06-14T15:04:29Z</time>
      </trkpt>
      <trkpt lat="45.48264" lon="5.54069">
        <ele>610</ele>
        <time>2012-06-14T15:04:34Z</time>
      </trkpt>
      <trkpt lat="45.48267" lon="5.54074">
        <ele>610</ele>
        <time>2012-06-14T15:04:39Z</time>
      </trkpt>
      <trkpt lat="45.48271" lon="5.54079">
        <ele>611</ele>
        <time>2012-06-14T15:04:44Z</time>
      </trkpt>
      <trkpt lat="45.48275" lon="5.54085">
        <ele>610</ele>
        <time>2012-06-14T15:04:49Z</time>
      </trkpt>
      <trkpt lat="45.48279" lon="5.5409">
        <ele>610</ele>
        <time>2012-06-14T15:04:54Z</time>
      </trkpt>
      <trkpt lat="45.48281" lon="5.54095">
        <ele>611</ele>
        <time>2012-06-14T15:04:59Z</time>
      </trkpt>
      <trkpt lat="45.48286" lon="5.541">
        <ele>611</ele>
        <time>2012-06-14T15:05:04Z</time>
      </trkpt>
      <trkpt lat="45.48288" lon="5.54105">
        <ele>611</ele>
        <time>2012-06-14T15:05:09Z</time>
      </trkpt>
      <trkpt lat="45.48292" lon="5.54111">
        <ele>611</ele>
        <time>2012-06-14T15:05:14Z</time>
      </trkpt>
      <trkpt lat="45.48296" lon="5.54117">
        <ele>611</ele>
        <time>2012-06-14T15:05:19Z</time>
      </trkpt>
      <trkpt lat="45.483" lon="5.54122">
        <ele>611</ele>
        <time>2012-06-14T15:05:24Z</time>
      </trkpt>
      <trkpt lat="45.48304" lon="5.54128">
        <ele>611</ele>
        <time>2012-06-14T15:05:29Z</time>
      </trkpt>
      <trkpt lat="45.48308" lon="5.54133">
        <ele>611</ele>
        <time>2012-06-14T15:05:34Z</time>
      </trkpt>
      <trkpt lat="45.48311" lon="5.54138">
        <ele>611</ele>
        <time>2012-06-14T15:05:39Z</time>
      </trkpt>
      <trkpt lat="45.48315" lon="5.54142">
        <ele>611</ele>
        <time>2012-06-14T15:05:45Z</time>
      </trkpt>
      <trkpt lat="45.48319" lon="5.54146">
        <ele>611</ele>
        <time>2012-06-14T15:05:50Z</time>
      </trkpt>
      <trkpt lat="45.48324" lon="5.54149">
        <ele>611</ele>
        <time>2012-06-14T15:05:55Z</time>
      </trkpt>
      <trkpt lat="45.48328" lon="5.54153">
        <ele>611</ele>
        <time>2012-06-14T15:06:00Z</time>
      </trkpt>
      <trkpt lat="45.48332" lon="5.54156">
        <ele>612</ele>
        <time>2012-06-14T15:06:05Z</time>
      </trkpt>
      <trkpt lat="45.48336" lon="5.54159">
        <ele>612</ele>
        <time>2012-06-14T15:06:10Z</time>
      </trkpt>
      <trkpt lat="45.48341" lon="5.54165">
        <ele>612</ele>
        <time>2012-06-14T15:06:15Z</time>
      </trkpt>
      <trkpt lat="45.48346" lon="5.5417">
        <ele>612</ele>
        <time>2012-06-14T15:06:20Z</time>
      </trkpt>
      <trkpt lat="45.48349" lon="5.54173">
        <ele>612</ele>
        <time>2012-06-14T15:06:25Z</time>
      </trkpt>
      <trkpt lat="45.48354" lon="5.54177">
        <ele>613</ele>
        <time>2012-06-14T15:06:30Z</time>
      </trkpt>
      <trkpt lat="45.48358" lon="5.54182">
        <ele>613</ele>
        <time>2012-06-14T15:06:35Z</time>
      </trkpt>
      <trkpt lat="45.48361" lon="5.54188">
        <ele>612</ele>
        <time>2012-06-14T15:06:40Z</time>
      </trkpt>
      <trkpt lat="45.48362" lon="5.54192">
        <ele>612</ele>
        <time>2012-06-14T15:06:45Z</time>
      </trkpt>
      <trkpt lat="45.4836" lon="5.542">
        <ele>612</ele>
        <time>2012-06-14T15:06:51Z</time>
      </trkpt>
      <trkpt lat="45.48359" lon="5.54206">
        <ele>612</ele>
        <time>2012-06-14T15:06:56Z</time>
      </trkpt>
      <trkpt lat="45.48358" lon="5.54214">
        <ele>612</ele>
        <time>2012-06-14T15:07:01Z</time>
      </trkpt>
      <trkpt lat="45.48355" lon="5.54222">
        <ele>612</ele>
        <time>2012-06-14T15:07:06Z</time>
      </trkpt>
      <trkpt lat="45.48353" lon="5.54229">
        <ele>612</ele>
        <time>2012-06-14T15:07:11Z</time>
      </trkpt>
      <trkpt lat="45.48351" lon="5.54236">
        <ele>611</ele>
        <time>2012-06-14T15:07:16Z</time>
      </trkpt>
      <trkpt lat="45.48348" lon="5.54244">
        <ele>611</ele>
        <time>2012-06-14T15:07:21Z</time>
      </trkpt>
      <trkpt lat="45.48346" lon="5.5425">
        <ele>611</ele>
        <time>2012-06-14T15:07:26Z</time>
      </trkpt>
      <trkpt lat="45.48343" lon="5.54258">
        <ele>610</ele>
        <time>2012-06-14T15:07:31Z</time>
      </trkpt>
      <trkpt lat="45.4834" lon="5.54264">
        <ele>610</ele>
        <time>2012-06-14T15:07:36Z</time>
      </trkpt>
      <trkpt lat="45.48336" lon="5.54273">
        <ele>610</ele>
        <time>2012-06-14T15:07:41Z</time>
      </trkpt>
      <trkpt lat="45.48333" lon="5.54279">
        <ele>610</ele>
        <time>2012-06-14T15:07:46Z</time>
      </trkpt>
      <trkpt lat="45.48329" lon="5.54285">
        <ele>609</ele>
        <time>2012-06-14T15:07:51Z</time>
      </trkpt>
      <trkpt lat="45.48325" lon="5.54289">
        <ele>609</ele>
        <time>2012-06-14T15:07:56Z</time>
      </trkpt>
      <trkpt lat="45.48321" lon="5.54294">
        <ele>608</ele>
        <time>2012-06-14T15:08:01Z</time>
      </trkpt>
      <trkpt lat="45.48318" lon="5.54298">
        <ele>609</ele>
        <time>2012-06-14T15:08:06Z</time>
      </trkpt>
      <trkpt lat="45.48314" lon="5.54303">
        <ele>608</ele>
        <time>2012-06-14T15:08:12Z</time>
      </trkpt>
      <trkpt lat="45.4831" lon="5.54308">
        <ele>608</ele>
        <time>2012-06-14T15:08:17Z</time>
      </trkpt>
      <trkpt lat="45.48306" lon="5.54313">
        <ele>607</ele>
        <time>2012-06-14T15:08:22Z</time>
      </trkpt>
      <trkpt lat="45.48302" lon="5.54317">
        <ele>607</ele>
        <time>2012-06-14T15:08:27Z</time>
      </trkpt>
      <trkpt lat="45.48298" lon="5.54321">
        <ele>607</ele>
        <time>2012-06-14T15:08:32Z</time>
      </trkpt>
      <trkpt lat="45.48294" lon="5.54325">
        <ele>606</ele>
        <time>2012-06-14T15:08:37Z</time>
      </trkpt>
      <trkpt lat="45.4829" lon="5.5433">
        <ele>606</ele>
        <time>2012-06-14T15:08:42Z</time>
      </trkpt>
      <trkpt lat="45.48285" lon="5.54334">
        <ele>606</ele>
        <time>2012-06-14T15:08:47Z</time>
      </trkpt>
      <trkpt lat="45.48281" lon="5.54339">
        <ele>605</ele>
        <time>2012-06-14T15:08:52Z</time>
      </trkpt>
      <trkpt lat="45.48275" lon="5.54345">
        <ele>605</ele>
        <time>2012-06-14T15:08:57Z</time>
      </trkpt>
      <trkpt lat="45.48272" lon="5.5435">
        <ele>604</ele>
        <time>2012-06-14T15:09:02Z</time>
      </trkpt>
      <trkpt lat="45.48268" lon="5.54357">
        <ele>604</ele>
        <time>2012-06-14T15:09:07Z</time>
      </trkpt>
      <trkpt lat="45.48265" lon="5.54361">
        <ele>604</ele>
        <time>2012-06-14T15:09:12Z</time>
      </trkpt>
      <trkpt lat="45.48261" lon="5.54368">
        <ele>604</ele>
        <time>2012-06-14T15:09:17Z</time>
      </trkpt>
      <trkpt lat="45.48258" lon="5.54372">
        <ele>604</ele>
        <time>2012-06-14T15:09:22Z</time>
      </trkpt>
      <trkpt lat="45.48255" lon="5.54377">
        <ele>602</ele>
        <time>2012-06-14T15:09:27Z</time>
      </trkpt>
      <trkpt lat="45.48251" lon="5.54382">
        <ele>602</ele>
        <time>2012-06-14T15:09:33Z</time>
      </trkpt>
      <trkpt lat="45.48246" lon="5.54386">
        <ele>601</ele>
        <time>2012-06-14T15:09:38Z</time>
      </trkpt>
      <trkpt lat="45.48243" lon="5.54391">
        <ele>601</ele>
        <time>2012-06-14T15:09:43Z</time>
      </trkpt>
      <trkpt lat="45.48239" lon="5.54395">
        <ele>601</ele>
        <time>2012-06-14T15:09:48Z</time>
      </trkpt>
      <trkpt lat="45.48236" lon="5.54402">
        <ele>601</ele>
        <time>2012-06-14T15:09:53Z</time>
      </trkpt>
      <trkpt lat="45.48232" lon="5.54408">
        <ele>600</ele>
        <time>2012-06-14T15:09:58Z</time>
      </trkpt>
      <trkpt lat="45.48228" lon="5.54415">
        <ele>600</ele>
        <time>2012-06-14T15:10:03Z</time>
      </trkpt>
      <trkpt lat="45.48225" lon="5.54421">
        <ele>599</ele>
        <time>2012-06-14T15:10:08Z</time>
      </trkpt>
      <trkpt lat="45.48222" lon="5.54426">
        <ele>599</ele>
        <time>2012-06-14T15:10:13Z</time>
      </trkpt>
      <trkpt lat="45.48218" lon="5.54431">
        <ele>598</ele>
        <time>2012-06-14T15:10:18Z</time>
      </trkpt>
      <trkpt lat="45.48214" lon="5.54437">
        <ele>598</ele>
        <time>2012-06-14T15:10:23Z</time>
      </trkpt>
      <trkpt lat="45.48211" lon="5.54444">
        <ele>597</ele>
        <time>2012-06-14T15:10:28Z</time>
      </trkpt>
      <trkpt lat="45.48206" lon="5.5445">
        <ele>597</ele>
        <time>2012-06-14T15:10:33Z</time>
      </trkpt>
      <trkpt lat="45.48203" lon="5.54455">
        <ele>597</ele>
        <time>2012-06-14T15:10:38Z</time>
      </trkpt>
      <trkpt lat="45.48199" lon="5.54461">
        <ele>596</ele>
        <time>2012-06-14T15:10:43Z</time>
      </trkpt>
      <trkpt lat="45.48196" lon="5.54467">
        <ele>596</ele>
        <time>2012-06-14T15:10:48Z</time>
      </trkpt>
      <trkpt lat="45.48191" lon="5.54472">
        <ele>596</ele>
        <time>2012-06-14T15:10:54Z</time>
      </trkpt>
      <trkpt lat="45.48187" lon="5.54479">
        <ele>595</ele>
        <time>2012-06-14T15:10:59Z</time>
      </trkpt>
      <trkpt lat="45.48183" lon="5.54484">
        <ele>595</ele>
        <time>2012-06-14T15:11:04Z</time>
      </trkpt>
      <trkpt lat="45.48179" lon="5.5449">
        <ele>595</ele>
        <time>2012-06-14T15:11:09Z</time>
      </trkpt>
      <trkpt lat="45.48177" lon="5.54494">
        <ele>594</ele>
        <time>2012-06-14T15:11:14Z</time>
      </trkpt>
      <trkpt lat="45.48174" lon="5.54497">
        <ele>593</ele>
        <time>2012-06-14T15:11:19Z</time>
      </trkpt>
      <trkpt lat="45.48172" lon="5.54503">
        <ele>593</ele>
        <time>2012-06-14T15:11:24Z</time>
      </trkpt>
      <trkpt lat="45.48172" lon="5.54507">
        <ele>592</ele>
        <time>2012-06-14T15:11:29Z</time>
      </trkpt>
      <trkpt lat="45.48174" lon="5.54512">
        <ele>593</ele>
        <time>2012-06-14T15:11:34Z</time>
      </trkpt>
      <trkpt lat="45.48178" lon="5.54517">
        <ele>593</ele>
        <time>2012-06-14T15:11:39Z</time>
      </trkpt>
      <trkpt lat="45.48183" lon="5.5452">
        <ele>593</ele>
        <time>2012-06-14T15:11:44Z</time>
      </trkpt>
      <trkpt lat="45.48188" lon="5.54523">
        <ele>593</ele>
        <time>2012-06-14T15:11:49Z</time>
      </trkpt>
      <trkpt lat="45.48193" lon="5.54526">
        <ele>594</ele>
        <time>2012-06-14T15:11:54Z</time>
      </trkpt>
      <trkpt lat="45.48198" lon="5.54529">
        <ele>593</ele>
        <time>2012-06-14T15:12:00Z</time>
      </trkpt>
      <trkpt lat="45.48203" lon="5.54533">
        <ele>594</ele>
        <time>2012-06-14T15:12:05Z</time>
      </trkpt>
      <trkpt lat="45.48208" lon="5.54536">
        <ele>594</ele>
        <time>2012-06-14T15:12:10Z</time>
      </trkpt>
      <trkpt lat="45.48212" lon="5.54538">
        <ele>594</ele>
        <time>2012-06-14T15:12:15Z</time>
      </trkpt>
      <trkpt lat="45.48216" lon="5.54541">
        <ele>594</ele>
        <time>2012-06-14T15:12:20Z</time>
      </trkpt>
      <trkpt lat="45.4822" lon="5.54544">
        <ele>594</ele>
        <time>2012-06-14T15:12:25Z</time>
      </trkpt>
      <trkpt lat="45.48224" lon="5.54548">
        <ele>594</ele>
        <time>2012-06-14T15:12:30Z</time>
      </trkpt>
      <trkpt lat="45.48228" lon="5.54552">
        <ele>595</ele>
        <time>2012-06-14T15:12:35Z</time>
      </trkpt>
      <trkpt lat="45.48233" lon="5.54553">
        <ele>594</ele>
        <time>2012-06-14T15:12:40Z</time>
      </trkpt>
      <trkpt lat="45.48239" lon="5.54556">
        <ele>595</ele>
        <time>2012-06-14T15:12:45Z</time>
      </trkpt>
      <trkpt lat="45.48244" lon="5.54559">
        <ele>594</ele>
        <time>2012-06-14T15:12:50Z</time>
      </trkpt>
      <trkpt lat="45.48249" lon="5.54563">
        <ele>594</ele>
        <time>2012-06-14T15:12:55Z</time>
      </trkpt>
      <trkpt lat="45.48256" lon="5.54567">
        <ele>594</ele>
        <time>2012-06-14T15:13:00Z</time>
      </trkpt>
      <trkpt lat="45.4826" lon="5.54572">
        <ele>594</ele>
        <time>2012-06-14T15:13:05Z</time>
      </trkpt>
      <trkpt lat="45.48265" lon="5.54577">
        <ele>594</ele>
        <time>2012-06-14T15:13:10Z</time>
      </trkpt>
      <trkpt lat="45.48271" lon="5.54582">
        <ele>594</ele>
        <time>2012-06-14T15:13:15Z</time>
      </trkpt>
      <trkpt lat="45.48277" lon="5.54587">
        <ele>594</ele>
        <time>2012-06-14T15:13:20Z</time>
      </trkpt>
      <trkpt lat="45.48282" lon="5.54592">
        <ele>593</ele>
        <time>2012-06-14T15:13:26Z</time>
      </trkpt>
      <trkpt lat="45.48288" lon="5.54596">
        <ele>594</ele>
        <time>2012-06-14T15:13:31Z</time>
      </trkpt>
      <trkpt lat="45.48293" lon="5.546">
        <ele>594</ele>
        <time>2012-06-14T15:13:36Z</time>
      </trkpt>
      <trkpt lat="45.48299" lon="5.54604">
        <ele>594</ele>
        <time>2012-06-14T15:13:41Z</time>
      </trkpt>
      <trkpt lat="45.48304" lon="5.54606">
        <ele>595</ele>
        <time>2012-06-14T15:13:46Z</time>
      </trkpt>
      <trkpt lat="45.4831" lon="5.54609">
        <ele>594</ele>
        <time>2012-06-14T15:13:51Z</time>
      </trkpt>
      <trkpt lat="45.48316" lon="5.54612">
        <ele>594</ele>
        <time>2012-06-14T15:13:56Z</time>
      </trkpt>
      <trkpt lat="45.48321" lon="5.54614">
        <ele>594</ele>
        <time>2012-06-14T15:14:01Z</time>
      </trkpt>
      <trkpt lat="45.48326" lon="5.54616">
        <ele>594</ele>
        <time>2012-06-14T15:14:06Z</time>
      </trkpt>
      <trkpt lat="45.48331" lon="5.54617">
        <ele>593</ele>
        <time>2012-06-14T15:14:11Z</time>
      </trkpt>
      <trkpt lat="45.48336" lon="5.54619">
        <ele>593</ele>
        <time>2012-06-14T15:14:16Z</time>
      </trkpt>
      <trkpt lat="45.48342" lon="5.54621">
        <ele>593</ele>
        <time>2012-06-14T15:14:21Z</time>
      </trkpt>
      <trkpt lat="45.48348" lon="5.54624">
        <ele>593</ele>
        <time>2012-06-14T15:14:26Z</time>
      </trkpt>
      <trkpt lat="45.48354" lon="5.54626">
        <ele>593</ele>
        <time>2012-06-14T15:14:32Z</time>
      </trkpt>
      <trkpt lat="45.4836" lon="5.54628">
        <ele>593</ele>
        <time>2012-06-14T15:14:37Z</time>
      </trkpt>
      <trkpt lat="45.48366" lon="5.5463">
        <ele>593</ele>
        <time>2012-06-14T15:14:42Z</time>
      </trkpt>
      <trkpt lat="45.48372" lon="5.54632">
        <ele>593</ele>
        <time>2012-06-14T15:14:47Z</time>
      </trkpt>
      <trkpt lat="45.48378" lon="5.54634">
        <ele>593</ele>
        <time>2012-06-14T15:14:52Z</time>
      </trkpt>
      <trkpt lat="45.48385" lon="5.54636">
        <ele>593</ele>
        <time>2012-06-14T15:14:57Z</time>
      </trkpt>
      <trkpt lat="45.48391" lon="5.54638">
        <ele>593</ele>
        <time>2012-06-14T15:15:02Z</time>
      </trkpt>
      <trkpt lat="45.48396" lon="5.54639">
        <ele>593</ele>
        <time>2012-06-14T15:15:07Z</time>
      </trkpt>
      <trkpt lat="45.48402" lon="5.5464">
        <ele>593</ele>
        <time>2012-06-14T15:15:12Z</time>
      </trkpt>
      <trkpt lat="45.48408" lon="5.54639">
        <ele>592</ele>
        <time>2012-06-14T15:15:17Z</time>
      </trkpt>
      <trkpt lat="45.48414" lon="5.54639">
        <ele>592</ele>
        <time>2012-06-14T15:15:23Z</time>
      </trkpt>
      <trkpt lat="45.48419" lon="5.54639">
        <ele>592</ele>
        <time>2012-06-14T15:15:28Z</time>
      </trkpt>
      <trkpt lat="45.4842" lon="5.54639">
        <ele>592</ele>
        <time>2012-06-14T15:15:33Z</time>
      </trkpt>
      <trkpt lat="45.48419" lon="5.54639">
        <ele>592</ele>
        <time>2012-06-14T15:15:38Z</time>
      </trkpt>
      <trkpt lat="45.4842" lon="5.54639">
        <ele>591</ele>
        <time>2012-06-14T15:15:43Z</time>
      </trkpt>
      <trkpt lat="45.48421" lon="5.5464">
        <ele>592</ele>
        <time>2012-06-14T15:15:48Z</time>
      </trkpt>
      <trkpt lat="45.48422" lon="5.5464">
        <ele>591</ele>
        <time>2012-06-14T15:15:53Z</time>
      </trkpt>
      <trkpt lat="45.48422" lon="5.5464">
        <ele>592</ele>
        <time>2012-06-14T15:15:58Z</time>
      </trkpt>
      <trkpt lat="45.48423" lon="5.54638">
        <ele>592</ele>
        <time>2012-06-14T15:16:03Z</time>
      </trkpt>
      <trkpt lat="45.48423" lon="5.54638">
        <ele>592</ele>
        <time>2012-06-14T15:16:08Z</time>
      </trkpt>
      <trkpt lat="45.48423" lon="5.54637">
        <ele>591</ele>
        <time>2012-06-14T15:16:13Z</time>
      </trkpt>
      <trkpt lat="45.48423" lon="5.54638">
        <ele>592</ele>
        <time>2012-06-14T15:16:18Z</time>
      </trkpt>
      <trkpt lat="45.48423" lon="5.54638">
        <ele>591</ele>
        <time>2012-06-14T15:16:23Z</time>
      </trkpt>
      <trkpt lat="45.48423" lon="5.54639">
        <ele>591</ele>
        <time>2012-06-14T15:16:28Z</time>
      </trkpt>
      <trkpt lat="45.48422" lon="5.5464">
        <ele>591</ele>
        <time>2012-06-14T15:16:34Z</time>
      </trkpt>
      <trkpt lat="45.48422" lon="5.54641">
        <ele>591</ele>
        <time>2012-06-14T15:16:39Z</time>
      </trkpt>
      <trkpt lat="45.48422" lon="5.54642">
        <ele>591</ele>
        <time>2012-06-14T15:16:44Z</time>
      </trkpt>
      <trkpt lat="45.48422" lon="5.54642">
        <ele>591</ele>
        <time>2012-06-14T15:16:49Z</time>
      </trkpt>
      <trkpt lat="45.48422" lon="5.54643">
        <ele>592</ele>
        <time>2012-06-14T15:16:54Z</time>
      </trkpt>
      <trkpt lat="45.48422" lon="5.54643">
        <ele>592</ele>
        <time>2012-06-14T15:16:59Z</time>
      </trkpt>
      <trkpt lat="45.48422" lon="5.54644">
        <ele>592</ele>
        <time>2012-06-14T15:17:04Z</time>
      </trkpt>
      <trkpt lat="45.48423" lon="5.54644">
        <ele>592</ele>
        <time>2012-06-14T15:17:09Z</time>
      </trkpt>
      <trkpt lat="45.48425" lon="5.54645">
        <ele>592</ele>
        <time>2012-06-14T15:17:14Z</time>
      </trkpt>
      <trkpt lat="45.48429" lon="5.54645">
        <ele>592</ele>
        <time>2012-06-14T15:17:20Z</time>
      </trkpt>
      <trkpt lat="45.4843" lon="5.54645">
        <ele>592</ele>
        <time>2012-06-14T15:17:25Z</time>
      </trkpt>
      <trkpt lat="45.4843" lon="5.54644">
        <ele>592</ele>
        <time>2012-06-14T15:17:30Z</time>
      </trkpt>
      <trkpt lat="45.4843" lon="5.54643">
        <ele>592</ele>
        <time>2012-06-14T15:17:35Z</time>
      </trkpt>
      <trkpt lat="45.4843" lon="5.54642">
        <ele>591</ele>
        <time>2012-06-14T15:17:40Z</time>
      </trkpt>
      <trkpt lat="45.4843" lon="5.54642">
        <ele>591</ele>
        <time>2012-06-14T15:17:45Z</time>
      </trkpt>
      <trkpt lat="45.48429" lon="5.54641">
        <ele>591</ele>
        <time>2012-06-14T15:17:50Z</time>
      </trkpt>
      <trkpt lat="45.4843" lon="5.5464">
        <ele>591</ele>
        <time>2012-06-14T15:17:55Z</time>
      </trkpt>
      <trkpt lat="45.4843" lon="5.54639">
        <ele>591</ele>
        <time>2012-06-14T15:18:00Z</time>
      </trkpt>
      <trkpt lat="45.48431" lon="5.54639">
        <ele>591</ele>
        <time>2012-06-14T15:18:05Z</time>
      </trkpt>
      <trkpt lat="45.48432" lon="5.5464">
        <ele>592</ele>
        <time>2012-06-14T15:18:10Z</time>
      </trkpt>
      <trkpt lat="45.48432" lon="5.54639">
        <ele>591</ele>
        <time>2012-06-14T15:18:15Z</time>
      </trkpt>
      <trkpt lat="45.48431" lon="5.54639">
        <ele>591</ele>
        <time>2012-06-14T15:18:20Z</time>
      </trkpt>
      <trkpt lat="45.48432" lon="5.54637">
        <ele>592</ele>
        <time>2012-06-14T15:18:26Z</time>
      </trkpt>
      <trkpt lat="45.48432" lon="5.54638">
        <ele>592</ele>
        <time>2012-06-14T15:18:31Z</time>
      </trkpt>
      <trkpt lat="45.48434" lon="5.54637">
        <ele>591</ele>
        <time>2012-06-14T15:18:36Z</time>
      </trkpt>
      <trkpt lat="45.48437" lon="5.54636">
        <ele>591</ele>
        <time>2012-06-14T15:18:41Z</time>
      </trkpt>
      <trkpt lat="45.48441" lon="5.54634">
        <ele>591</ele>
        <time>2012-06-14T15:18:46Z</time>
      </trkpt>
      <trkpt lat="45.48446" lon="5.54633">
        <ele>591</ele>
        <time>2012-06-14T15:18:51Z</time>
      </trkpt>
      <trkpt lat="45.48451" lon="5.54632">
        <ele>591</ele>
        <time>2012-06-14T15:18:56Z</time>
      </trkpt>
      <trkpt lat="45.48457" lon="5.5463">
        <ele>591</ele>
        <time>2012-06-14T15:19:01Z</time>
      </trkpt>
      <trkpt lat="45.48463" lon="5.54628">
        <ele>591</ele>
        <time>2012-06-14T15:19:06Z</time>
      </trkpt>
      <trkpt lat="45.48469" lon="5.54628">
        <ele>591</ele>
        <time>2012-06-14T15:19:11Z</time>
      </trkpt>
      <trkpt lat="45.48473" lon="5.54629">
        <ele>591</ele>
        <time>2012-06-14T15:19:16Z</time>
      </trkpt>
      <trkpt lat="45.48474" lon="5.54629">
        <ele>591</ele>
        <time>2012-06-14T15:19:21Z</time>
      </trkpt>
      <trkpt lat="45.48475" lon="5.54629">
        <ele>591</ele>
        <time>2012-06-14T15:19:26Z</time>
      </trkpt>
      <trkpt lat="45.48478" lon="5.54629">
        <ele>591</ele>
        <time>2012-06-14T15:19:32Z</time>
      </trkpt>
      <trkpt lat="45.48482" lon="5.54632">
        <ele>591</ele>
        <time>2012-06-14T15:19:37Z</time>
      </trkpt>
      <trkpt lat="45.48486" lon="5.54636">
        <ele>590</ele>
        <time>2012-06-14T15:19:42Z</time>
      </trkpt>
      <trkpt lat="45.48488" lon="5.54644">
        <ele>590</ele>
        <time>2012-06-14T15:19:47Z</time>
      </trkpt>
      <trkpt lat="45.48488" lon="5.54648">
        <ele>591</ele>
        <time>2012-06-14T15:19:52Z</time>
      </trkpt>
      <trkpt lat="45.48488" lon="5.54648">
        <ele>590</ele>
        <time>2012-06-14T15:19:57Z</time>
      </trkpt>
      <trkpt lat="45.48489" lon="5.54649">
        <ele>590</ele>
        <time>2012-06-14T15:20:02Z</time>
      </trkpt>
      <trkpt lat="45.48488" lon="5.54655">
        <ele>590</ele>
        <time>2012-06-14T15:20:07Z</time>
      </trkpt>
      <trkpt lat="45.48484" lon="5.54662">
        <ele>590</ele>
        <time>2012-06-14T15:20:12Z</time>
      </trkpt>
      <trkpt lat="45.4848" lon="5.54666">
        <ele>589</ele>
        <time>2012-06-14T15:20:17Z</time>
      </trkpt>
      <trkpt lat="45.48475" lon="5.5467">
        <ele>589</ele>
        <time>2012-06-14T15:20:22Z</time>
      </trkpt>
      <trkpt lat="45.48471" lon="5.54675">
        <ele>588</ele>
        <time>2012-06-14T15:20:27Z</time>
      </trkpt>
      <trkpt lat="45.48466" lon="5.5468">
        <ele>588</ele>
        <time>2012-06-14T15:20:32Z</time>
      </trkpt>
      <trkpt lat="45.4846" lon="5.54684">
        <ele>587</ele>
        <time>2012-06-14T15:20:37Z</time>
      </trkpt>
      <trkpt lat="45.48456" lon="5.54689">
        <ele>587</ele>
        <time>2012-06-14T15:20:42Z</time>
      </trkpt>
      <trkpt lat="45.48451" lon="5.54693">
        <ele>586</ele>
        <time>2012-06-14T15:20:47Z</time>
      </trkpt>
      <trkpt lat="45.48446" lon="5.54697">
        <ele>586</ele>
        <time>2012-06-14T15:20:52Z</time>
      </trkpt>
      <trkpt lat="45.48441" lon="5.54702">
        <ele>586</ele>
        <time>2012-06-14T15:20:58Z</time>
      </trkpt>
      <trkpt lat="45.48437" lon="5.54705">
        <ele>585</ele>
        <time>2012-06-14T15:21:03Z</time>
      </trkpt>
      <trkpt lat="45.48433" lon="5.54708">
        <ele>585</ele>
        <time>2012-06-14T15:21:08Z</time>
      </trkpt>
      <trkpt lat="45.48432" lon="5.54708">
        <ele>584</ele>
        <time>2012-06-14T15:21:13Z</time>
      </trkpt>
      <trkpt lat="45.48432" lon="5.54709">
        <ele>584</ele>
        <time>2012-06-14T15:21:18Z</time>
      </trkpt>
      <trkpt lat="45.48427" lon="5.54712">
        <ele>584</ele>
        <time>2012-06-14T15:21:23Z</time>
      </trkpt>
      <trkpt lat="45.48422" lon="5.54716">
        <ele>583</ele>
        <time>2012-06-14T15:21:28Z</time>
      </trkpt>
      <trkpt lat="45.48417" lon="5.5472">
        <ele>583</ele>
        <time>2012-06-14T15:21:33Z</time>
      </trkpt>
      <trkpt lat="45.48412" lon="5.54725">
        <ele>583</ele>
        <time>2012-06-14T15:21:38Z</time>
      </trkpt>
      <trkpt lat="45.48407" lon="5.54729">
        <ele>583</ele>
        <time>2012-06-14T15:21:43Z</time>
      </trkpt>
      <trkpt lat="45.48402" lon="5.54732">
        <ele>582</ele>
        <time>2012-06-14T15:21:48Z</time>
      </trkpt>
      <trkpt lat="45.48397" lon="5.54735">
        <ele>581</ele>
        <time>2012-06-14T15:21:53Z</time>
      </trkpt>
      <trkpt lat="45.48391" lon="5.54737">
        <ele>581</ele>
        <time>2012-06-14T15:21:59Z</time>
      </trkpt>
      <trkpt lat="45.48387" lon="5.54739">
        <ele>581</ele>
        <time>2012-06-14T15:22:04Z</time>
      </trkpt>
      <trkpt lat="45.48382" lon="5.5474">
        <ele>581</ele>
        <time>2012-06-14T15:22:09Z</time>
      </trkpt>
      <trkpt lat="45.48377" lon="5.54743">
        <ele>580</ele>
        <time>2012-06-14T15:22:14Z</time>
      </trkpt>
      <trkpt lat="45.48373" lon="5.54745">
        <ele>580</ele>
        <time>2012-06-14T15:22:19Z</time>
      </trkpt>
      <trkpt lat="45.48373" lon="5.54747">
        <ele>580</ele>
        <time>2012-06-14T15:22:24Z</time>
      </trkpt>
      <trkpt lat="45.48371" lon="5.54746">
        <ele>580</ele>
        <time>2012-06-14T15:22:29Z</time>
      </trkpt>
      <trkpt lat="45.4837" lon="5.54743">
        <ele>580</ele>
        <time>2012-06-14T15:22:34Z</time>
      </trkpt>
      <trkpt lat="45.48371" lon="5.54744">
        <ele>579</ele>
        <time>2012-06-14T15:22:39Z</time>
      </trkpt>
      <trkpt lat="45.4837" lon="5.54744">
        <ele>580</ele>
        <time>2012-06-14T15:22:44Z</time>
      </trkpt>
      <trkpt lat="45.48369" lon="5.54743">
        <ele>581</ele>
        <time>2012-06-14T15:22:49Z</time>
      </trkpt>
      <trkpt lat="45.48368" lon="5.54742">
        <ele>580</ele>
        <time>2012-06-14T15:22:54Z</time>
      </trkpt>
      <trkpt lat="45.48368" lon="5.5474">
        <ele>580</ele>
        <time>2012-06-14T15:22:59Z</time>
      </trkpt>
      <trkpt lat="45.48365" lon="5.54741">
        <ele>580</ele>
        <time>2012-06-14T15:23:05Z</time>
      </trkpt>
      <trkpt lat="45.48361" lon="5.54745">
        <ele>580</ele>
        <time>2012-06-14T15:23:10Z</time>
      </trkpt>
      <trkpt lat="45.48357" lon="5.54749">
        <ele>579</ele>
        <time>2012-06-14T15:23:15Z</time>
      </trkpt>
      <trkpt lat="45.48352" lon="5.54753">
        <ele>579</ele>
        <time>2012-06-14T15:23:20Z</time>
      </trkpt>
      <trkpt lat="45.48348" lon="5.54756">
        <ele>579</ele>
        <time>2012-06-14T15:23:25Z</time>
      </trkpt>
      <trkpt lat="45.48345" lon="5.5476">
        <ele>578</ele>
        <time>2012-06-14T15:23:30Z</time>
      </trkpt>
      <trkpt lat="45.48341" lon="5.54764">
        <ele>578</ele>
        <time>2012-06-14T15:23:35Z</time>
      </trkpt>
      <trkpt lat="45.48336" lon="5.54768">
        <ele>577</ele>
        <time>2012-06-14T15:23:40Z</time>
      </trkpt>
      <trkpt lat="45.48331" lon="5.54773">
        <ele>577</ele>
        <time>2012-06-14T15:23:45Z</time>
      </trkpt>
      <trkpt lat="45.48327" lon="5.54776">
        <ele>576</ele>
        <time>2012-06-14T15:23:50Z</time>
      </trkpt>
      <trkpt lat="45.48323" lon="5.5478">
        <ele>576</ele>
        <time>2012-06-14T15:23:55Z</time>
      </trkpt>
      <trkpt lat="45.48318" lon="5.54784">
        <ele>575</ele>
        <time>2012-06-14T15:24:00Z</time>
      </trkpt>
      <trkpt lat="45.48312" lon="5.54787">
        <ele>575</ele>
        <time>2012-06-14T15:24:05Z</time>
      </trkpt>
      <trkpt lat="45.48307" lon="5.54792">
        <ele>574</ele>
        <time>2012-06-14T15:24:10Z</time>
      </trkpt>
      <trkpt lat="45.48302" lon="5.54798">
        <ele>573</ele>
        <time>2012-06-14T15:24:15Z</time>
      </trkpt>
      <trkpt lat="45.48296" lon="5.54803">
        <ele>573</ele>
        <time>2012-06-14T15:24:20Z</time>
      </trkpt>
      <trkpt lat="45.48291" lon="5.54807">
        <ele>572</ele>
        <time>2012-06-14T15:24:25Z</time>
      </trkpt>
      <trkpt lat="45.48286" lon="5.54811">
        <ele>572</ele>
        <time>2012-06-14T15:24:30Z</time>
      </trkpt>
      <trkpt lat="45.48281" lon="5.54816">
        <ele>571</ele>
        <time>2012-06-14T15:24:35Z</time>
      </trkpt>
      <trkpt lat="45.48279" lon="5.54817">
        <ele>570</ele>
        <time>2012-06-14T15:24:41Z</time>
      </trkpt>
      <trkpt lat="45.48274" lon="5.54824">
        <ele>570</ele>
        <time>2012-06-14T15:24:46Z</time>
      </trkpt>
      <trkpt lat="45.48268" lon="5.54832">
        <ele>569</ele>
        <time>2012-06-14T15:24:51Z</time>
      </trkpt>
      <trkpt lat="45.48263" lon="5.54839">
        <ele>569</ele>
        <time>2012-06-14T15:24:56Z</time>
      </trkpt>
      <trkpt lat="45.48258" lon="5.54846">
        <ele>568</ele>
        <time>2012-06-14T15:25:01Z</time>
      </trkpt>
      <trkpt lat="45.48255" lon="5.54851">
        <ele>568</ele>
        <time>2012-06-14T15:25:06Z</time>
      </trkpt>
      <trkpt lat="45.48251" lon="5.54859">
        <ele>567</ele>
        <time>2012-06-14T15:25:11Z</time>
      </trkpt>
      <trkpt lat="45.48247" lon="5.54864">
        <ele>567</ele>
        <time>2012-06-14T15:25:16Z</time>
      </trkpt>
      <trkpt lat="45.48244" lon="5.5487">
        <ele>566</ele>
        <time>2012-06-14T15:25:21Z</time>
      </trkpt>
      <trkpt lat="45.4824" lon="5.54875">
        <ele>566</ele>
        <time>2012-06-14T15:25:26Z</time>
      </trkpt>
      <trkpt lat="45.48237" lon="5.5488">
        <ele>565</ele>
        <time>2012-06-14T15:25:31Z</time>
      </trkpt>
      <trkpt lat="45.48232" lon="5.54885">
        <ele>565</ele>
        <time>2012-06-14T15:25:36Z</time>
      </trkpt>
      <trkpt lat="45.48228" lon="5.5489">
        <ele>565</ele>
        <time>2012-06-14T15:25:41Z</time>
      </trkpt>
      <trkpt lat="45.48222" lon="5.54895">
        <ele>564</ele>
        <time>2012-06-14T15:25:46Z</time>
      </trkpt>
      <trkpt lat="45.48217" lon="5.54899">
        <ele>564</ele>
        <time>2012-06-14T15:25:51Z</time>
      </trkpt>
      <trkpt lat="45.48212" lon="5.54901">
        <ele>564</ele>
        <time>2012-06-14T15:25:56Z</time>
      </trkpt>
      <trkpt lat="45.48207" lon="5.54904">
        <ele>564</ele>
        <time>2012-06-14T15:26:01Z</time>
      </trkpt>
      <trkpt lat="45.48202" lon="5.54907">
        <ele>563</ele>
        <time>2012-06-14T15:26:06Z</time>
      </trkpt>
      <trkpt lat="45.48197" lon="5.5491">
        <ele>562</ele>
        <time>2012-06-14T15:26:12Z</time>
      </trkpt>
      <trkpt lat="45.48191" lon="5.54912">
        <ele>562</ele>
        <time>2012-06-14T15:26:17Z</time>
      </trkpt>
      <trkpt lat="45.48185" lon="5.54914">
        <ele>561</ele>
        <time>2012-06-14T15:26:22Z</time>
      </trkpt>
      <trkpt lat="45.48178" lon="5.54918">
        <ele>561</ele>
        <time>2012-06-14T15:26:27Z</time>
      </trkpt>
      <trkpt lat="45.48173" lon="5.5492">
        <ele>561</ele>
        <time>2012-06-14T15:26:32Z</time>
      </trkpt>
      <trkpt lat="45.48167" lon="5.54923">
        <ele>560</ele>
        <time>2012-06-14T15:26:37Z</time>
      </trkpt>
      <trkpt lat="45.4816" lon="5.54927">
        <ele>559</ele>
        <time>2012-06-14T15:26:42Z</time>
      </trkpt>
      <trkpt lat="45.48154" lon="5.5493">
        <ele>559</ele>
        <time>2012-06-14T15:26:47Z</time>
      </trkpt>
      <trkpt lat="45.48148" lon="5.54935">
        <ele>559</ele>
        <time>2012-06-14T15:26:52Z</time>
      </trkpt>
      <trkpt lat="45.48143" lon="5.5494">
        <ele>559</ele>
        <time>2012-06-14T15:26:57Z</time>
      </trkpt>
      <trkpt lat="45.48137" lon="5.54947">
        <ele>559</ele>
        <time>2012-06-14T15:27:02Z</time>
      </trkpt>
      <trkpt lat="45.48131" lon="5.54953">
        <ele>558</ele>
        <time>2012-06-14T15:27:07Z</time>
      </trkpt>
      <trkpt lat="45.48127" lon="5.5496">
        <ele>558</ele>
        <time>2012-06-14T15:27:13Z</time>
      </trkpt>
      <trkpt lat="45.48123" lon="5.54967">
        <ele>558</ele>
        <time>2012-06-14T15:27:18Z</time>
      </trkpt>
      <trkpt lat="45.48118" lon="5.54977">
        <ele>557</ele>
        <time>2012-06-14T15:27:23Z</time>
      </trkpt>
      <trkpt lat="45.48116" lon="5.54984">
        <ele>557</ele>
        <time>2012-06-14T15:27:28Z</time>
      </trkpt>
      <trkpt lat="45.48114" lon="5.54994">
        <ele>556</ele>
        <time>2012-06-14T15:27:33Z</time>
      </trkpt>
      <trkpt lat="45.48114" lon="5.55002">
        <ele>555</ele>
        <time>2012-06-14T15:27:39Z</time>
      </trkpt>
      <trkpt lat="45.48114" lon="5.55012">
        <ele>555</ele>
        <time>2012-06-14T15:27:44Z</time>
      </trkpt>
      <trkpt lat="45.48114" lon="5.55022">
        <ele>554</ele>
        <time>2012-06-14T15:27:49Z</time>
      </trkpt>
      <trkpt lat="45.48114" lon="5.55032">
        <ele>554</ele>
        <time>2012-06-14T15:27:54Z</time>
      </trkpt>
      <trkpt lat="45.48113" lon="5.5504">
        <ele>553</ele>
        <time>2012-06-14T15:27:59Z</time>
      </trkpt>
      <trkpt lat="45.48116" lon="5.55046">
        <ele>553</ele>
        <time>2012-06-14T15:28:04Z</time>
      </trkpt>
      <trkpt lat="45.48113" lon="5.55051">
        <ele>552</ele>
        <time>2012-06-14T15:28:09Z</time>
      </trkpt>
      <trkpt lat="45.48111" lon="5.55052">
        <ele>552</ele>
        <time>2012-06-14T15:28:14Z</time>
      </trkpt>
      <trkpt lat="45.48112" lon="5.55047">
        <ele>553</ele>
        <time>2012-06-14T15:28:19Z</time>
      </trkpt>
      <trkpt lat="45.48109" lon="5.55052">
        <ele>553</ele>
        <time>2012-06-14T15:28:24Z</time>
      </trkpt>
      <trkpt lat="45.48104" lon="5.55056">
        <ele>552</ele>
        <time>2012-06-14T15:28:29Z</time>
      </trkpt>
      <trkpt lat="45.48099" lon="5.5506">
        <ele>552</ele>
        <time>2012-06-14T15:28:34Z</time>
      </trkpt>
      <trkpt lat="45.48094" lon="5.55065">
        <ele>552</ele>
        <time>2012-06-14T15:28:39Z</time>
      </trkpt>
      <trkpt lat="45.4809" lon="5.55069">
        <ele>551</ele>
        <time>2012-06-14T15:28:44Z</time>
      </trkpt>
      <trkpt lat="45.48084" lon="5.55073">
        <ele>551</ele>
        <time>2012-06-14T15:28:49Z</time>
      </trkpt>
      <trkpt lat="45.48078" lon="5.55078">
        <ele>551</ele>
        <time>2012-06-14T15:28:54Z</time>
      </trkpt>
      <trkpt lat="45.48074" lon="5.55081">
        <ele>550</ele>
        <time>2012-06-14T15:28:59Z</time>
      </trkpt>
      <trkpt lat="45.48069" lon="5.55084">
        <ele>550</ele>
        <time>2012-06-14T15:29:04Z</time>
      </trkpt>
      <trkpt lat="45.48064" lon="5.55086">
        <ele>549</ele>
        <time>2012-06-14T15:29:10Z</time>
      </trkpt>
      <trkpt lat="45.48057" lon="5.55088">
        <ele>549</ele>
        <time>2012-06-14T15:29:15Z</time>
      </trkpt>
      <trkpt lat="45.48052" lon="5.55091">
        <ele>548</ele>
        <time>2012-06-14T15:29:20Z</time>
      </trkpt>
      <trkpt lat="45.48046" lon="5.55092">
        <ele>548</ele>
        <time>2012-06-14T15:29:25Z</time>
      </trkpt>
      <trkpt lat="45.48041" lon="5.55094">
        <ele>548</ele>
        <time>2012-06-14T15:29:30Z</time>
      </trkpt>
      <trkpt lat="45.48036" lon="5.55096">
        <ele>548</ele>
        <time>2012-06-14T15:29:35Z</time>
      </trkpt>
      <trkpt lat="45.4803" lon="5.55098">
        <ele>547</ele>
        <time>2012-06-14T15:29:40Z</time>
      </trkpt>
      <trkpt lat="45.48024" lon="5.551">
        <ele>547</ele>
        <time>2012-06-14T15:29:45Z</time>
      </trkpt>
      <trkpt lat="45.48019" lon="5.55101">
        <ele>547</ele>
        <time>2012-06-14T15:29:50Z</time>
      </trkpt>
      <trkpt lat="45.48014" lon="5.55103">
        <ele>546</ele>
        <time>2012-06-14T15:29:55Z</time>
      </trkpt>
      <trkpt lat="45.48008" lon="5.55104">
        <ele>546</ele>
        <time>2012-06-14T15:30:00Z</time>
      </trkpt>
      <trkpt lat="45.48" lon="5.55106">
        <ele>545</ele>
        <time>2012-06-14T15:30:05Z</time>
      </trkpt>
      <trkpt lat="45.47993" lon="5.55107">
        <ele>544</ele>
        <time>2012-06-14T15:30:10Z</time>
      </trkpt>
      <trkpt lat="45.47987" lon="5.5511">
        <ele>544</ele>
        <time>2012-06-14T15:30:15Z</time>
      </trkpt>
      <trkpt lat="45.47981" lon="5.5511">
        <ele>543</ele>
        <time>2012-06-14T15:30:21Z</time>
      </trkpt>
      <trkpt lat="45.47976" lon="5.5511">
        <ele>543</ele>
        <time>2012-06-14T15:30:26Z</time>
      </trkpt>
      <trkpt lat="45.4797" lon="5.55111">
        <ele>543</ele>
        <time>2012-06-14T15:30:31Z</time>
      </trkpt>
      <trkpt lat="45.47962" lon="5.55111">
        <ele>542</ele>
        <time>2012-06-14T15:30:36Z</time>
      </trkpt>
      <trkpt lat="45.47956" lon="5.55112">
        <ele>541</ele>
        <time>2012-06-14T15:30:41Z</time>
      </trkpt>
      <trkpt lat="45.47951" lon="5.55113">
        <ele>541</ele>
        <time>2012-06-14T15:30:46Z</time>
      </trkpt>
      <trkpt lat="45.47944" lon="5.55115">
        <ele>541</ele>
        <time>2012-06-14T15:30:51Z</time>
      </trkpt>
      <trkpt lat="45.47938" lon="5.55116">
        <ele>540</ele>
        <time>2012-06-14T15:30:56Z</time>
      </trkpt>
      <trkpt lat="45.47933" lon="5.55118">
        <ele>540</ele>
        <time>2012-06-14T15:31:01Z</time>
      </trkpt>
      <trkpt lat="45.47926" lon="5.55119">
        <ele>539</ele>
        <time>2012-06-14T15:31:06Z</time>
      </trkpt>
      <trkpt lat="45.4792" lon="5.55122">
        <ele>539</ele>
        <time>2012-06-14T15:31:11Z</time>
      </trkpt>
      <trkpt lat="45.47913" lon="5.55123">
        <ele>539</ele>
        <time>2012-06-14T15:31:17Z</time>
      </trkpt>
      <trkpt lat="45.47906" lon="5.55124">
        <ele>538</ele>
        <time>2012-06-14T15:31:22Z</time>
      </trkpt>
      <trkpt lat="45.479" lon="5.55124">
        <ele>538</ele>
        <time>2012-06-14T15:31:27Z</time>
      </trkpt>
      <trkpt lat="45.47893" lon="5.55126">
        <ele>538</ele>
        <time>2012-06-14T15:31:32Z</time>
      </trkpt>
      <trkpt lat="45.47887" lon="5.55127">
        <ele>537</ele>
        <time>2012-06-14T15:31:37Z</time>
      </trkpt>
      <trkpt lat="45.47881" lon="5.55128">
        <ele>537</ele>
        <time>2012-06-14T15:31:42Z</time>
      </trkpt>
      <trkpt lat="45.47872" lon="5.55128">
        <ele>536</ele>
        <time>2012-06-14T15:31:47Z</time>
      </trkpt>
      <trkpt lat="45.47865" lon="5.55129">
        <ele>536</ele>
        <time>2012-06-14T15:31:52Z</time>
      </trkpt>
      <trkpt lat="45.47859" lon="5.55129">
        <ele>535</ele>
        <time>2012-06-14T15:31:57Z</time>
      </trkpt>
      <trkpt lat="45.47853" lon="5.5513">
        <ele>535</ele>
        <time>2012-06-14T15:32:02Z</time>
      </trkpt>
      <trkpt lat="45.47847" lon="5.5513">
        <ele>535</ele>
        <time>2012-06-14T15:32:07Z</time>
      </trkpt>
      <trkpt lat="45.4784" lon="5.55131">
        <ele>535</ele>
        <time>2012-06-14T15:32:12Z</time>
      </trkpt>
      <trkpt lat="45.47834" lon="5.55132">
        <ele>535</ele>
        <time>2012-06-14T15:32:17Z</time>
      </trkpt>
      <trkpt lat="45.47827" lon="5.55133">
        <ele>535</ele>
        <time>2012-06-14T15:32:23Z</time>
      </trkpt>
      <trkpt lat="45.47821" lon="5.55135">
        <ele>534</ele>
        <time>2012-06-14T15:32:28Z</time>
      </trkpt>
      <trkpt lat="45.47815" lon="5.55138">
        <ele>534</ele>
        <time>2012-06-14T15:32:33Z</time>
      </trkpt>
      <trkpt lat="45.47809" lon="5.55141">
        <ele>534</ele>
        <time>2012-06-14T15:32:38Z</time>
      </trkpt>
      <trkpt lat="45.47805" lon="5.55143">
        <ele>534</ele>
        <time>2012-06-14T15:32:43Z</time>
      </trkpt>
      <trkpt lat="45.478" lon="5.55144">
        <ele>534</ele>
        <time>2012-06-14T15:32:48Z</time>
      </trkpt>
      <trkpt lat="45.47795" lon="5.55147">
        <ele>534</ele>
        <time>2012-06-14T15:32:53Z</time>
      </trkpt>
      <trkpt lat="45.47791" lon="5.55151">
        <ele>534</ele>
        <time>2012-06-14T15:32:58Z</time>
      </trkpt>
      <trkpt lat="45.47787" lon="5.55157">
        <ele>533</ele>
        <time>2012-06-14T15:33:03Z</time>
      </trkpt>
      <trkpt lat="45.47783" lon="5.5516">
        <ele>533</ele>
        <time>2012-06-14T15:33:08Z</time>
      </trkpt>
      <trkpt lat="45.47777" lon="5.55165">
        <ele>532</ele>
        <time>2012-06-14T15:33:14Z</time>
      </trkpt>
      <trkpt lat="45.47773" lon="5.55171">
        <ele>532</ele>
        <time>2012-06-14T15:33:19Z</time>
      </trkpt>
      <trkpt lat="45.47766" lon="5.55176">
        <ele>532</ele>
        <time>2012-06-14T15:33:24Z</time>
      </trkpt>
      <trkpt lat="45.47761" lon="5.55181">
        <ele>532</ele>
        <time>2012-06-14T15:33:29Z</time>
      </trkpt>
      <trkpt lat="45.47755" lon="5.55184">
        <ele>532</ele>
        <time>2012-06-14T15:33:34Z</time>
      </trkpt>
      <trkpt lat="45.47751" lon="5.55188">
        <ele>531</ele>
        <time>2012-06-14T15:33:39Z</time>
      </trkpt>
      <trkpt lat="45.47745" lon="5.55191">
        <ele>531</ele>
        <time>2012-06-14T15:33:44Z</time>
      </trkpt>
      <trkpt lat="45.47739" lon="5.55192">
        <ele>530</ele>
        <time>2012-06-14T15:33:49Z</time>
      </trkpt>
      <trkpt lat="45.47733" lon="5.55194">
        <ele>530</ele>
        <time>2012-06-14T15:33:54Z</time>
      </trkpt>
      <trkpt lat="45.47727" lon="5.55195">
        <ele>529</ele>
        <time>2012-06-14T15:33:59Z</time>
      </trkpt>
      <trkpt lat="45.4772" lon="5.55195">
        <ele>528</ele>
        <time>2012-06-14T15:34:04Z</time>
      </trkpt>
      <trkpt lat="45.47714" lon="5.55195">
        <ele>527</ele>
        <time>2012-06-14T15:34:10Z</time>
      </trkpt>
      <trkpt lat="45.47707" lon="5.55197">
        <ele>527</ele>
        <time>2012-06-14T15:34:15Z</time>
      </trkpt>
      <trkpt lat="45.47702" lon="5.55201">
        <ele>527</ele>
        <time>2012-06-14T15:34:20Z</time>
      </trkpt>
      <trkpt lat="45.47697" lon="5.55205">
        <ele>526</ele>
        <time>2012-06-14T15:34:25Z</time>
      </trkpt>
      <trkpt lat="45.47692" lon="5.5521">
        <ele>526</ele>
        <time>2012-06-14T15:34:30Z</time>
      </trkpt>
      <trkpt lat="45.47688" lon="5.55215">
        <ele>525</ele>
        <time>2012-06-14T15:34:35Z</time>
      </trkpt>
      <trkpt lat="45.47684" lon="5.5522">
        <ele>525</ele>
        <time>2012-06-14T15:34:40Z</time>
      </trkpt>
      <trkpt lat="45.4768" lon="5.55226">
        <ele>524</ele>
        <time>2012-06-14T15:34:45Z</time>
      </trkpt>
      <trkpt lat="45.47675" lon="5.55232">
        <ele>525</ele>
        <time>2012-06-14T15:34:50Z</time>
      </trkpt>
      <trkpt lat="45.47672" lon="5.55238">
        <ele>524</ele>
        <time>2012-06-14T15:34:55Z</time>
      </trkpt>
      <trkpt lat="45.47667" lon="5.55244">
        <ele>523</ele>
        <time>2012-06-14T15:35:00Z</time>
      </trkpt>
      <trkpt lat="45.47663" lon="5.55248">
        <ele>523</ele>
        <time>2012-06-14T15:35:05Z</time>
      </trkpt>
      <trkpt lat="45.47659" lon="5.55254">
        <ele>522</ele>
        <time>2012-06-14T15:35:11Z</time>
      </trkpt>
      <trkpt lat="45.47654" lon="5.5526">
        <ele>522</ele>
        <time>2012-06-14T15:35:16Z</time>
      </trkpt>
      <trkpt lat="45.47651" lon="5.55265">
        <ele>522</ele>
        <time>2012-06-14T15:35:21Z</time>
      </trkpt>
      <trkpt lat="45.47646" lon="5.55272">
        <ele>521</ele>
        <time>2012-06-14T15:35:26Z</time>
      </trkpt>
      <trkpt lat="45.47642" lon="5.55278">
        <ele>520</ele>
        <time>2012-06-14T15:35:31Z</time>
      </trkpt>
      <trkpt lat="45.47637" lon="5.55284">
        <ele>520</ele>
        <time>2012-06-14T15:35:36Z</time>
      </trkpt>
      <trkpt lat="45.47632" lon="5.55289">
        <ele>520</ele>
        <time>2012-06-14T15:35:41Z</time>
      </trkpt>
      <trkpt lat="45.47627" lon="5.55294">
        <ele>519</ele>
        <time>2012-06-14T15:35:46Z</time>
      </trkpt>
      <trkpt lat="45.47623" lon="5.55299">
        <ele>519</ele>
        <time>2012-06-14T15:35:51Z</time>
      </trkpt>
      <trkpt lat="45.4762" lon="5.55305">
        <ele>518</ele>
        <time>2012-06-14T15:35:56Z</time>
      </trkpt>
      <trkpt lat="45.47619" lon="5.55313">
        <ele>518</ele>
        <time>2012-06-14T15:36:01Z</time>
      </trkpt>
      <trkpt lat="45.47618" lon="5.55322">
        <ele>517</ele>
        <time>2012-06-14T15:36:06Z</time>
      </trkpt>
      <trkpt lat="45.47618" lon="5.55327">
        <ele>517</ele>
        <time>2012-06-14T15:36:11Z</time>
      </trkpt>
      <trkpt lat="45.47618" lon="5.55335">
        <ele>517</ele>
        <time>2012-06-14T15:36:16Z</time>
      </trkpt>
      <trkpt lat="45.47618" lon="5.55342">
        <ele>516</ele>
        <time>2012-06-14T15:36:22Z</time>
      </trkpt>
      <trkpt lat="45.47617" lon="5.55349">
        <ele>516</ele>
        <time>2012-06-14T15:36:27Z</time>
      </trkpt>
      <trkpt lat="45.47615" lon="5.55357">
        <ele>516</ele>
        <time>2012-06-14T15:36:32Z</time>
      </trkpt>
      <trkpt lat="45.47613" lon="5.55363">
        <ele>516</ele>
        <time>2012-06-14T15:36:37Z</time>
      </trkpt>
      <trkpt lat="45.47609" lon="5.55369">
        <ele>516</ele>
        <time>2012-06-14T15:36:42Z</time>
      </trkpt>
      <trkpt lat="45.47605" lon="5.55377">
        <ele>516</ele>
        <time>2012-06-14T15:36:47Z</time>
      </trkpt>
      <trkpt lat="45.47602" lon="5.55384">
        <ele>516</ele>
        <time>2012-06-14T15:36:52Z</time>
      </trkpt>
      <trkpt lat="45.47601" lon="5.55386">
        <ele>516</ele>
        <time>2012-06-14T15:36:57Z</time>
      </trkpt>
      <trkpt lat="45.47599" lon="5.55388">
        <ele>516</ele>
        <time>2012-06-14T15:37:02Z</time>
      </trkpt>
      <trkpt lat="45.47596" lon="5.55397">
        <ele>516</ele>
        <time>2012-06-14T15:37:07Z</time>
      </trkpt>
      <trkpt lat="45.47597" lon="5.55406">
        <ele>516</ele>
        <time>2012-06-14T15:37:12Z</time>
      </trkpt>
      <trkpt lat="45.47596" lon="5.55408">
        <ele>515</ele>
        <time>2012-06-14T15:37:17Z</time>
      </trkpt>
      <trkpt lat="45.47595" lon="5.55408">
        <ele>515</ele>
        <time>2012-06-14T15:37:22Z</time>
      </trkpt>
      <trkpt lat="45.47594" lon="5.55408">
        <ele>515</ele>
        <time>2012-06-14T15:37:27Z</time>
      </trkpt>
      <trkpt lat="45.47594" lon="5.55407">
        <ele>515</ele>
        <time>2012-06-14T15:37:32Z</time>
      </trkpt>
      <trkpt lat="45.47593" lon="5.55407">
        <ele>515</ele>
        <time>2012-06-14T15:37:37Z</time>
      </trkpt>
      <trkpt lat="45.47592" lon="5.55406">
        <ele>515</ele>
        <time>2012-06-14T15:37:42Z</time>
      </trkpt>
      <trkpt lat="45.47592" lon="5.55406">
        <ele>515</ele>
        <time>2012-06-14T15:37:47Z</time>
      </trkpt>
      <trkpt lat="45.47591" lon="5.55406">
        <ele>515</ele>
        <time>2012-06-14T15:37:48Z</time>
      </trkpt>
    </trkseg>
  </trk>
</gpx>